<?xml version="1.0" encoding="UTF-8" standalone="no" ?>
<gpx xmlns="http://www.topografix.com/GPX/1/1" xmlns:xsi="http://www.w3.org/2001/XMLSchema-instance" xsi:schemaLocation="http://www.topografix.com/GPX/1/1 http://www.topografix.com/GPX/1/1/gpx.xsd" version="1.1" creator="VisuGPX - https://www.visugpx.com">
  <metadata>
    <name>Obersteinbach - Burgenweg</name>
    <desc><![CDATA[Depuis Obersteinbach sur le chemin des châteaux (Burgenweg 32km) réduit à 22km depuis Schönau(Pfalz)]]></desc>
  </metadata>
  <trk>
    <name><![CDATA[2020-06-11 08:20:52]]></name>
    <extensions>
      <line xmlns="http://www.topografix.com/GPX/gpx_style/0/2">
        <color>0000FF</color>
        <opacity>0.59</opacity>
        <width>6.0</width>
      </line>
    </extensions>
    <trkseg>
      <trkpt lat="49.03678" lon="7.68287">
        <ele>250</ele>
        <time>2020-06-11T06:20:50.000Z</time>
      </trkpt>
      <trkpt lat="49.0368" lon="7.68287">
        <ele>251</ele>
        <time>2020-06-11T06:21:55.000Z</time>
      </trkpt>
      <trkpt lat="49.03691" lon="7.68283">
        <ele>251</ele>
        <time>2020-06-11T06:22:05.000Z</time>
      </trkpt>
      <trkpt lat="49.03699" lon="7.68271">
        <ele>251</ele>
        <time>2020-06-11T06:22:15.000Z</time>
      </trkpt>
      <trkpt lat="49.03709" lon="7.68257">
        <ele>252</ele>
        <time>2020-06-11T06:22:25.000Z</time>
      </trkpt>
      <trkpt lat="49.03713" lon="7.68253">
        <ele>252</ele>
        <time>2020-06-11T06:22:35.000Z</time>
      </trkpt>
      <trkpt lat="49.03712" lon="7.6825">
        <ele>248</ele>
        <time>2020-06-11T06:22:45.000Z</time>
      </trkpt>
      <trkpt lat="49.03713" lon="7.6825">
        <ele>248</ele>
        <time>2020-06-11T06:22:55.000Z</time>
      </trkpt>
      <trkpt lat="49.0372" lon="7.68243">
        <ele>248</ele>
        <time>2020-06-11T06:23:05.000Z</time>
      </trkpt>
      <trkpt lat="49.03725" lon="7.68229">
        <ele>248</ele>
        <time>2020-06-11T06:23:15.000Z</time>
      </trkpt>
      <trkpt lat="49.03734" lon="7.68217">
        <ele>248</ele>
        <time>2020-06-11T06:23:25.000Z</time>
      </trkpt>
      <trkpt lat="49.03745" lon="7.68201">
        <ele>248</ele>
        <time>2020-06-11T06:23:35.000Z</time>
      </trkpt>
      <trkpt lat="49.03754" lon="7.68187">
        <ele>255</ele>
        <time>2020-06-11T06:23:45.000Z</time>
      </trkpt>
      <trkpt lat="49.03763" lon="7.68174">
        <ele>253</ele>
        <time>2020-06-11T06:23:55.000Z</time>
      </trkpt>
      <trkpt lat="49.03774" lon="7.68163">
        <ele>250</ele>
        <time>2020-06-11T06:24:05.000Z</time>
      </trkpt>
      <trkpt lat="49.03785" lon="7.68153">
        <ele>251</ele>
        <time>2020-06-11T06:24:15.000Z</time>
      </trkpt>
      <trkpt lat="49.03797" lon="7.68144">
        <ele>252</ele>
        <time>2020-06-11T06:24:25.000Z</time>
      </trkpt>
      <trkpt lat="49.0381" lon="7.68136">
        <ele>253</ele>
        <time>2020-06-11T06:24:35.000Z</time>
      </trkpt>
      <trkpt lat="49.03824" lon="7.68129">
        <ele>253</ele>
        <time>2020-06-11T06:24:45.000Z</time>
      </trkpt>
      <trkpt lat="49.03833" lon="7.68125">
        <ele>256</ele>
        <time>2020-06-11T06:24:55.000Z</time>
      </trkpt>
      <trkpt lat="49.03844" lon="7.6812">
        <ele>256</ele>
        <time>2020-06-11T06:25:05.000Z</time>
      </trkpt>
      <trkpt lat="49.03856" lon="7.68116">
        <ele>256</ele>
        <time>2020-06-11T06:25:15.000Z</time>
      </trkpt>
      <trkpt lat="49.03869" lon="7.68111">
        <ele>256</ele>
        <time>2020-06-11T06:25:25.000Z</time>
      </trkpt>
      <trkpt lat="49.03882" lon="7.68108">
        <ele>256</ele>
        <time>2020-06-11T06:25:35.000Z</time>
      </trkpt>
      <trkpt lat="49.03895" lon="7.68102">
        <ele>255</ele>
        <time>2020-06-11T06:25:45.000Z</time>
      </trkpt>
      <trkpt lat="49.03907" lon="7.68098">
        <ele>254</ele>
        <time>2020-06-11T06:25:55.000Z</time>
      </trkpt>
      <trkpt lat="49.03917" lon="7.68093">
        <ele>254</ele>
        <time>2020-06-11T06:26:05.000Z</time>
      </trkpt>
      <trkpt lat="49.0393" lon="7.68088">
        <ele>255</ele>
        <time>2020-06-11T06:26:15.000Z</time>
      </trkpt>
      <trkpt lat="49.03944" lon="7.68082">
        <ele>252</ele>
        <time>2020-06-11T06:26:25.000Z</time>
      </trkpt>
      <trkpt lat="49.03955" lon="7.68079">
        <ele>253</ele>
        <time>2020-06-11T06:26:35.000Z</time>
      </trkpt>
      <trkpt lat="49.03966" lon="7.68078">
        <ele>253</ele>
        <time>2020-06-11T06:26:45.000Z</time>
      </trkpt>
      <trkpt lat="49.03976" lon="7.68078">
        <ele>253</ele>
        <time>2020-06-11T06:26:55.000Z</time>
      </trkpt>
      <trkpt lat="49.03991" lon="7.68079">
        <ele>254</ele>
        <time>2020-06-11T06:27:05.000Z</time>
      </trkpt>
      <trkpt lat="49.04004" lon="7.68075">
        <ele>254</ele>
        <time>2020-06-11T06:27:15.000Z</time>
      </trkpt>
      <trkpt lat="49.04017" lon="7.68071">
        <ele>254</ele>
        <time>2020-06-11T06:27:25.000Z</time>
      </trkpt>
      <trkpt lat="49.0403" lon="7.68065">
        <ele>254</ele>
        <time>2020-06-11T06:27:35.000Z</time>
      </trkpt>
      <trkpt lat="49.04041" lon="7.6806">
        <ele>254</ele>
        <time>2020-06-11T06:27:45.000Z</time>
      </trkpt>
      <trkpt lat="49.04054" lon="7.68055">
        <ele>254</ele>
        <time>2020-06-11T06:27:55.000Z</time>
      </trkpt>
      <trkpt lat="49.04068" lon="7.68051">
        <ele>254</ele>
        <time>2020-06-11T06:28:05.000Z</time>
      </trkpt>
      <trkpt lat="49.04081" lon="7.68052">
        <ele>254</ele>
        <time>2020-06-11T06:28:15.000Z</time>
      </trkpt>
      <trkpt lat="49.04093" lon="7.68056">
        <ele>256</ele>
        <time>2020-06-11T06:28:25.000Z</time>
      </trkpt>
      <trkpt lat="49.04107" lon="7.68064">
        <ele>256</ele>
        <time>2020-06-11T06:28:35.000Z</time>
      </trkpt>
      <trkpt lat="49.04119" lon="7.68071">
        <ele>256</ele>
        <time>2020-06-11T06:28:45.000Z</time>
      </trkpt>
      <trkpt lat="49.04129" lon="7.68076">
        <ele>257</ele>
        <time>2020-06-11T06:28:55.000Z</time>
      </trkpt>
      <trkpt lat="49.04139" lon="7.68079">
        <ele>257</ele>
        <time>2020-06-11T06:29:05.000Z</time>
      </trkpt>
      <trkpt lat="49.04152" lon="7.68085">
        <ele>261</ele>
        <time>2020-06-11T06:29:15.000Z</time>
      </trkpt>
      <trkpt lat="49.04167" lon="7.68092">
        <ele>260</ele>
        <time>2020-06-11T06:29:25.000Z</time>
      </trkpt>
      <trkpt lat="49.04181" lon="7.68098">
        <ele>261</ele>
        <time>2020-06-11T06:29:35.000Z</time>
      </trkpt>
      <trkpt lat="49.04194" lon="7.68104">
        <ele>262</ele>
        <time>2020-06-11T06:29:45.000Z</time>
      </trkpt>
      <trkpt lat="49.04206" lon="7.6811">
        <ele>262</ele>
        <time>2020-06-11T06:29:55.000Z</time>
      </trkpt>
      <trkpt lat="49.04221" lon="7.68119">
        <ele>262</ele>
        <time>2020-06-11T06:30:05.000Z</time>
      </trkpt>
      <trkpt lat="49.04236" lon="7.68127">
        <ele>262</ele>
        <time>2020-06-11T06:30:15.000Z</time>
      </trkpt>
      <trkpt lat="49.04247" lon="7.68134">
        <ele>263</ele>
        <time>2020-06-11T06:30:25.000Z</time>
      </trkpt>
      <trkpt lat="49.04257" lon="7.68139">
        <ele>261</ele>
        <time>2020-06-11T06:30:35.000Z</time>
      </trkpt>
      <trkpt lat="49.04264" lon="7.68147">
        <ele>262</ele>
        <time>2020-06-11T06:30:45.000Z</time>
      </trkpt>
      <trkpt lat="49.04278" lon="7.68152">
        <ele>261</ele>
        <time>2020-06-11T06:30:55.000Z</time>
      </trkpt>
      <trkpt lat="49.04294" lon="7.6816">
        <ele>260</ele>
        <time>2020-06-11T06:31:05.000Z</time>
      </trkpt>
      <trkpt lat="49.04308" lon="7.68169">
        <ele>265</ele>
        <time>2020-06-11T06:31:15.000Z</time>
      </trkpt>
      <trkpt lat="49.04321" lon="7.68178">
        <ele>263</ele>
        <time>2020-06-11T06:31:25.000Z</time>
      </trkpt>
      <trkpt lat="49.04333" lon="7.68185">
        <ele>264</ele>
        <time>2020-06-11T06:31:35.000Z</time>
      </trkpt>
      <trkpt lat="49.04345" lon="7.68192">
        <ele>264</ele>
        <time>2020-06-11T06:31:45.000Z</time>
      </trkpt>
      <trkpt lat="49.04357" lon="7.68198">
        <ele>265</ele>
        <time>2020-06-11T06:31:55.000Z</time>
      </trkpt>
      <trkpt lat="49.04369" lon="7.68199">
        <ele>265</ele>
        <time>2020-06-11T06:32:05.000Z</time>
      </trkpt>
      <trkpt lat="49.0438" lon="7.68201">
        <ele>266</ele>
        <time>2020-06-11T06:32:15.000Z</time>
      </trkpt>
      <trkpt lat="49.04396" lon="7.682">
        <ele>266</ele>
        <time>2020-06-11T06:32:25.000Z</time>
      </trkpt>
      <trkpt lat="49.04409" lon="7.68201">
        <ele>266</ele>
        <time>2020-06-11T06:32:35.000Z</time>
      </trkpt>
      <trkpt lat="49.04421" lon="7.68206">
        <ele>270</ele>
        <time>2020-06-11T06:32:45.000Z</time>
      </trkpt>
      <trkpt lat="49.04433" lon="7.68209">
        <ele>270</ele>
        <time>2020-06-11T06:32:55.000Z</time>
      </trkpt>
      <trkpt lat="49.04443" lon="7.68212">
        <ele>271</ele>
        <time>2020-06-11T06:33:05.000Z</time>
      </trkpt>
      <trkpt lat="49.04451" lon="7.68216">
        <ele>271</ele>
        <time>2020-06-11T06:33:15.000Z</time>
      </trkpt>
      <trkpt lat="49.04461" lon="7.68221">
        <ele>271</ele>
        <time>2020-06-11T06:33:25.000Z</time>
      </trkpt>
      <trkpt lat="49.04476" lon="7.68232">
        <ele>272</ele>
        <time>2020-06-11T06:33:35.000Z</time>
      </trkpt>
      <trkpt lat="49.04489" lon="7.68241">
        <ele>273</ele>
        <time>2020-06-11T06:33:45.000Z</time>
      </trkpt>
      <trkpt lat="49.04501" lon="7.68246">
        <ele>274</ele>
        <time>2020-06-11T06:33:55.000Z</time>
      </trkpt>
      <trkpt lat="49.04512" lon="7.68248">
        <ele>274</ele>
        <time>2020-06-11T06:34:05.000Z</time>
      </trkpt>
      <trkpt lat="49.04527" lon="7.68249">
        <ele>273</ele>
        <time>2020-06-11T06:34:15.000Z</time>
      </trkpt>
      <trkpt lat="49.0454" lon="7.68254">
        <ele>279</ele>
        <time>2020-06-11T06:34:25.000Z</time>
      </trkpt>
      <trkpt lat="49.04555" lon="7.68261">
        <ele>279</ele>
        <time>2020-06-11T06:34:35.000Z</time>
      </trkpt>
      <trkpt lat="49.04566" lon="7.6827">
        <ele>278</ele>
        <time>2020-06-11T06:34:45.000Z</time>
      </trkpt>
      <trkpt lat="49.04577" lon="7.68275">
        <ele>279</ele>
        <time>2020-06-11T06:34:55.000Z</time>
      </trkpt>
      <trkpt lat="49.04588" lon="7.6828">
        <ele>278</ele>
        <time>2020-06-11T06:35:05.000Z</time>
      </trkpt>
      <trkpt lat="49.04596" lon="7.68284">
        <ele>279</ele>
        <time>2020-06-11T06:35:15.000Z</time>
      </trkpt>
      <trkpt lat="49.04611" lon="7.68287">
        <ele>279</ele>
        <time>2020-06-11T06:35:25.000Z</time>
      </trkpt>
      <trkpt lat="49.04623" lon="7.68292">
        <ele>279</ele>
        <time>2020-06-11T06:35:35.000Z</time>
      </trkpt>
      <trkpt lat="49.04638" lon="7.68298">
        <ele>280</ele>
        <time>2020-06-11T06:35:45.000Z</time>
      </trkpt>
      <trkpt lat="49.04653" lon="7.68303">
        <ele>280</ele>
        <time>2020-06-11T06:35:55.000Z</time>
      </trkpt>
      <trkpt lat="49.04662" lon="7.68306">
        <ele>280</ele>
        <time>2020-06-11T06:36:05.000Z</time>
      </trkpt>
      <trkpt lat="49.04676" lon="7.68308">
        <ele>279</ele>
        <time>2020-06-11T06:36:15.000Z</time>
      </trkpt>
      <trkpt lat="49.04692" lon="7.68312">
        <ele>279</ele>
        <time>2020-06-11T06:36:25.000Z</time>
      </trkpt>
      <trkpt lat="49.04705" lon="7.68316">
        <ele>279</ele>
        <time>2020-06-11T06:36:35.000Z</time>
      </trkpt>
      <trkpt lat="49.04717" lon="7.68321">
        <ele>279</ele>
        <time>2020-06-11T06:36:45.000Z</time>
      </trkpt>
      <trkpt lat="49.04725" lon="7.68324">
        <ele>279</ele>
        <time>2020-06-11T06:36:55.000Z</time>
      </trkpt>
      <trkpt lat="49.04736" lon="7.68327">
        <ele>279</ele>
        <time>2020-06-11T06:37:05.000Z</time>
      </trkpt>
      <trkpt lat="49.04753" lon="7.68329">
        <ele>279</ele>
        <time>2020-06-11T06:37:15.000Z</time>
      </trkpt>
      <trkpt lat="49.04763" lon="7.68331">
        <ele>279</ele>
        <time>2020-06-11T06:37:25.000Z</time>
      </trkpt>
      <trkpt lat="49.04762" lon="7.68334">
        <ele>281</ele>
        <time>2020-06-11T06:37:35.000Z</time>
      </trkpt>
      <trkpt lat="49.0476" lon="7.68335">
        <ele>281</ele>
        <time>2020-06-11T06:37:55.000Z</time>
      </trkpt>
      <trkpt lat="49.04759" lon="7.68343">
        <ele>281</ele>
        <time>2020-06-11T06:38:05.000Z</time>
      </trkpt>
      <trkpt lat="49.04751" lon="7.68352">
        <ele>282</ele>
        <time>2020-06-11T06:38:15.000Z</time>
      </trkpt>
      <trkpt lat="49.0474" lon="7.68356">
        <ele>284</ele>
        <time>2020-06-11T06:38:25.000Z</time>
      </trkpt>
      <trkpt lat="49.04729" lon="7.68353">
        <ele>284</ele>
        <time>2020-06-11T06:38:35.000Z</time>
      </trkpt>
      <trkpt lat="49.0471" lon="7.68345">
        <ele>284</ele>
        <time>2020-06-11T06:38:45.000Z</time>
      </trkpt>
      <trkpt lat="49.04703" lon="7.68335">
        <ele>284</ele>
        <time>2020-06-11T06:38:55.000Z</time>
      </trkpt>
      <trkpt lat="49.04696" lon="7.6833">
        <ele>279</ele>
        <time>2020-06-11T06:39:05.000Z</time>
      </trkpt>
      <trkpt lat="49.04687" lon="7.68324">
        <ele>280</ele>
        <time>2020-06-11T06:39:15.000Z</time>
      </trkpt>
      <trkpt lat="49.04679" lon="7.68324">
        <ele>280</ele>
        <time>2020-06-11T06:39:25.000Z</time>
      </trkpt>
      <trkpt lat="49.04665" lon="7.68329">
        <ele>282</ele>
        <time>2020-06-11T06:39:35.000Z</time>
      </trkpt>
      <trkpt lat="49.04652" lon="7.68328">
        <ele>281</ele>
        <time>2020-06-11T06:39:45.000Z</time>
      </trkpt>
      <trkpt lat="49.04633" lon="7.68324">
        <ele>281</ele>
        <time>2020-06-11T06:39:55.000Z</time>
      </trkpt>
      <trkpt lat="49.04624" lon="7.68315">
        <ele>281</ele>
        <time>2020-06-11T06:40:05.000Z</time>
      </trkpt>
      <trkpt lat="49.04627" lon="7.68292">
        <ele>279</ele>
        <time>2020-06-11T06:40:15.000Z</time>
      </trkpt>
      <trkpt lat="49.0463" lon="7.68269">
        <ele>278</ele>
        <time>2020-06-11T06:40:25.000Z</time>
      </trkpt>
      <trkpt lat="49.04635" lon="7.68239">
        <ele>272</ele>
        <time>2020-06-11T06:40:35.000Z</time>
      </trkpt>
      <trkpt lat="49.0464" lon="7.68215">
        <ele>271</ele>
        <time>2020-06-11T06:40:45.000Z</time>
      </trkpt>
      <trkpt lat="49.04639" lon="7.68193">
        <ele>270</ele>
        <time>2020-06-11T06:40:55.000Z</time>
      </trkpt>
      <trkpt lat="49.04639" lon="7.68173">
        <ele>270</ele>
        <time>2020-06-11T06:41:05.000Z</time>
      </trkpt>
      <trkpt lat="49.04641" lon="7.68154">
        <ele>269</ele>
        <time>2020-06-11T06:41:15.000Z</time>
      </trkpt>
      <trkpt lat="49.04646" lon="7.68135">
        <ele>270</ele>
        <time>2020-06-11T06:41:25.000Z</time>
      </trkpt>
      <trkpt lat="49.0465" lon="7.68118">
        <ele>271</ele>
        <time>2020-06-11T06:41:35.000Z</time>
      </trkpt>
      <trkpt lat="49.04654" lon="7.68101">
        <ele>272</ele>
        <time>2020-06-11T06:41:45.000Z</time>
      </trkpt>
      <trkpt lat="49.04656" lon="7.68085">
        <ele>274</ele>
        <time>2020-06-11T06:41:55.000Z</time>
      </trkpt>
      <trkpt lat="49.04657" lon="7.68067">
        <ele>274</ele>
        <time>2020-06-11T06:42:05.000Z</time>
      </trkpt>
      <trkpt lat="49.04661" lon="7.68045">
        <ele>274</ele>
        <time>2020-06-11T06:42:15.000Z</time>
      </trkpt>
      <trkpt lat="49.04663" lon="7.68024">
        <ele>275</ele>
        <time>2020-06-11T06:42:25.000Z</time>
      </trkpt>
      <trkpt lat="49.04666" lon="7.68006">
        <ele>278</ele>
        <time>2020-06-11T06:42:35.000Z</time>
      </trkpt>
      <trkpt lat="49.04668" lon="7.67987">
        <ele>281</ele>
        <time>2020-06-11T06:42:45.000Z</time>
      </trkpt>
      <trkpt lat="49.04672" lon="7.67966">
        <ele>282</ele>
        <time>2020-06-11T06:42:55.000Z</time>
      </trkpt>
      <trkpt lat="49.04675" lon="7.67951">
        <ele>283</ele>
        <time>2020-06-11T06:43:05.000Z</time>
      </trkpt>
      <trkpt lat="49.04676" lon="7.67934">
        <ele>282</ele>
        <time>2020-06-11T06:43:15.000Z</time>
      </trkpt>
      <trkpt lat="49.04667" lon="7.6792">
        <ele>281</ele>
        <time>2020-06-11T06:43:25.000Z</time>
      </trkpt>
      <trkpt lat="49.04661" lon="7.67913">
        <ele>279</ele>
        <time>2020-06-11T06:43:35.000Z</time>
      </trkpt>
      <trkpt lat="49.04657" lon="7.67906">
        <ele>279</ele>
        <time>2020-06-11T06:43:45.000Z</time>
      </trkpt>
      <trkpt lat="49.04649" lon="7.67896">
        <ele>278</ele>
        <time>2020-06-11T06:43:55.000Z</time>
      </trkpt>
      <trkpt lat="49.04639" lon="7.67883">
        <ele>278</ele>
        <time>2020-06-11T06:44:05.000Z</time>
      </trkpt>
      <trkpt lat="49.04631" lon="7.6787">
        <ele>278</ele>
        <time>2020-06-11T06:44:15.000Z</time>
      </trkpt>
      <trkpt lat="49.04624" lon="7.67853">
        <ele>278</ele>
        <time>2020-06-11T06:44:25.000Z</time>
      </trkpt>
      <trkpt lat="49.04614" lon="7.67837">
        <ele>278</ele>
        <time>2020-06-11T06:44:35.000Z</time>
      </trkpt>
      <trkpt lat="49.04606" lon="7.67823">
        <ele>280</ele>
        <time>2020-06-11T06:44:45.000Z</time>
      </trkpt>
      <trkpt lat="49.04597" lon="7.6781">
        <ele>281</ele>
        <time>2020-06-11T06:44:55.000Z</time>
      </trkpt>
      <trkpt lat="49.04589" lon="7.67796">
        <ele>281</ele>
        <time>2020-06-11T06:45:05.000Z</time>
      </trkpt>
      <trkpt lat="49.04581" lon="7.67778">
        <ele>279</ele>
        <time>2020-06-11T06:45:15.000Z</time>
      </trkpt>
      <trkpt lat="49.04573" lon="7.67762">
        <ele>280</ele>
        <time>2020-06-11T06:45:25.000Z</time>
      </trkpt>
      <trkpt lat="49.04565" lon="7.67747">
        <ele>283</ele>
        <time>2020-06-11T06:45:35.000Z</time>
      </trkpt>
      <trkpt lat="49.04557" lon="7.67729">
        <ele>285</ele>
        <time>2020-06-11T06:45:45.000Z</time>
      </trkpt>
      <trkpt lat="49.0455" lon="7.67711">
        <ele>286</ele>
        <time>2020-06-11T06:45:55.000Z</time>
      </trkpt>
      <trkpt lat="49.04541" lon="7.67692">
        <ele>287</ele>
        <time>2020-06-11T06:46:05.000Z</time>
      </trkpt>
      <trkpt lat="49.04534" lon="7.67673">
        <ele>288</ele>
        <time>2020-06-11T06:46:15.000Z</time>
      </trkpt>
      <trkpt lat="49.04526" lon="7.67654">
        <ele>294</ele>
        <time>2020-06-11T06:46:25.000Z</time>
      </trkpt>
      <trkpt lat="49.0452" lon="7.67637">
        <ele>295</ele>
        <time>2020-06-11T06:46:35.000Z</time>
      </trkpt>
      <trkpt lat="49.04515" lon="7.67623">
        <ele>296</ele>
        <time>2020-06-11T06:46:45.000Z</time>
      </trkpt>
      <trkpt lat="49.0451" lon="7.67608">
        <ele>297</ele>
        <time>2020-06-11T06:46:55.000Z</time>
      </trkpt>
      <trkpt lat="49.04508" lon="7.67589">
        <ele>297</ele>
        <time>2020-06-11T06:47:05.000Z</time>
      </trkpt>
      <trkpt lat="49.04503" lon="7.67567">
        <ele>302</ele>
        <time>2020-06-11T06:47:15.000Z</time>
      </trkpt>
      <trkpt lat="49.04498" lon="7.6755">
        <ele>303</ele>
        <time>2020-06-11T06:47:25.000Z</time>
      </trkpt>
      <trkpt lat="49.04496" lon="7.67532">
        <ele>304</ele>
        <time>2020-06-11T06:47:35.000Z</time>
      </trkpt>
      <trkpt lat="49.04488" lon="7.67518">
        <ele>304</ele>
        <time>2020-06-11T06:47:45.000Z</time>
      </trkpt>
      <trkpt lat="49.0448" lon="7.67501">
        <ele>304</ele>
        <time>2020-06-11T06:47:55.000Z</time>
      </trkpt>
      <trkpt lat="49.04476" lon="7.67485">
        <ele>305</ele>
        <time>2020-06-11T06:48:05.000Z</time>
      </trkpt>
      <trkpt lat="49.04477" lon="7.67472">
        <ele>305</ele>
        <time>2020-06-11T06:48:15.000Z</time>
      </trkpt>
      <trkpt lat="49.04476" lon="7.67461">
        <ele>305</ele>
        <time>2020-06-11T06:48:25.000Z</time>
      </trkpt>
      <trkpt lat="49.04479" lon="7.67449">
        <ele>306</ele>
        <time>2020-06-11T06:48:35.000Z</time>
      </trkpt>
      <trkpt lat="49.0448" lon="7.67434">
        <ele>306</ele>
        <time>2020-06-11T06:48:45.000Z</time>
      </trkpt>
      <trkpt lat="49.04481" lon="7.67417">
        <ele>306</ele>
        <time>2020-06-11T06:48:55.000Z</time>
      </trkpt>
      <trkpt lat="49.04484" lon="7.67405">
        <ele>304</ele>
        <time>2020-06-11T06:49:05.000Z</time>
      </trkpt>
      <trkpt lat="49.04488" lon="7.6739">
        <ele>304</ele>
        <time>2020-06-11T06:49:15.000Z</time>
      </trkpt>
      <trkpt lat="49.04487" lon="7.67382">
        <ele>303</ele>
        <time>2020-06-11T06:49:25.000Z</time>
      </trkpt>
      <trkpt lat="49.04487" lon="7.67379">
        <ele>303</ele>
        <time>2020-06-11T06:49:35.000Z</time>
      </trkpt>
      <trkpt lat="49.04489" lon="7.6738">
        <ele>303</ele>
        <time>2020-06-11T06:49:45.000Z</time>
      </trkpt>
      <trkpt lat="49.04492" lon="7.67385">
        <ele>303</ele>
        <time>2020-06-11T06:49:55.000Z</time>
      </trkpt>
      <trkpt lat="49.04492" lon="7.67388">
        <ele>304</ele>
        <time>2020-06-11T06:50:05.000Z</time>
      </trkpt>
      <trkpt lat="49.04492" lon="7.6739">
        <ele>304</ele>
        <time>2020-06-11T06:50:15.000Z</time>
      </trkpt>
      <trkpt lat="49.04493" lon="7.6739">
        <ele>304</ele>
        <time>2020-06-11T06:50:30.000Z</time>
      </trkpt>
      <trkpt lat="49.04497" lon="7.67385">
        <ele>303</ele>
        <time>2020-06-11T06:50:40.000Z</time>
      </trkpt>
      <trkpt lat="49.04498" lon="7.67381">
        <ele>303</ele>
        <time>2020-06-11T06:50:50.000Z</time>
      </trkpt>
      <trkpt lat="49.04499" lon="7.6738">
        <ele>303</ele>
        <time>2020-06-11T06:51:01.000Z</time>
      </trkpt>
      <trkpt lat="49.04504" lon="7.67372">
        <ele>312</ele>
        <time>2020-06-11T06:51:11.000Z</time>
      </trkpt>
      <trkpt lat="49.04504" lon="7.67369">
        <ele>312</ele>
        <time>2020-06-11T06:51:21.000Z</time>
      </trkpt>
      <trkpt lat="49.04505" lon="7.67367">
        <ele>312</ele>
        <time>2020-06-11T06:51:36.000Z</time>
      </trkpt>
      <trkpt lat="49.04504" lon="7.67363">
        <ele>312</ele>
        <time>2020-06-11T06:51:46.000Z</time>
      </trkpt>
      <trkpt lat="49.04506" lon="7.67355">
        <ele>311</ele>
        <time>2020-06-11T06:51:56.000Z</time>
      </trkpt>
      <trkpt lat="49.04511" lon="7.67348">
        <ele>311</ele>
        <time>2020-06-11T06:52:15.000Z</time>
      </trkpt>
      <trkpt lat="49.04512" lon="7.67347">
        <ele>310</ele>
        <time>2020-06-11T06:52:25.000Z</time>
      </trkpt>
      <trkpt lat="49.04513" lon="7.67347">
        <ele>311</ele>
        <time>2020-06-11T06:52:41.000Z</time>
      </trkpt>
      <trkpt lat="49.04515" lon="7.67345">
        <ele>311</ele>
        <time>2020-06-11T06:53:03.000Z</time>
      </trkpt>
      <trkpt lat="49.04517" lon="7.6734">
        <ele>311</ele>
        <time>2020-06-11T06:53:13.000Z</time>
      </trkpt>
      <trkpt lat="49.04513" lon="7.67331">
        <ele>310</ele>
        <time>2020-06-11T06:53:23.000Z</time>
      </trkpt>
      <trkpt lat="49.04513" lon="7.67328">
        <ele>310</ele>
        <time>2020-06-11T06:53:33.000Z</time>
      </trkpt>
      <trkpt lat="49.04516" lon="7.67322">
        <ele>312</ele>
        <time>2020-06-11T06:53:43.000Z</time>
      </trkpt>
      <trkpt lat="49.04519" lon="7.67314">
        <ele>314</ele>
        <time>2020-06-11T06:53:53.000Z</time>
      </trkpt>
      <trkpt lat="49.04523" lon="7.67308">
        <ele>316</ele>
        <time>2020-06-11T06:54:03.000Z</time>
      </trkpt>
      <trkpt lat="49.04525" lon="7.67304">
        <ele>317</ele>
        <time>2020-06-11T06:54:13.000Z</time>
      </trkpt>
      <trkpt lat="49.04525" lon="7.67297">
        <ele>317</ele>
        <time>2020-06-11T06:54:23.000Z</time>
      </trkpt>
      <trkpt lat="49.04528" lon="7.67286">
        <ele>318</ele>
        <time>2020-06-11T06:54:33.000Z</time>
      </trkpt>
      <trkpt lat="49.04532" lon="7.67277">
        <ele>318</ele>
        <time>2020-06-11T06:54:43.000Z</time>
      </trkpt>
      <trkpt lat="49.04534" lon="7.67269">
        <ele>319</ele>
        <time>2020-06-11T06:54:53.000Z</time>
      </trkpt>
      <trkpt lat="49.04536" lon="7.67263">
        <ele>319</ele>
        <time>2020-06-11T06:55:03.000Z</time>
      </trkpt>
      <trkpt lat="49.04538" lon="7.67256">
        <ele>320</ele>
        <time>2020-06-11T06:55:13.000Z</time>
      </trkpt>
      <trkpt lat="49.0454" lon="7.67248">
        <ele>325</ele>
        <time>2020-06-11T06:55:23.000Z</time>
      </trkpt>
      <trkpt lat="49.04543" lon="7.67242">
        <ele>326</ele>
        <time>2020-06-11T06:55:33.000Z</time>
      </trkpt>
      <trkpt lat="49.04549" lon="7.67232">
        <ele>328</ele>
        <time>2020-06-11T06:55:43.000Z</time>
      </trkpt>
      <trkpt lat="49.04551" lon="7.67225">
        <ele>328</ele>
        <time>2020-06-11T06:55:53.000Z</time>
      </trkpt>
      <trkpt lat="49.04553" lon="7.67214">
        <ele>329</ele>
        <time>2020-06-11T06:56:03.000Z</time>
      </trkpt>
      <trkpt lat="49.04553" lon="7.67211">
        <ele>329</ele>
        <time>2020-06-11T06:56:13.000Z</time>
      </trkpt>
      <trkpt lat="49.04555" lon="7.672">
        <ele>331</ele>
        <time>2020-06-11T06:56:23.000Z</time>
      </trkpt>
      <trkpt lat="49.04555" lon="7.67196">
        <ele>331</ele>
        <time>2020-06-11T06:56:33.000Z</time>
      </trkpt>
      <trkpt lat="49.04555" lon="7.67194">
        <ele>331</ele>
        <time>2020-06-11T06:56:55.000Z</time>
      </trkpt>
      <trkpt lat="49.04556" lon="7.67187">
        <ele>332</ele>
        <time>2020-06-11T06:57:05.000Z</time>
      </trkpt>
      <trkpt lat="49.04556" lon="7.67185">
        <ele>333</ele>
        <time>2020-06-11T06:57:22.000Z</time>
      </trkpt>
      <trkpt lat="49.04559" lon="7.67178">
        <ele>335</ele>
        <time>2020-06-11T06:57:32.000Z</time>
      </trkpt>
      <trkpt lat="49.04562" lon="7.67167">
        <ele>340</ele>
        <time>2020-06-11T06:57:42.000Z</time>
      </trkpt>
      <trkpt lat="49.04563" lon="7.67164">
        <ele>341</ele>
        <time>2020-06-11T06:57:52.000Z</time>
      </trkpt>
      <trkpt lat="49.04566" lon="7.67154">
        <ele>341</ele>
        <time>2020-06-11T06:58:02.000Z</time>
      </trkpt>
      <trkpt lat="49.04567" lon="7.6715">
        <ele>341</ele>
        <time>2020-06-11T06:58:12.000Z</time>
      </trkpt>
      <trkpt lat="49.04571" lon="7.67139">
        <ele>340</ele>
        <time>2020-06-11T06:58:22.000Z</time>
      </trkpt>
      <trkpt lat="49.04574" lon="7.67133">
        <ele>340</ele>
        <time>2020-06-11T06:58:32.000Z</time>
      </trkpt>
      <trkpt lat="49.04574" lon="7.67132">
        <ele>340</ele>
        <time>2020-06-11T06:58:42.000Z</time>
      </trkpt>
      <trkpt lat="49.04575" lon="7.67127">
        <ele>340</ele>
        <time>2020-06-11T06:58:52.000Z</time>
      </trkpt>
      <trkpt lat="49.04577" lon="7.67121">
        <ele>341</ele>
        <time>2020-06-11T06:59:02.000Z</time>
      </trkpt>
      <trkpt lat="49.0458" lon="7.67111">
        <ele>342</ele>
        <time>2020-06-11T06:59:12.000Z</time>
      </trkpt>
      <trkpt lat="49.04584" lon="7.67101">
        <ele>360</ele>
        <time>2020-06-11T06:59:22.000Z</time>
      </trkpt>
      <trkpt lat="49.04588" lon="7.6709">
        <ele>358</ele>
        <time>2020-06-11T06:59:32.000Z</time>
      </trkpt>
      <trkpt lat="49.04589" lon="7.67088">
        <ele>358</ele>
        <time>2020-06-11T06:59:42.000Z</time>
      </trkpt>
      <trkpt lat="49.0459" lon="7.67086">
        <ele>358</ele>
        <time>2020-06-11T06:59:52.000Z</time>
      </trkpt>
      <trkpt lat="49.04592" lon="7.67082">
        <ele>355</ele>
        <time>2020-06-11T07:00:02.000Z</time>
      </trkpt>
      <trkpt lat="49.04593" lon="7.67081">
        <ele>354</ele>
        <time>2020-06-11T07:01:09.000Z</time>
      </trkpt>
      <trkpt lat="49.04592" lon="7.67079">
        <ele>354</ele>
        <time>2020-06-11T07:01:29.000Z</time>
      </trkpt>
      <trkpt lat="49.04586" lon="7.6707">
        <ele>354</ele>
        <time>2020-06-11T07:01:39.000Z</time>
      </trkpt>
      <trkpt lat="49.04581" lon="7.67065">
        <ele>343</ele>
        <time>2020-06-11T07:01:49.000Z</time>
      </trkpt>
      <trkpt lat="49.04581" lon="7.67065">
        <ele>343</ele>
        <time>2020-06-11T07:02:01.000Z</time>
      </trkpt>
      <trkpt lat="49.04582" lon="7.67064">
        <ele>342</ele>
        <time>2020-06-11T07:02:28.000Z</time>
      </trkpt>
      <trkpt lat="49.04584" lon="7.67067">
        <ele>353</ele>
        <time>2020-06-11T07:02:38.000Z</time>
      </trkpt>
      <trkpt lat="49.04586" lon="7.67067">
        <ele>353</ele>
        <time>2020-06-11T07:02:48.000Z</time>
      </trkpt>
      <trkpt lat="49.04582" lon="7.67067">
        <ele>344</ele>
        <time>2020-06-11T07:02:58.000Z</time>
      </trkpt>
      <trkpt lat="49.04579" lon="7.67063">
        <ele>342</ele>
        <time>2020-06-11T07:03:08.000Z</time>
      </trkpt>
      <trkpt lat="49.04577" lon="7.67064">
        <ele>342</ele>
        <time>2020-06-11T07:03:18.000Z</time>
      </trkpt>
      <trkpt lat="49.04578" lon="7.67066">
        <ele>343</ele>
        <time>2020-06-11T07:05:50.000Z</time>
      </trkpt>
      <trkpt lat="49.04582" lon="7.67067">
        <ele>344</ele>
        <time>2020-06-11T07:06:00.000Z</time>
      </trkpt>
      <trkpt lat="49.04585" lon="7.67069">
        <ele>353</ele>
        <time>2020-06-11T07:06:10.000Z</time>
      </trkpt>
      <trkpt lat="49.04587" lon="7.67069">
        <ele>354</ele>
        <time>2020-06-11T07:06:35.000Z</time>
      </trkpt>
      <trkpt lat="49.04588" lon="7.67069">
        <ele>353</ele>
        <time>2020-06-11T07:06:53.000Z</time>
      </trkpt>
      <trkpt lat="49.04589" lon="7.67069">
        <ele>353</ele>
        <time>2020-06-11T07:07:21.000Z</time>
      </trkpt>
      <trkpt lat="49.0459" lon="7.67068">
        <ele>353</ele>
        <time>2020-06-11T07:08:06.000Z</time>
      </trkpt>
      <trkpt lat="49.04597" lon="7.67067">
        <ele>353</ele>
        <time>2020-06-11T07:08:16.000Z</time>
      </trkpt>
      <trkpt lat="49.04602" lon="7.67071">
        <ele>353</ele>
        <time>2020-06-11T07:08:26.000Z</time>
      </trkpt>
      <trkpt lat="49.0461" lon="7.67082">
        <ele>354</ele>
        <time>2020-06-11T07:08:36.000Z</time>
      </trkpt>
      <trkpt lat="49.04615" lon="7.67095">
        <ele>363</ele>
        <time>2020-06-11T07:08:46.000Z</time>
      </trkpt>
      <trkpt lat="49.04618" lon="7.67104">
        <ele>364</ele>
        <time>2020-06-11T07:08:56.000Z</time>
      </trkpt>
      <trkpt lat="49.04618" lon="7.67105">
        <ele>364</ele>
        <time>2020-06-11T07:09:06.000Z</time>
      </trkpt>
      <trkpt lat="49.0462" lon="7.67106">
        <ele>364</ele>
        <time>2020-06-11T07:09:15.001Z</time>
      </trkpt>
      <trkpt lat="49.0462" lon="7.67108">
        <ele>364</ele>
        <time>2020-06-11T07:09:29.001Z</time>
      </trkpt>
      <trkpt lat="49.04621" lon="7.67108">
        <ele>364</ele>
        <time>2020-06-11T07:09:40.001Z</time>
      </trkpt>
      <trkpt lat="49.04628" lon="7.67103">
        <ele>365</ele>
        <time>2020-06-11T07:09:50.001Z</time>
      </trkpt>
      <trkpt lat="49.0464" lon="7.671">
        <ele>366</ele>
        <time>2020-06-11T07:10:00.000Z</time>
      </trkpt>
      <trkpt lat="49.04648" lon="7.67099">
        <ele>366</ele>
        <time>2020-06-11T07:10:09.001Z</time>
      </trkpt>
      <trkpt lat="49.04662" lon="7.671">
        <ele>367</ele>
        <time>2020-06-11T07:10:19.001Z</time>
      </trkpt>
      <trkpt lat="49.04677" lon="7.67104">
        <ele>372</ele>
        <time>2020-06-11T07:10:29.001Z</time>
      </trkpt>
      <trkpt lat="49.0469" lon="7.67107">
        <ele>372</ele>
        <time>2020-06-11T07:10:39.001Z</time>
      </trkpt>
      <trkpt lat="49.04707" lon="7.6711">
        <ele>373</ele>
        <time>2020-06-11T07:10:49.001Z</time>
      </trkpt>
      <trkpt lat="49.04726" lon="7.67114">
        <ele>372</ele>
        <time>2020-06-11T07:10:59.001Z</time>
      </trkpt>
      <trkpt lat="49.04743" lon="7.67122">
        <ele>373</ele>
        <time>2020-06-11T07:11:09.001Z</time>
      </trkpt>
      <trkpt lat="49.04754" lon="7.67135">
        <ele>366</ele>
        <time>2020-06-11T07:11:19.001Z</time>
      </trkpt>
      <trkpt lat="49.04762" lon="7.67151">
        <ele>371</ele>
        <time>2020-06-11T07:11:29.001Z</time>
      </trkpt>
      <trkpt lat="49.04769" lon="7.67168">
        <ele>382</ele>
        <time>2020-06-11T07:11:39.001Z</time>
      </trkpt>
      <trkpt lat="49.04775" lon="7.67184">
        <ele>381</ele>
        <time>2020-06-11T07:11:49.001Z</time>
      </trkpt>
      <trkpt lat="49.0478" lon="7.67201">
        <ele>381</ele>
        <time>2020-06-11T07:11:59.001Z</time>
      </trkpt>
      <trkpt lat="49.0479" lon="7.6722">
        <ele>381</ele>
        <time>2020-06-11T07:12:09.001Z</time>
      </trkpt>
      <trkpt lat="49.04801" lon="7.67235">
        <ele>380</ele>
        <time>2020-06-11T07:12:19.001Z</time>
      </trkpt>
      <trkpt lat="49.04812" lon="7.6725">
        <ele>378</ele>
        <time>2020-06-11T07:12:29.001Z</time>
      </trkpt>
      <trkpt lat="49.04819" lon="7.67264">
        <ele>384</ele>
        <time>2020-06-11T07:12:39.001Z</time>
      </trkpt>
      <trkpt lat="49.04827" lon="7.67278">
        <ele>387</ele>
        <time>2020-06-11T07:12:49.001Z</time>
      </trkpt>
      <trkpt lat="49.04836" lon="7.67293">
        <ele>372</ele>
        <time>2020-06-11T07:12:59.001Z</time>
      </trkpt>
      <trkpt lat="49.04841" lon="7.67312">
        <ele>376</ele>
        <time>2020-06-11T07:13:09.001Z</time>
      </trkpt>
      <trkpt lat="49.04846" lon="7.6733">
        <ele>381</ele>
        <time>2020-06-11T07:13:19.001Z</time>
      </trkpt>
      <trkpt lat="49.04851" lon="7.67348">
        <ele>386</ele>
        <time>2020-06-11T07:13:29.001Z</time>
      </trkpt>
      <trkpt lat="49.04854" lon="7.67362">
        <ele>387</ele>
        <time>2020-06-11T07:13:39.001Z</time>
      </trkpt>
      <trkpt lat="49.04857" lon="7.67378">
        <ele>388</ele>
        <time>2020-06-11T07:13:49.001Z</time>
      </trkpt>
      <trkpt lat="49.04862" lon="7.67398">
        <ele>390</ele>
        <time>2020-06-11T07:13:59.001Z</time>
      </trkpt>
      <trkpt lat="49.04869" lon="7.67418">
        <ele>397</ele>
        <time>2020-06-11T07:14:09.001Z</time>
      </trkpt>
      <trkpt lat="49.04878" lon="7.67436">
        <ele>396</ele>
        <time>2020-06-11T07:14:19.001Z</time>
      </trkpt>
      <trkpt lat="49.04886" lon="7.67452">
        <ele>395</ele>
        <time>2020-06-11T07:14:29.001Z</time>
      </trkpt>
      <trkpt lat="49.04892" lon="7.67468">
        <ele>396</ele>
        <time>2020-06-11T07:14:39.001Z</time>
      </trkpt>
      <trkpt lat="49.04901" lon="7.67482">
        <ele>396</ele>
        <time>2020-06-11T07:14:49.001Z</time>
      </trkpt>
      <trkpt lat="49.04909" lon="7.67495">
        <ele>396</ele>
        <time>2020-06-11T07:14:59.001Z</time>
      </trkpt>
      <trkpt lat="49.0492" lon="7.67508">
        <ele>394</ele>
        <time>2020-06-11T07:15:09.001Z</time>
      </trkpt>
      <trkpt lat="49.04927" lon="7.6752">
        <ele>393</ele>
        <time>2020-06-11T07:15:19.001Z</time>
      </trkpt>
      <trkpt lat="49.04926" lon="7.67521">
        <ele>393</ele>
        <time>2020-06-11T07:15:29.001Z</time>
      </trkpt>
      <trkpt lat="49.0493" lon="7.67519">
        <ele>393</ele>
        <time>2020-06-11T07:15:50.001Z</time>
      </trkpt>
      <trkpt lat="49.04917" lon="7.67522">
        <ele>394</ele>
        <time>2020-06-11T07:16:00.000Z</time>
      </trkpt>
      <trkpt lat="49.04905" lon="7.67531">
        <ele>399</ele>
        <time>2020-06-11T07:16:09.001Z</time>
      </trkpt>
      <trkpt lat="49.04893" lon="7.67531">
        <ele>399</ele>
        <time>2020-06-11T07:16:19.001Z</time>
      </trkpt>
      <trkpt lat="49.04883" lon="7.67525">
        <ele>399</ele>
        <time>2020-06-11T07:16:29.001Z</time>
      </trkpt>
      <trkpt lat="49.04879" lon="7.67524">
        <ele>399</ele>
        <time>2020-06-11T07:16:39.001Z</time>
      </trkpt>
      <trkpt lat="49.04877" lon="7.67523">
        <ele>399</ele>
        <time>2020-06-11T07:16:49.001Z</time>
      </trkpt>
      <trkpt lat="49.04877" lon="7.67524">
        <ele>399</ele>
        <time>2020-06-11T07:17:02.000Z</time>
      </trkpt>
      <trkpt lat="49.04878" lon="7.67528">
        <ele>399</ele>
        <time>2020-06-11T07:17:11.001Z</time>
      </trkpt>
      <trkpt lat="49.0488" lon="7.67542">
        <ele>399</ele>
        <time>2020-06-11T07:17:21.001Z</time>
      </trkpt>
      <trkpt lat="49.04883" lon="7.67556">
        <ele>399</ele>
        <time>2020-06-11T07:17:31.001Z</time>
      </trkpt>
      <trkpt lat="49.04883" lon="7.67563">
        <ele>400</ele>
        <time>2020-06-11T07:17:41.001Z</time>
      </trkpt>
      <trkpt lat="49.04883" lon="7.67567">
        <ele>400</ele>
        <time>2020-06-11T07:17:51.001Z</time>
      </trkpt>
      <trkpt lat="49.04886" lon="7.67574">
        <ele>400</ele>
        <time>2020-06-11T07:18:01.001Z</time>
      </trkpt>
      <trkpt lat="49.04885" lon="7.67577">
        <ele>400</ele>
        <time>2020-06-11T07:18:11.001Z</time>
      </trkpt>
      <trkpt lat="49.04884" lon="7.67576">
        <ele>400</ele>
        <time>2020-06-11T07:18:21.001Z</time>
      </trkpt>
      <trkpt lat="49.04886" lon="7.67573">
        <ele>400</ele>
        <time>2020-06-11T07:18:31.001Z</time>
      </trkpt>
      <trkpt lat="49.04891" lon="7.67573">
        <ele>401</ele>
        <time>2020-06-11T07:18:41.001Z</time>
      </trkpt>
      <trkpt lat="49.04907" lon="7.67584">
        <ele>403</ele>
        <time>2020-06-11T07:18:51.001Z</time>
      </trkpt>
      <trkpt lat="49.04915" lon="7.67591">
        <ele>404</ele>
        <time>2020-06-11T07:19:01.001Z</time>
      </trkpt>
      <trkpt lat="49.04918" lon="7.67596">
        <ele>406</ele>
        <time>2020-06-11T07:19:11.001Z</time>
      </trkpt>
      <trkpt lat="49.04924" lon="7.67607">
        <ele>404</ele>
        <time>2020-06-11T07:19:21.001Z</time>
      </trkpt>
      <trkpt lat="49.04938" lon="7.67633">
        <ele>404</ele>
        <time>2020-06-11T07:19:31.001Z</time>
      </trkpt>
      <trkpt lat="49.04941" lon="7.67637">
        <ele>404</ele>
        <time>2020-06-11T07:19:41.001Z</time>
      </trkpt>
      <trkpt lat="49.04945" lon="7.67648">
        <ele>404</ele>
        <time>2020-06-11T07:19:51.001Z</time>
      </trkpt>
      <trkpt lat="49.04953" lon="7.67665">
        <ele>404</ele>
        <time>2020-06-11T07:20:01.001Z</time>
      </trkpt>
      <trkpt lat="49.04957" lon="7.6767">
        <ele>405</ele>
        <time>2020-06-11T07:20:11.001Z</time>
      </trkpt>
      <trkpt lat="49.04964" lon="7.67675">
        <ele>405</ele>
        <time>2020-06-11T07:20:21.001Z</time>
      </trkpt>
      <trkpt lat="49.04975" lon="7.67678">
        <ele>405</ele>
        <time>2020-06-11T07:20:31.001Z</time>
      </trkpt>
      <trkpt lat="49.04984" lon="7.6768">
        <ele>405</ele>
        <time>2020-06-11T07:20:41.001Z</time>
      </trkpt>
      <trkpt lat="49.04991" lon="7.67681">
        <ele>405</ele>
        <time>2020-06-11T07:20:51.001Z</time>
      </trkpt>
      <trkpt lat="49.05003" lon="7.6769">
        <ele>402</ele>
        <time>2020-06-11T07:21:01.001Z</time>
      </trkpt>
      <trkpt lat="49.05016" lon="7.67702">
        <ele>401</ele>
        <time>2020-06-11T07:21:11.001Z</time>
      </trkpt>
      <trkpt lat="49.05022" lon="7.67709">
        <ele>401</ele>
        <time>2020-06-11T07:21:21.001Z</time>
      </trkpt>
      <trkpt lat="49.05024" lon="7.6771">
        <ele>401</ele>
        <time>2020-06-11T07:21:31.001Z</time>
      </trkpt>
      <trkpt lat="49.05025" lon="7.67712">
        <ele>401</ele>
        <time>2020-06-11T07:22:04.001Z</time>
      </trkpt>
      <trkpt lat="49.05037" lon="7.67724">
        <ele>401</ele>
        <time>2020-06-11T07:22:14.001Z</time>
      </trkpt>
      <trkpt lat="49.05046" lon="7.67734">
        <ele>400</ele>
        <time>2020-06-11T07:22:24.001Z</time>
      </trkpt>
      <trkpt lat="49.05054" lon="7.6774">
        <ele>400</ele>
        <time>2020-06-11T07:22:34.001Z</time>
      </trkpt>
      <trkpt lat="49.05064" lon="7.67748">
        <ele>400</ele>
        <time>2020-06-11T07:22:44.001Z</time>
      </trkpt>
      <trkpt lat="49.05078" lon="7.67759">
        <ele>400</ele>
        <time>2020-06-11T07:22:54.001Z</time>
      </trkpt>
      <trkpt lat="49.05092" lon="7.67778">
        <ele>398</ele>
        <time>2020-06-11T07:23:04.001Z</time>
      </trkpt>
      <trkpt lat="49.05102" lon="7.67793">
        <ele>398</ele>
        <time>2020-06-11T07:23:14.001Z</time>
      </trkpt>
      <trkpt lat="49.05113" lon="7.67805">
        <ele>398</ele>
        <time>2020-06-11T07:23:24.001Z</time>
      </trkpt>
      <trkpt lat="49.05123" lon="7.67812">
        <ele>398</ele>
        <time>2020-06-11T07:23:34.001Z</time>
      </trkpt>
      <trkpt lat="49.05131" lon="7.67818">
        <ele>399</ele>
        <time>2020-06-11T07:23:44.001Z</time>
      </trkpt>
      <trkpt lat="49.05139" lon="7.67821">
        <ele>400</ele>
        <time>2020-06-11T07:23:54.001Z</time>
      </trkpt>
      <trkpt lat="49.05149" lon="7.67826">
        <ele>401</ele>
        <time>2020-06-11T07:24:04.001Z</time>
      </trkpt>
      <trkpt lat="49.05162" lon="7.67833">
        <ele>404</ele>
        <time>2020-06-11T07:24:14.001Z</time>
      </trkpt>
      <trkpt lat="49.05173" lon="7.67839">
        <ele>408</ele>
        <time>2020-06-11T07:24:24.001Z</time>
      </trkpt>
      <trkpt lat="49.05184" lon="7.67846">
        <ele>410</ele>
        <time>2020-06-11T07:24:34.001Z</time>
      </trkpt>
      <trkpt lat="49.05196" lon="7.67852">
        <ele>411</ele>
        <time>2020-06-11T07:24:44.001Z</time>
      </trkpt>
      <trkpt lat="49.05208" lon="7.67852">
        <ele>412</ele>
        <time>2020-06-11T07:24:54.001Z</time>
      </trkpt>
      <trkpt lat="49.05219" lon="7.67853">
        <ele>412</ele>
        <time>2020-06-11T07:25:04.001Z</time>
      </trkpt>
      <trkpt lat="49.05229" lon="7.67855">
        <ele>412</ele>
        <time>2020-06-11T07:25:14.001Z</time>
      </trkpt>
      <trkpt lat="49.05242" lon="7.67859">
        <ele>412</ele>
        <time>2020-06-11T07:25:24.001Z</time>
      </trkpt>
      <trkpt lat="49.05254" lon="7.67861">
        <ele>414</ele>
        <time>2020-06-11T07:25:34.001Z</time>
      </trkpt>
      <trkpt lat="49.05264" lon="7.6786">
        <ele>415</ele>
        <time>2020-06-11T07:25:44.001Z</time>
      </trkpt>
      <trkpt lat="49.05276" lon="7.67853">
        <ele>414</ele>
        <time>2020-06-11T07:25:54.001Z</time>
      </trkpt>
      <trkpt lat="49.05285" lon="7.67848">
        <ele>414</ele>
        <time>2020-06-11T07:26:04.001Z</time>
      </trkpt>
      <trkpt lat="49.05294" lon="7.67848">
        <ele>414</ele>
        <time>2020-06-11T07:26:14.001Z</time>
      </trkpt>
      <trkpt lat="49.05305" lon="7.67857">
        <ele>415</ele>
        <time>2020-06-11T07:26:24.001Z</time>
      </trkpt>
      <trkpt lat="49.05323" lon="7.67874">
        <ele>417</ele>
        <time>2020-06-11T07:26:34.001Z</time>
      </trkpt>
      <trkpt lat="49.05336" lon="7.67889">
        <ele>410</ele>
        <time>2020-06-11T07:26:44.001Z</time>
      </trkpt>
      <trkpt lat="49.05344" lon="7.67902">
        <ele>413</ele>
        <time>2020-06-11T07:26:54.001Z</time>
      </trkpt>
      <trkpt lat="49.05351" lon="7.67911">
        <ele>413</ele>
        <time>2020-06-11T07:27:04.001Z</time>
      </trkpt>
      <trkpt lat="49.05356" lon="7.6792">
        <ele>419</ele>
        <time>2020-06-11T07:27:14.001Z</time>
      </trkpt>
      <trkpt lat="49.0536" lon="7.67935">
        <ele>418</ele>
        <time>2020-06-11T07:27:24.001Z</time>
      </trkpt>
      <trkpt lat="49.05364" lon="7.67953">
        <ele>418</ele>
        <time>2020-06-11T07:27:34.001Z</time>
      </trkpt>
      <trkpt lat="49.05369" lon="7.67973">
        <ele>419</ele>
        <time>2020-06-11T07:27:44.001Z</time>
      </trkpt>
      <trkpt lat="49.05373" lon="7.67991">
        <ele>419</ele>
        <time>2020-06-11T07:27:54.001Z</time>
      </trkpt>
      <trkpt lat="49.05377" lon="7.68009">
        <ele>427</ele>
        <time>2020-06-11T07:28:04.001Z</time>
      </trkpt>
      <trkpt lat="49.05382" lon="7.68025">
        <ele>427</ele>
        <time>2020-06-11T07:28:14.001Z</time>
      </trkpt>
      <trkpt lat="49.05388" lon="7.6804">
        <ele>428</ele>
        <time>2020-06-11T07:28:24.001Z</time>
      </trkpt>
      <trkpt lat="49.05393" lon="7.68056">
        <ele>429</ele>
        <time>2020-06-11T07:28:34.001Z</time>
      </trkpt>
      <trkpt lat="49.05399" lon="7.68071">
        <ele>428</ele>
        <time>2020-06-11T07:28:44.001Z</time>
      </trkpt>
      <trkpt lat="49.05406" lon="7.6809">
        <ele>432</ele>
        <time>2020-06-11T07:28:54.001Z</time>
      </trkpt>
      <trkpt lat="49.05413" lon="7.68108">
        <ele>435</ele>
        <time>2020-06-11T07:29:04.001Z</time>
      </trkpt>
      <trkpt lat="49.05421" lon="7.68124">
        <ele>422</ele>
        <time>2020-06-11T07:29:14.001Z</time>
      </trkpt>
      <trkpt lat="49.05426" lon="7.6814">
        <ele>425</ele>
        <time>2020-06-11T07:29:24.001Z</time>
      </trkpt>
      <trkpt lat="49.05431" lon="7.68155">
        <ele>428</ele>
        <time>2020-06-11T07:29:34.001Z</time>
      </trkpt>
      <trkpt lat="49.05433" lon="7.68173">
        <ele>435</ele>
        <time>2020-06-11T07:29:44.001Z</time>
      </trkpt>
      <trkpt lat="49.05437" lon="7.6819">
        <ele>434</ele>
        <time>2020-06-11T07:29:54.001Z</time>
      </trkpt>
      <trkpt lat="49.05441" lon="7.68208">
        <ele>434</ele>
        <time>2020-06-11T07:30:04.001Z</time>
      </trkpt>
      <trkpt lat="49.05447" lon="7.68226">
        <ele>435</ele>
        <time>2020-06-11T07:30:14.001Z</time>
      </trkpt>
      <trkpt lat="49.05451" lon="7.68243">
        <ele>436</ele>
        <time>2020-06-11T07:30:24.001Z</time>
      </trkpt>
      <trkpt lat="49.05455" lon="7.68243">
        <ele>435</ele>
        <time>2020-06-11T07:30:44.001Z</time>
      </trkpt>
      <trkpt lat="49.05462" lon="7.68246">
        <ele>433</ele>
        <time>2020-06-11T07:30:54.001Z</time>
      </trkpt>
      <trkpt lat="49.05471" lon="7.68258">
        <ele>440</ele>
        <time>2020-06-11T07:31:04.001Z</time>
      </trkpt>
      <trkpt lat="49.05476" lon="7.68271">
        <ele>440</ele>
        <time>2020-06-11T07:31:14.001Z</time>
      </trkpt>
      <trkpt lat="49.05482" lon="7.68292">
        <ele>443</ele>
        <time>2020-06-11T07:31:24.001Z</time>
      </trkpt>
      <trkpt lat="49.05487" lon="7.68308">
        <ele>444</ele>
        <time>2020-06-11T07:31:34.001Z</time>
      </trkpt>
      <trkpt lat="49.05494" lon="7.68325">
        <ele>444</ele>
        <time>2020-06-11T07:31:44.001Z</time>
      </trkpt>
      <trkpt lat="49.05501" lon="7.68343">
        <ele>441</ele>
        <time>2020-06-11T07:31:54.001Z</time>
      </trkpt>
      <trkpt lat="49.05508" lon="7.6836">
        <ele>439</ele>
        <time>2020-06-11T07:32:04.001Z</time>
      </trkpt>
      <trkpt lat="49.05517" lon="7.68375">
        <ele>439</ele>
        <time>2020-06-11T07:32:14.001Z</time>
      </trkpt>
      <trkpt lat="49.05524" lon="7.6839">
        <ele>440</ele>
        <time>2020-06-11T07:32:24.001Z</time>
      </trkpt>
      <trkpt lat="49.05531" lon="7.68407">
        <ele>440</ele>
        <time>2020-06-11T07:32:34.001Z</time>
      </trkpt>
      <trkpt lat="49.05537" lon="7.68422">
        <ele>447</ele>
        <time>2020-06-11T07:32:44.001Z</time>
      </trkpt>
      <trkpt lat="49.05546" lon="7.68439">
        <ele>446</ele>
        <time>2020-06-11T07:32:54.001Z</time>
      </trkpt>
      <trkpt lat="49.05557" lon="7.68456">
        <ele>446</ele>
        <time>2020-06-11T07:33:04.001Z</time>
      </trkpt>
      <trkpt lat="49.0557" lon="7.68475">
        <ele>446</ele>
        <time>2020-06-11T07:33:14.001Z</time>
      </trkpt>
      <trkpt lat="49.05578" lon="7.68493">
        <ele>445</ele>
        <time>2020-06-11T07:33:24.001Z</time>
      </trkpt>
      <trkpt lat="49.05584" lon="7.6851">
        <ele>443</ele>
        <time>2020-06-11T07:33:34.001Z</time>
      </trkpt>
      <trkpt lat="49.05591" lon="7.68525">
        <ele>442</ele>
        <time>2020-06-11T07:33:44.001Z</time>
      </trkpt>
      <trkpt lat="49.056" lon="7.68542">
        <ele>443</ele>
        <time>2020-06-11T07:33:54.001Z</time>
      </trkpt>
      <trkpt lat="49.05609" lon="7.68557">
        <ele>444</ele>
        <time>2020-06-11T07:34:04.001Z</time>
      </trkpt>
      <trkpt lat="49.05619" lon="7.6857">
        <ele>443</ele>
        <time>2020-06-11T07:34:14.001Z</time>
      </trkpt>
      <trkpt lat="49.0563" lon="7.68582">
        <ele>442</ele>
        <time>2020-06-11T07:34:24.001Z</time>
      </trkpt>
      <trkpt lat="49.05639" lon="7.68592">
        <ele>447</ele>
        <time>2020-06-11T07:34:34.001Z</time>
      </trkpt>
      <trkpt lat="49.0565" lon="7.68602">
        <ele>446</ele>
        <time>2020-06-11T07:34:44.001Z</time>
      </trkpt>
      <trkpt lat="49.0566" lon="7.68613">
        <ele>447</ele>
        <time>2020-06-11T07:34:54.001Z</time>
      </trkpt>
      <trkpt lat="49.05668" lon="7.68623">
        <ele>435</ele>
        <time>2020-06-11T07:35:04.001Z</time>
      </trkpt>
      <trkpt lat="49.0568" lon="7.68636">
        <ele>437</ele>
        <time>2020-06-11T07:35:14.001Z</time>
      </trkpt>
      <trkpt lat="49.0569" lon="7.68649">
        <ele>437</ele>
        <time>2020-06-11T07:35:24.001Z</time>
      </trkpt>
      <trkpt lat="49.057" lon="7.6866">
        <ele>436</ele>
        <time>2020-06-11T07:35:34.001Z</time>
      </trkpt>
      <trkpt lat="49.05712" lon="7.68677">
        <ele>442</ele>
        <time>2020-06-11T07:35:44.001Z</time>
      </trkpt>
      <trkpt lat="49.05723" lon="7.6869">
        <ele>441</ele>
        <time>2020-06-11T07:35:54.001Z</time>
      </trkpt>
      <trkpt lat="49.05731" lon="7.68702">
        <ele>441</ele>
        <time>2020-06-11T07:36:04.001Z</time>
      </trkpt>
      <trkpt lat="49.05743" lon="7.6872">
        <ele>442</ele>
        <time>2020-06-11T07:36:14.001Z</time>
      </trkpt>
      <trkpt lat="49.05752" lon="7.68736">
        <ele>430</ele>
        <time>2020-06-11T07:36:24.001Z</time>
      </trkpt>
      <trkpt lat="49.05757" lon="7.68751">
        <ele>438</ele>
        <time>2020-06-11T07:36:34.001Z</time>
      </trkpt>
      <trkpt lat="49.05762" lon="7.68771">
        <ele>433</ele>
        <time>2020-06-11T07:36:44.001Z</time>
      </trkpt>
      <trkpt lat="49.05772" lon="7.68794">
        <ele>432</ele>
        <time>2020-06-11T07:36:54.001Z</time>
      </trkpt>
      <trkpt lat="49.0578" lon="7.68807">
        <ele>431</ele>
        <time>2020-06-11T07:37:04.001Z</time>
      </trkpt>
      <trkpt lat="49.05789" lon="7.68826">
        <ele>430</ele>
        <time>2020-06-11T07:37:14.001Z</time>
      </trkpt>
      <trkpt lat="49.05795" lon="7.68843">
        <ele>432</ele>
        <time>2020-06-11T07:37:24.001Z</time>
      </trkpt>
      <trkpt lat="49.05801" lon="7.68862">
        <ele>431</ele>
        <time>2020-06-11T07:37:34.001Z</time>
      </trkpt>
      <trkpt lat="49.05806" lon="7.68885">
        <ele>431</ele>
        <time>2020-06-11T07:37:44.001Z</time>
      </trkpt>
      <trkpt lat="49.05807" lon="7.68906">
        <ele>429</ele>
        <time>2020-06-11T07:37:54.001Z</time>
      </trkpt>
      <trkpt lat="49.05806" lon="7.68929">
        <ele>427</ele>
        <time>2020-06-11T07:38:04.001Z</time>
      </trkpt>
      <trkpt lat="49.05801" lon="7.68949">
        <ele>427</ele>
        <time>2020-06-11T07:38:14.001Z</time>
      </trkpt>
      <trkpt lat="49.05793" lon="7.68968">
        <ele>428</ele>
        <time>2020-06-11T07:38:24.001Z</time>
      </trkpt>
      <trkpt lat="49.05785" lon="7.68988">
        <ele>428</ele>
        <time>2020-06-11T07:38:34.001Z</time>
      </trkpt>
      <trkpt lat="49.05778" lon="7.69004">
        <ele>421</ele>
        <time>2020-06-11T07:38:44.001Z</time>
      </trkpt>
      <trkpt lat="49.05772" lon="7.6902">
        <ele>420</ele>
        <time>2020-06-11T07:38:54.001Z</time>
      </trkpt>
      <trkpt lat="49.05767" lon="7.69037">
        <ele>418</ele>
        <time>2020-06-11T07:39:04.001Z</time>
      </trkpt>
      <trkpt lat="49.05761" lon="7.69055">
        <ele>417</ele>
        <time>2020-06-11T07:39:14.001Z</time>
      </trkpt>
      <trkpt lat="49.05754" lon="7.69073">
        <ele>417</ele>
        <time>2020-06-11T07:39:24.001Z</time>
      </trkpt>
      <trkpt lat="49.05746" lon="7.69087">
        <ele>415</ele>
        <time>2020-06-11T07:39:34.001Z</time>
      </trkpt>
      <trkpt lat="49.05737" lon="7.69101">
        <ele>409</ele>
        <time>2020-06-11T07:39:44.001Z</time>
      </trkpt>
      <trkpt lat="49.05739" lon="7.69118">
        <ele>406</ele>
        <time>2020-06-11T07:39:54.001Z</time>
      </trkpt>
      <trkpt lat="49.05743" lon="7.69132">
        <ele>404</ele>
        <time>2020-06-11T07:40:04.001Z</time>
      </trkpt>
      <trkpt lat="49.05747" lon="7.69141">
        <ele>404</ele>
        <time>2020-06-11T07:40:14.001Z</time>
      </trkpt>
      <trkpt lat="49.05749" lon="7.69156">
        <ele>404</ele>
        <time>2020-06-11T07:40:24.001Z</time>
      </trkpt>
      <trkpt lat="49.05751" lon="7.69168">
        <ele>404</ele>
        <time>2020-06-11T07:40:34.001Z</time>
      </trkpt>
      <trkpt lat="49.05753" lon="7.69184">
        <ele>393</ele>
        <time>2020-06-11T07:40:44.001Z</time>
      </trkpt>
      <trkpt lat="49.05755" lon="7.692">
        <ele>388</ele>
        <time>2020-06-11T07:40:54.001Z</time>
      </trkpt>
      <trkpt lat="49.05757" lon="7.69213">
        <ele>385</ele>
        <time>2020-06-11T07:41:04.001Z</time>
      </trkpt>
      <trkpt lat="49.0576" lon="7.69226">
        <ele>384</ele>
        <time>2020-06-11T07:41:14.001Z</time>
      </trkpt>
      <trkpt lat="49.05765" lon="7.6924">
        <ele>383</ele>
        <time>2020-06-11T07:41:24.001Z</time>
      </trkpt>
      <trkpt lat="49.05766" lon="7.69256">
        <ele>376</ele>
        <time>2020-06-11T07:41:34.001Z</time>
      </trkpt>
      <trkpt lat="49.05772" lon="7.69268">
        <ele>373</ele>
        <time>2020-06-11T07:41:44.001Z</time>
      </trkpt>
      <trkpt lat="49.05772" lon="7.69276">
        <ele>372</ele>
        <time>2020-06-11T07:41:54.001Z</time>
      </trkpt>
      <trkpt lat="49.05769" lon="7.69271">
        <ele>373</ele>
        <time>2020-06-11T07:42:04.001Z</time>
      </trkpt>
      <trkpt lat="49.0577" lon="7.69273">
        <ele>373</ele>
        <time>2020-06-11T07:42:14.001Z</time>
      </trkpt>
      <trkpt lat="49.05769" lon="7.69276">
        <ele>373</ele>
        <time>2020-06-11T07:42:24.001Z</time>
      </trkpt>
      <trkpt lat="49.05768" lon="7.69279">
        <ele>372</ele>
        <time>2020-06-11T07:42:34.001Z</time>
      </trkpt>
      <trkpt lat="49.0577" lon="7.69283">
        <ele>372</ele>
        <time>2020-06-11T07:42:44.001Z</time>
      </trkpt>
      <trkpt lat="49.05772" lon="7.69284">
        <ele>371</ele>
        <time>2020-06-11T07:43:13.001Z</time>
      </trkpt>
      <trkpt lat="49.05773" lon="7.69285">
        <ele>371</ele>
        <time>2020-06-11T07:44:14.001Z</time>
      </trkpt>
      <trkpt lat="49.05783" lon="7.693">
        <ele>369</ele>
        <time>2020-06-11T07:44:24.001Z</time>
      </trkpt>
      <trkpt lat="49.05787" lon="7.6932">
        <ele>368</ele>
        <time>2020-06-11T07:44:34.001Z</time>
      </trkpt>
      <trkpt lat="49.05786" lon="7.69339">
        <ele>363</ele>
        <time>2020-06-11T07:44:44.001Z</time>
      </trkpt>
      <trkpt lat="49.05787" lon="7.69353">
        <ele>363</ele>
        <time>2020-06-11T07:44:54.001Z</time>
      </trkpt>
      <trkpt lat="49.05789" lon="7.69357">
        <ele>362</ele>
        <time>2020-06-11T07:45:04.001Z</time>
      </trkpt>
      <trkpt lat="49.05794" lon="7.69369">
        <ele>362</ele>
        <time>2020-06-11T07:45:14.001Z</time>
      </trkpt>
      <trkpt lat="49.05794" lon="7.69387">
        <ele>361</ele>
        <time>2020-06-11T07:45:24.001Z</time>
      </trkpt>
      <trkpt lat="49.05798" lon="7.69409">
        <ele>361</ele>
        <time>2020-06-11T07:45:34.001Z</time>
      </trkpt>
      <trkpt lat="49.05803" lon="7.69429">
        <ele>358</ele>
        <time>2020-06-11T07:45:44.001Z</time>
      </trkpt>
      <trkpt lat="49.05804" lon="7.69445">
        <ele>357</ele>
        <time>2020-06-11T07:45:54.001Z</time>
      </trkpt>
      <trkpt lat="49.05802" lon="7.69463">
        <ele>357</ele>
        <time>2020-06-11T07:46:04.001Z</time>
      </trkpt>
      <trkpt lat="49.05801" lon="7.69482">
        <ele>357</ele>
        <time>2020-06-11T07:46:14.001Z</time>
      </trkpt>
      <trkpt lat="49.058" lon="7.69502">
        <ele>356</ele>
        <time>2020-06-11T07:46:24.001Z</time>
      </trkpt>
      <trkpt lat="49.05798" lon="7.69515">
        <ele>356</ele>
        <time>2020-06-11T07:46:34.001Z</time>
      </trkpt>
      <trkpt lat="49.05796" lon="7.69529">
        <ele>357</ele>
        <time>2020-06-11T07:46:44.001Z</time>
      </trkpt>
      <trkpt lat="49.05795" lon="7.69547">
        <ele>357</ele>
        <time>2020-06-11T07:46:54.001Z</time>
      </trkpt>
      <trkpt lat="49.05792" lon="7.69555">
        <ele>357</ele>
        <time>2020-06-11T07:47:04.001Z</time>
      </trkpt>
      <trkpt lat="49.05791" lon="7.69569">
        <ele>358</ele>
        <time>2020-06-11T07:47:14.001Z</time>
      </trkpt>
      <trkpt lat="49.05793" lon="7.69586">
        <ele>362</ele>
        <time>2020-06-11T07:47:24.001Z</time>
      </trkpt>
      <trkpt lat="49.05795" lon="7.69597">
        <ele>362</ele>
        <time>2020-06-11T07:47:34.001Z</time>
      </trkpt>
      <trkpt lat="49.05797" lon="7.69596">
        <ele>361</ele>
        <time>2020-06-11T07:47:44.001Z</time>
      </trkpt>
      <trkpt lat="49.05795" lon="7.69597">
        <ele>362</ele>
        <time>2020-06-11T07:47:54.001Z</time>
      </trkpt>
      <trkpt lat="49.05793" lon="7.69597">
        <ele>362</ele>
        <time>2020-06-11T07:48:04.001Z</time>
      </trkpt>
      <trkpt lat="49.0579" lon="7.69597">
        <ele>362</ele>
        <time>2020-06-11T07:48:25.001Z</time>
      </trkpt>
      <trkpt lat="49.05789" lon="7.69598">
        <ele>363</ele>
        <time>2020-06-11T07:48:53.001Z</time>
      </trkpt>
      <trkpt lat="49.05787" lon="7.69611">
        <ele>363</ele>
        <time>2020-06-11T07:49:03.001Z</time>
      </trkpt>
      <trkpt lat="49.05781" lon="7.6962">
        <ele>365</ele>
        <time>2020-06-11T07:49:13.001Z</time>
      </trkpt>
      <trkpt lat="49.05777" lon="7.69626">
        <ele>366</ele>
        <time>2020-06-11T07:49:23.001Z</time>
      </trkpt>
      <trkpt lat="49.05775" lon="7.69627">
        <ele>366</ele>
        <time>2020-06-11T07:49:33.001Z</time>
      </trkpt>
      <trkpt lat="49.05773" lon="7.69628">
        <ele>367</ele>
        <time>2020-06-11T07:49:44.001Z</time>
      </trkpt>
      <trkpt lat="49.05771" lon="7.69628">
        <ele>367</ele>
        <time>2020-06-11T07:49:54.001Z</time>
      </trkpt>
      <trkpt lat="49.05771" lon="7.69626">
        <ele>367</ele>
        <time>2020-06-11T07:50:23.001Z</time>
      </trkpt>
      <trkpt lat="49.0577" lon="7.69627">
        <ele>367</ele>
        <time>2020-06-11T07:50:36.001Z</time>
      </trkpt>
      <trkpt lat="49.05757" lon="7.69642">
        <ele>372</ele>
        <time>2020-06-11T07:50:46.001Z</time>
      </trkpt>
      <trkpt lat="49.05752" lon="7.69646">
        <ele>374</ele>
        <time>2020-06-11T07:50:56.001Z</time>
      </trkpt>
      <trkpt lat="49.05753" lon="7.69645">
        <ele>373</ele>
        <time>2020-06-11T07:51:10.001Z</time>
      </trkpt>
      <trkpt lat="49.0576" lon="7.69652">
        <ele>374</ele>
        <time>2020-06-11T07:51:20.001Z</time>
      </trkpt>
      <trkpt lat="49.05762" lon="7.69658">
        <ele>376</ele>
        <time>2020-06-11T07:51:30.001Z</time>
      </trkpt>
      <trkpt lat="49.05765" lon="7.69671">
        <ele>381</ele>
        <time>2020-06-11T07:51:40.001Z</time>
      </trkpt>
      <trkpt lat="49.05764" lon="7.69678">
        <ele>381</ele>
        <time>2020-06-11T07:51:50.001Z</time>
      </trkpt>
      <trkpt lat="49.05746" lon="7.69693">
        <ele>401</ele>
        <time>2020-06-11T07:52:00.000Z</time>
      </trkpt>
      <trkpt lat="49.05733" lon="7.697">
        <ele>404</ele>
        <time>2020-06-11T07:52:09.001Z</time>
      </trkpt>
      <trkpt lat="49.05728" lon="7.69697">
        <ele>405</ele>
        <time>2020-06-11T07:52:19.001Z</time>
      </trkpt>
      <trkpt lat="49.05726" lon="7.69694">
        <ele>404</ele>
        <time>2020-06-11T07:52:29.001Z</time>
      </trkpt>
      <trkpt lat="49.05724" lon="7.6969">
        <ele>404</ele>
        <time>2020-06-11T07:52:39.001Z</time>
      </trkpt>
      <trkpt lat="49.05723" lon="7.69688">
        <ele>404</ele>
        <time>2020-06-11T07:52:49.001Z</time>
      </trkpt>
      <trkpt lat="49.05723" lon="7.69687">
        <ele>404</ele>
        <time>2020-06-11T07:53:02.000Z</time>
      </trkpt>
      <trkpt lat="49.05724" lon="7.69688">
        <ele>404</ele>
        <time>2020-06-11T07:53:15.001Z</time>
      </trkpt>
      <trkpt lat="49.05726" lon="7.69695">
        <ele>405</ele>
        <time>2020-06-11T07:53:25.001Z</time>
      </trkpt>
      <trkpt lat="49.05726" lon="7.69702">
        <ele>406</ele>
        <time>2020-06-11T07:53:35.001Z</time>
      </trkpt>
      <trkpt lat="49.05727" lon="7.69709">
        <ele>407</ele>
        <time>2020-06-11T07:53:45.001Z</time>
      </trkpt>
      <trkpt lat="49.05727" lon="7.69712">
        <ele>407</ele>
        <time>2020-06-11T07:53:55.001Z</time>
      </trkpt>
      <trkpt lat="49.05711" lon="7.69714">
        <ele>410</ele>
        <time>2020-06-11T07:54:05.001Z</time>
      </trkpt>
      <trkpt lat="49.05702" lon="7.69714">
        <ele>412</ele>
        <time>2020-06-11T07:54:15.001Z</time>
      </trkpt>
      <trkpt lat="49.05695" lon="7.69709">
        <ele>412</ele>
        <time>2020-06-11T07:54:25.001Z</time>
      </trkpt>
      <trkpt lat="49.05691" lon="7.69702">
        <ele>412</ele>
        <time>2020-06-11T07:54:35.001Z</time>
      </trkpt>
      <trkpt lat="49.05689" lon="7.697">
        <ele>411</ele>
        <time>2020-06-11T07:54:45.001Z</time>
      </trkpt>
      <trkpt lat="49.05688" lon="7.69699">
        <ele>411</ele>
        <time>2020-06-11T07:55:15.001Z</time>
      </trkpt>
      <trkpt lat="49.05688" lon="7.697">
        <ele>412</ele>
        <time>2020-06-11T07:55:27.001Z</time>
      </trkpt>
      <trkpt lat="49.0569" lon="7.69706">
        <ele>412</ele>
        <time>2020-06-11T07:55:37.001Z</time>
      </trkpt>
      <trkpt lat="49.05693" lon="7.6971">
        <ele>413</ele>
        <time>2020-06-11T07:55:47.001Z</time>
      </trkpt>
      <trkpt lat="49.05698" lon="7.69719">
        <ele>413</ele>
        <time>2020-06-11T07:55:57.001Z</time>
      </trkpt>
      <trkpt lat="49.05701" lon="7.69729">
        <ele>414</ele>
        <time>2020-06-11T07:56:07.001Z</time>
      </trkpt>
      <trkpt lat="49.05702" lon="7.69737">
        <ele>415</ele>
        <time>2020-06-11T07:56:17.001Z</time>
      </trkpt>
      <trkpt lat="49.05699" lon="7.69738">
        <ele>416</ele>
        <time>2020-06-11T07:56:27.001Z</time>
      </trkpt>
      <trkpt lat="49.05689" lon="7.69739">
        <ele>420</ele>
        <time>2020-06-11T07:56:37.001Z</time>
      </trkpt>
      <trkpt lat="49.05676" lon="7.69742">
        <ele>427</ele>
        <time>2020-06-11T07:56:47.001Z</time>
      </trkpt>
      <trkpt lat="49.05669" lon="7.69741">
        <ele>429</ele>
        <time>2020-06-11T07:56:57.001Z</time>
      </trkpt>
      <trkpt lat="49.05667" lon="7.69739">
        <ele>428</ele>
        <time>2020-06-11T07:57:07.001Z</time>
      </trkpt>
      <trkpt lat="49.05668" lon="7.69739">
        <ele>428</ele>
        <time>2020-06-11T07:58:19.001Z</time>
      </trkpt>
      <trkpt lat="49.05671" lon="7.69741">
        <ele>429</ele>
        <time>2020-06-11T07:58:29.001Z</time>
      </trkpt>
      <trkpt lat="49.05674" lon="7.69745">
        <ele>429</ele>
        <time>2020-06-11T07:58:39.001Z</time>
      </trkpt>
      <trkpt lat="49.05679" lon="7.69753">
        <ele>435</ele>
        <time>2020-06-11T07:58:49.001Z</time>
      </trkpt>
      <trkpt lat="49.05684" lon="7.6977">
        <ele>434</ele>
        <time>2020-06-11T07:58:59.001Z</time>
      </trkpt>
      <trkpt lat="49.05684" lon="7.69779">
        <ele>435</ele>
        <time>2020-06-11T07:59:09.001Z</time>
      </trkpt>
      <trkpt lat="49.05679" lon="7.69786">
        <ele>436</ele>
        <time>2020-06-11T07:59:19.001Z</time>
      </trkpt>
      <trkpt lat="49.05664" lon="7.69794">
        <ele>452</ele>
        <time>2020-06-11T07:59:29.001Z</time>
      </trkpt>
      <trkpt lat="49.05655" lon="7.69794">
        <ele>452</ele>
        <time>2020-06-11T07:59:39.001Z</time>
      </trkpt>
      <trkpt lat="49.0565" lon="7.69791">
        <ele>452</ele>
        <time>2020-06-11T07:59:48.002Z</time>
      </trkpt>
      <trkpt lat="49.05648" lon="7.69788">
        <ele>451</ele>
        <time>2020-06-11T07:59:58.001Z</time>
      </trkpt>
      <trkpt lat="49.05642" lon="7.69783">
        <ele>451</ele>
        <time>2020-06-11T08:00:08.001Z</time>
      </trkpt>
      <trkpt lat="49.0564" lon="7.6978">
        <ele>451</ele>
        <time>2020-06-11T08:00:18.001Z</time>
      </trkpt>
      <trkpt lat="49.05641" lon="7.69777">
        <ele>450</ele>
        <time>2020-06-11T08:00:28.001Z</time>
      </trkpt>
      <trkpt lat="49.05643" lon="7.69776">
        <ele>450</ele>
        <time>2020-06-11T08:00:38.001Z</time>
      </trkpt>
      <trkpt lat="49.05645" lon="7.69777">
        <ele>450</ele>
        <time>2020-06-11T08:00:48.001Z</time>
      </trkpt>
      <trkpt lat="49.05647" lon="7.69783">
        <ele>451</ele>
        <time>2020-06-11T08:00:58.001Z</time>
      </trkpt>
      <trkpt lat="49.05649" lon="7.69792">
        <ele>452</ele>
        <time>2020-06-11T08:01:08.001Z</time>
      </trkpt>
      <trkpt lat="49.05646" lon="7.69802">
        <ele>454</ele>
        <time>2020-06-11T08:01:18.001Z</time>
      </trkpt>
      <trkpt lat="49.05641" lon="7.69812">
        <ele>455</ele>
        <time>2020-06-11T08:01:28.001Z</time>
      </trkpt>
      <trkpt lat="49.05638" lon="7.69815">
        <ele>455</ele>
        <time>2020-06-11T08:01:38.001Z</time>
      </trkpt>
      <trkpt lat="49.05635" lon="7.69817">
        <ele>455</ele>
        <time>2020-06-11T08:01:48.001Z</time>
      </trkpt>
      <trkpt lat="49.05638" lon="7.69815">
        <ele>455</ele>
        <time>2020-06-11T08:02:11.001Z</time>
      </trkpt>
      <trkpt lat="49.05637" lon="7.69814">
        <ele>455</ele>
        <time>2020-06-11T08:02:27.001Z</time>
      </trkpt>
      <trkpt lat="49.0563" lon="7.69813">
        <ele>455</ele>
        <time>2020-06-11T08:02:37.001Z</time>
      </trkpt>
      <trkpt lat="49.05623" lon="7.69812">
        <ele>455</ele>
        <time>2020-06-11T08:02:47.001Z</time>
      </trkpt>
      <trkpt lat="49.05621" lon="7.69811">
        <ele>455</ele>
        <time>2020-06-11T08:02:57.001Z</time>
      </trkpt>
      <trkpt lat="49.0562" lon="7.69811">
        <ele>455</ele>
        <time>2020-06-11T08:03:07.001Z</time>
      </trkpt>
      <trkpt lat="49.05622" lon="7.69811">
        <ele>455</ele>
        <time>2020-06-11T08:03:17.001Z</time>
      </trkpt>
      <trkpt lat="49.0563" lon="7.6982">
        <ele>455</ele>
        <time>2020-06-11T08:03:27.001Z</time>
      </trkpt>
      <trkpt lat="49.05637" lon="7.69831">
        <ele>456</ele>
        <time>2020-06-11T08:03:37.001Z</time>
      </trkpt>
      <trkpt lat="49.05646" lon="7.69847">
        <ele>463</ele>
        <time>2020-06-11T08:03:47.001Z</time>
      </trkpt>
      <trkpt lat="49.05654" lon="7.69868">
        <ele>464</ele>
        <time>2020-06-11T08:03:57.001Z</time>
      </trkpt>
      <trkpt lat="49.05658" lon="7.69882">
        <ele>466</ele>
        <time>2020-06-11T08:04:07.001Z</time>
      </trkpt>
      <trkpt lat="49.05664" lon="7.69895">
        <ele>468</ele>
        <time>2020-06-11T08:04:17.001Z</time>
      </trkpt>
      <trkpt lat="49.05671" lon="7.6991">
        <ele>468</ele>
        <time>2020-06-11T08:04:27.001Z</time>
      </trkpt>
      <trkpt lat="49.05677" lon="7.69926">
        <ele>468</ele>
        <time>2020-06-11T08:04:37.001Z</time>
      </trkpt>
      <trkpt lat="49.05683" lon="7.69946">
        <ele>464</ele>
        <time>2020-06-11T08:04:47.001Z</time>
      </trkpt>
      <trkpt lat="49.0569" lon="7.69966">
        <ele>463</ele>
        <time>2020-06-11T08:04:57.001Z</time>
      </trkpt>
      <trkpt lat="49.05696" lon="7.6998">
        <ele>463</ele>
        <time>2020-06-11T08:05:07.001Z</time>
      </trkpt>
      <trkpt lat="49.05698" lon="7.69993">
        <ele>463</ele>
        <time>2020-06-11T08:05:17.001Z</time>
      </trkpt>
      <trkpt lat="49.05698" lon="7.6999">
        <ele>463</ele>
        <time>2020-06-11T08:05:27.001Z</time>
      </trkpt>
      <trkpt lat="49.05699" lon="7.69986">
        <ele>463</ele>
        <time>2020-06-11T08:05:37.001Z</time>
      </trkpt>
      <trkpt lat="49.05704" lon="7.69994">
        <ele>462</ele>
        <time>2020-06-11T08:05:47.001Z</time>
      </trkpt>
      <trkpt lat="49.05705" lon="7.69999">
        <ele>462</ele>
        <time>2020-06-11T08:05:57.001Z</time>
      </trkpt>
      <trkpt lat="49.05706" lon="7.70005">
        <ele>463</ele>
        <time>2020-06-11T08:06:37.001Z</time>
      </trkpt>
      <trkpt lat="49.05707" lon="7.70011">
        <ele>463</ele>
        <time>2020-06-11T08:06:47.001Z</time>
      </trkpt>
      <trkpt lat="49.05712" lon="7.70024">
        <ele>463</ele>
        <time>2020-06-11T08:06:57.001Z</time>
      </trkpt>
      <trkpt lat="49.05717" lon="7.70037">
        <ele>462</ele>
        <time>2020-06-11T08:07:07.001Z</time>
      </trkpt>
      <trkpt lat="49.05721" lon="7.70051">
        <ele>462</ele>
        <time>2020-06-11T08:07:17.001Z</time>
      </trkpt>
      <trkpt lat="49.05726" lon="7.70071">
        <ele>461</ele>
        <time>2020-06-11T08:07:27.001Z</time>
      </trkpt>
      <trkpt lat="49.05728" lon="7.7009">
        <ele>460</ele>
        <time>2020-06-11T08:07:37.001Z</time>
      </trkpt>
      <trkpt lat="49.05729" lon="7.70107">
        <ele>460</ele>
        <time>2020-06-11T08:07:47.001Z</time>
      </trkpt>
      <trkpt lat="49.05725" lon="7.70126">
        <ele>460</ele>
        <time>2020-06-11T08:07:57.001Z</time>
      </trkpt>
      <trkpt lat="49.05724" lon="7.70128">
        <ele>460</ele>
        <time>2020-06-11T08:08:07.001Z</time>
      </trkpt>
      <trkpt lat="49.05726" lon="7.70126">
        <ele>460</ele>
        <time>2020-06-11T08:08:17.001Z</time>
      </trkpt>
      <trkpt lat="49.05727" lon="7.70125">
        <ele>460</ele>
        <time>2020-06-11T08:08:27.001Z</time>
      </trkpt>
      <trkpt lat="49.05727" lon="7.70126">
        <ele>460</ele>
        <time>2020-06-11T08:08:45.001Z</time>
      </trkpt>
      <trkpt lat="49.05725" lon="7.7014">
        <ele>460</ele>
        <time>2020-06-11T08:08:55.001Z</time>
      </trkpt>
      <trkpt lat="49.05724" lon="7.70145">
        <ele>460</ele>
        <time>2020-06-11T08:09:05.001Z</time>
      </trkpt>
      <trkpt lat="49.05724" lon="7.70146">
        <ele>460</ele>
        <time>2020-06-11T08:09:15.001Z</time>
      </trkpt>
      <trkpt lat="49.0572" lon="7.70153">
        <ele>460</ele>
        <time>2020-06-11T08:09:25.001Z</time>
      </trkpt>
      <trkpt lat="49.05719" lon="7.70155">
        <ele>460</ele>
        <time>2020-06-11T08:09:35.001Z</time>
      </trkpt>
      <trkpt lat="49.05715" lon="7.70163">
        <ele>459</ele>
        <time>2020-06-11T08:11:09.001Z</time>
      </trkpt>
      <trkpt lat="49.05714" lon="7.7017">
        <ele>456</ele>
        <time>2020-06-11T08:11:19.001Z</time>
      </trkpt>
      <trkpt lat="49.05713" lon="7.70184">
        <ele>456</ele>
        <time>2020-06-11T08:11:40.001Z</time>
      </trkpt>
      <trkpt lat="49.05714" lon="7.70195">
        <ele>456</ele>
        <time>2020-06-11T08:11:50.001Z</time>
      </trkpt>
      <trkpt lat="49.05715" lon="7.702">
        <ele>456</ele>
        <time>2020-06-11T08:12:00.000Z</time>
      </trkpt>
      <trkpt lat="49.05715" lon="7.70202">
        <ele>455</ele>
        <time>2020-06-11T08:12:15.001Z</time>
      </trkpt>
      <trkpt lat="49.05716" lon="7.70203">
        <ele>455</ele>
        <time>2020-06-11T08:12:46.001Z</time>
      </trkpt>
      <trkpt lat="49.0572" lon="7.70212">
        <ele>455</ele>
        <time>2020-06-11T08:12:56.001Z</time>
      </trkpt>
      <trkpt lat="49.05724" lon="7.70222">
        <ele>454</ele>
        <time>2020-06-11T08:13:06.001Z</time>
      </trkpt>
      <trkpt lat="49.05722" lon="7.70228">
        <ele>454</ele>
        <time>2020-06-11T08:13:16.000Z</time>
      </trkpt>
      <trkpt lat="49.0572" lon="7.70232">
        <ele>453</ele>
        <time>2020-06-11T08:13:25.001Z</time>
      </trkpt>
      <trkpt lat="49.05718" lon="7.70248">
        <ele>453</ele>
        <time>2020-06-11T08:13:35.001Z</time>
      </trkpt>
      <trkpt lat="49.05716" lon="7.70258">
        <ele>451</ele>
        <time>2020-06-11T08:13:45.001Z</time>
      </trkpt>
      <trkpt lat="49.05715" lon="7.70261">
        <ele>451</ele>
        <time>2020-06-11T08:13:55.001Z</time>
      </trkpt>
      <trkpt lat="49.05715" lon="7.70262">
        <ele>451</ele>
        <time>2020-06-11T08:14:07.001Z</time>
      </trkpt>
      <trkpt lat="49.05713" lon="7.70271">
        <ele>451</ele>
        <time>2020-06-11T08:14:17.001Z</time>
      </trkpt>
      <trkpt lat="49.0571" lon="7.70288">
        <ele>451</ele>
        <time>2020-06-11T08:14:27.001Z</time>
      </trkpt>
      <trkpt lat="49.05709" lon="7.703">
        <ele>451</ele>
        <time>2020-06-11T08:14:37.001Z</time>
      </trkpt>
      <trkpt lat="49.05704" lon="7.70323">
        <ele>452</ele>
        <time>2020-06-11T08:14:47.001Z</time>
      </trkpt>
      <trkpt lat="49.05701" lon="7.70338">
        <ele>453</ele>
        <time>2020-06-11T08:14:57.001Z</time>
      </trkpt>
      <trkpt lat="49.05699" lon="7.70347">
        <ele>454</ele>
        <time>2020-06-11T08:15:07.001Z</time>
      </trkpt>
      <trkpt lat="49.05697" lon="7.70357">
        <ele>454</ele>
        <time>2020-06-11T08:15:17.001Z</time>
      </trkpt>
      <trkpt lat="49.05692" lon="7.70371">
        <ele>455</ele>
        <time>2020-06-11T08:15:27.001Z</time>
      </trkpt>
      <trkpt lat="49.05689" lon="7.7038">
        <ele>456</ele>
        <time>2020-06-11T08:15:37.001Z</time>
      </trkpt>
      <trkpt lat="49.05684" lon="7.70388">
        <ele>458</ele>
        <time>2020-06-11T08:15:47.001Z</time>
      </trkpt>
      <trkpt lat="49.05681" lon="7.70395">
        <ele>460</ele>
        <time>2020-06-11T08:15:57.001Z</time>
      </trkpt>
      <trkpt lat="49.05676" lon="7.70406">
        <ele>464</ele>
        <time>2020-06-11T08:16:07.001Z</time>
      </trkpt>
      <trkpt lat="49.05674" lon="7.70411">
        <ele>467</ele>
        <time>2020-06-11T08:16:17.001Z</time>
      </trkpt>
      <trkpt lat="49.0567" lon="7.70417">
        <ele>472</ele>
        <time>2020-06-11T08:16:27.001Z</time>
      </trkpt>
      <trkpt lat="49.05668" lon="7.70425">
        <ele>469</ele>
        <time>2020-06-11T08:16:37.001Z</time>
      </trkpt>
      <trkpt lat="49.05666" lon="7.70432">
        <ele>475</ele>
        <time>2020-06-11T08:16:47.001Z</time>
      </trkpt>
      <trkpt lat="49.05666" lon="7.70434">
        <ele>475</ele>
        <time>2020-06-11T08:16:57.001Z</time>
      </trkpt>
      <trkpt lat="49.05662" lon="7.70439">
        <ele>475</ele>
        <time>2020-06-11T08:17:24.001Z</time>
      </trkpt>
      <trkpt lat="49.05654" lon="7.70441">
        <ele>475</ele>
        <time>2020-06-11T08:17:34.001Z</time>
      </trkpt>
      <trkpt lat="49.05647" lon="7.7044">
        <ele>474</ele>
        <time>2020-06-11T08:17:44.001Z</time>
      </trkpt>
      <trkpt lat="49.05645" lon="7.70441">
        <ele>474</ele>
        <time>2020-06-11T08:17:54.001Z</time>
      </trkpt>
      <trkpt lat="49.05645" lon="7.70442">
        <ele>474</ele>
        <time>2020-06-11T08:18:04.001Z</time>
      </trkpt>
      <trkpt lat="49.05645" lon="7.70447">
        <ele>475</ele>
        <time>2020-06-11T08:18:14.001Z</time>
      </trkpt>
      <trkpt lat="49.05646" lon="7.70456">
        <ele>475</ele>
        <time>2020-06-11T08:18:24.001Z</time>
      </trkpt>
      <trkpt lat="49.05643" lon="7.70464">
        <ele>475</ele>
        <time>2020-06-11T08:18:34.001Z</time>
      </trkpt>
      <trkpt lat="49.05642" lon="7.70469">
        <ele>476</ele>
        <time>2020-06-11T08:18:44.001Z</time>
      </trkpt>
      <trkpt lat="49.05639" lon="7.7048">
        <ele>476</ele>
        <time>2020-06-11T08:18:54.001Z</time>
      </trkpt>
      <trkpt lat="49.05639" lon="7.70482">
        <ele>476</ele>
        <time>2020-06-11T08:19:04.001Z</time>
      </trkpt>
      <trkpt lat="49.05639" lon="7.70486">
        <ele>477</ele>
        <time>2020-06-11T08:19:14.001Z</time>
      </trkpt>
      <trkpt lat="49.05638" lon="7.7049">
        <ele>477</ele>
        <time>2020-06-11T08:19:24.001Z</time>
      </trkpt>
      <trkpt lat="49.05637" lon="7.70495">
        <ele>477</ele>
        <time>2020-06-11T08:19:34.001Z</time>
      </trkpt>
      <trkpt lat="49.05637" lon="7.70496">
        <ele>477</ele>
        <time>2020-06-11T08:19:48.001Z</time>
      </trkpt>
      <trkpt lat="49.05635" lon="7.7051">
        <ele>483</ele>
        <time>2020-06-11T08:19:58.001Z</time>
      </trkpt>
      <trkpt lat="49.05633" lon="7.7052">
        <ele>484</ele>
        <time>2020-06-11T08:20:08.001Z</time>
      </trkpt>
      <trkpt lat="49.05626" lon="7.70539">
        <ele>485</ele>
        <time>2020-06-11T08:20:18.001Z</time>
      </trkpt>
      <trkpt lat="49.05624" lon="7.70549">
        <ele>486</ele>
        <time>2020-06-11T08:20:28.001Z</time>
      </trkpt>
      <trkpt lat="49.05623" lon="7.70552">
        <ele>486</ele>
        <time>2020-06-11T08:20:38.001Z</time>
      </trkpt>
      <trkpt lat="49.05624" lon="7.70566">
        <ele>487</ele>
        <time>2020-06-11T08:20:48.001Z</time>
      </trkpt>
      <trkpt lat="49.05626" lon="7.70586">
        <ele>490</ele>
        <time>2020-06-11T08:20:58.001Z</time>
      </trkpt>
      <trkpt lat="49.05625" lon="7.70608">
        <ele>490</ele>
        <time>2020-06-11T08:21:08.001Z</time>
      </trkpt>
      <trkpt lat="49.05627" lon="7.70628">
        <ele>490</ele>
        <time>2020-06-11T08:21:18.001Z</time>
      </trkpt>
      <trkpt lat="49.05631" lon="7.70644">
        <ele>490</ele>
        <time>2020-06-11T08:21:28.001Z</time>
      </trkpt>
      <trkpt lat="49.05633" lon="7.70657">
        <ele>490</ele>
        <time>2020-06-11T08:21:38.001Z</time>
      </trkpt>
      <trkpt lat="49.05632" lon="7.70672">
        <ele>489</ele>
        <time>2020-06-11T08:21:48.001Z</time>
      </trkpt>
      <trkpt lat="49.05634" lon="7.7069">
        <ele>488</ele>
        <time>2020-06-11T08:21:58.001Z</time>
      </trkpt>
      <trkpt lat="49.05639" lon="7.70702">
        <ele>488</ele>
        <time>2020-06-11T08:22:08.001Z</time>
      </trkpt>
      <trkpt lat="49.05642" lon="7.70714">
        <ele>488</ele>
        <time>2020-06-11T08:22:18.001Z</time>
      </trkpt>
      <trkpt lat="49.05649" lon="7.70722">
        <ele>487</ele>
        <time>2020-06-11T08:22:28.001Z</time>
      </trkpt>
      <trkpt lat="49.05648" lon="7.70723">
        <ele>487</ele>
        <time>2020-06-11T08:22:38.001Z</time>
      </trkpt>
      <trkpt lat="49.05645" lon="7.70721">
        <ele>487</ele>
        <time>2020-06-11T08:22:49.001Z</time>
      </trkpt>
      <trkpt lat="49.05643" lon="7.70723">
        <ele>487</ele>
        <time>2020-06-11T08:22:59.001Z</time>
      </trkpt>
      <trkpt lat="49.05645" lon="7.7073">
        <ele>487</ele>
        <time>2020-06-11T08:23:09.001Z</time>
      </trkpt>
      <trkpt lat="49.05649" lon="7.70736">
        <ele>487</ele>
        <time>2020-06-11T08:23:19.001Z</time>
      </trkpt>
      <trkpt lat="49.05655" lon="7.70746">
        <ele>486</ele>
        <time>2020-06-11T08:23:29.001Z</time>
      </trkpt>
      <trkpt lat="49.05655" lon="7.70749">
        <ele>486</ele>
        <time>2020-06-11T08:23:39.001Z</time>
      </trkpt>
      <trkpt lat="49.05656" lon="7.70753">
        <ele>482</ele>
        <time>2020-06-11T08:23:49.001Z</time>
      </trkpt>
      <trkpt lat="49.05657" lon="7.70755">
        <ele>482</ele>
        <time>2020-06-11T08:23:59.001Z</time>
      </trkpt>
      <trkpt lat="49.05657" lon="7.70757">
        <ele>481</ele>
        <time>2020-06-11T08:24:09.001Z</time>
      </trkpt>
      <trkpt lat="49.05658" lon="7.70759">
        <ele>481</ele>
        <time>2020-06-11T08:24:19.001Z</time>
      </trkpt>
      <trkpt lat="49.0566" lon="7.70763">
        <ele>480</ele>
        <time>2020-06-11T08:25:09.001Z</time>
      </trkpt>
      <trkpt lat="49.05659" lon="7.70762">
        <ele>481</ele>
        <time>2020-06-11T08:25:23.001Z</time>
      </trkpt>
      <trkpt lat="49.05658" lon="7.70761">
        <ele>481</ele>
        <time>2020-06-11T08:25:33.001Z</time>
      </trkpt>
      <trkpt lat="49.05659" lon="7.70762">
        <ele>481</ele>
        <time>2020-06-11T08:25:47.001Z</time>
      </trkpt>
      <trkpt lat="49.0566" lon="7.70765">
        <ele>480</ele>
        <time>2020-06-11T08:25:57.001Z</time>
      </trkpt>
      <trkpt lat="49.05661" lon="7.70764">
        <ele>480</ele>
        <time>2020-06-11T08:27:26.001Z</time>
      </trkpt>
      <trkpt lat="49.05661" lon="7.70765">
        <ele>480</ele>
        <time>2020-06-11T08:27:58.001Z</time>
      </trkpt>
      <trkpt lat="49.05661" lon="7.70766">
        <ele>480</ele>
        <time>2020-06-11T08:28:08.001Z</time>
      </trkpt>
      <trkpt lat="49.05662" lon="7.70766">
        <ele>480</ele>
        <time>2020-06-11T08:29:31.001Z</time>
      </trkpt>
      <trkpt lat="49.05661" lon="7.70764">
        <ele>480</ele>
        <time>2020-06-11T08:29:49.001Z</time>
      </trkpt>
      <trkpt lat="49.05657" lon="7.70761">
        <ele>481</ele>
        <time>2020-06-11T08:29:59.001Z</time>
      </trkpt>
      <trkpt lat="49.05656" lon="7.70759">
        <ele>481</ele>
        <time>2020-06-11T08:30:09.001Z</time>
      </trkpt>
      <trkpt lat="49.05655" lon="7.70758">
        <ele>481</ele>
        <time>2020-06-11T08:30:19.001Z</time>
      </trkpt>
      <trkpt lat="49.0565" lon="7.70753">
        <ele>480</ele>
        <time>2020-06-11T08:30:29.001Z</time>
      </trkpt>
      <trkpt lat="49.05651" lon="7.70755">
        <ele>480</ele>
        <time>2020-06-11T08:30:41.001Z</time>
      </trkpt>
      <trkpt lat="49.05653" lon="7.70758">
        <ele>480</ele>
        <time>2020-06-11T08:30:51.001Z</time>
      </trkpt>
      <trkpt lat="49.05653" lon="7.70764">
        <ele>480</ele>
        <time>2020-06-11T08:31:01.001Z</time>
      </trkpt>
      <trkpt lat="49.05655" lon="7.7078">
        <ele>477</ele>
        <time>2020-06-11T08:31:11.001Z</time>
      </trkpt>
      <trkpt lat="49.0566" lon="7.70784">
        <ele>476</ele>
        <time>2020-06-11T08:31:21.001Z</time>
      </trkpt>
      <trkpt lat="49.05664" lon="7.70785">
        <ele>476</ele>
        <time>2020-06-11T08:31:31.001Z</time>
      </trkpt>
      <trkpt lat="49.05665" lon="7.70787">
        <ele>476</ele>
        <time>2020-06-11T08:31:41.001Z</time>
      </trkpt>
      <trkpt lat="49.05664" lon="7.70788">
        <ele>476</ele>
        <time>2020-06-11T08:32:16.000Z</time>
      </trkpt>
      <trkpt lat="49.0566" lon="7.70788">
        <ele>476</ele>
        <time>2020-06-11T08:32:25.001Z</time>
      </trkpt>
      <trkpt lat="49.0565" lon="7.70789">
        <ele>475</ele>
        <time>2020-06-11T08:32:35.001Z</time>
      </trkpt>
      <trkpt lat="49.05636" lon="7.70783">
        <ele>476</ele>
        <time>2020-06-11T08:32:45.001Z</time>
      </trkpt>
      <trkpt lat="49.05617" lon="7.70771">
        <ele>477</ele>
        <time>2020-06-11T08:32:55.001Z</time>
      </trkpt>
      <trkpt lat="49.05602" lon="7.70763">
        <ele>479</ele>
        <time>2020-06-11T08:33:05.001Z</time>
      </trkpt>
      <trkpt lat="49.05591" lon="7.70762">
        <ele>481</ele>
        <time>2020-06-11T08:33:15.001Z</time>
      </trkpt>
      <trkpt lat="49.05581" lon="7.70761">
        <ele>480</ele>
        <time>2020-06-11T08:33:25.001Z</time>
      </trkpt>
      <trkpt lat="49.05568" lon="7.70757">
        <ele>478</ele>
        <time>2020-06-11T08:33:35.001Z</time>
      </trkpt>
      <trkpt lat="49.05556" lon="7.70752">
        <ele>475</ele>
        <time>2020-06-11T08:33:45.001Z</time>
      </trkpt>
      <trkpt lat="49.05543" lon="7.70747">
        <ele>485</ele>
        <time>2020-06-11T08:33:55.001Z</time>
      </trkpt>
      <trkpt lat="49.05533" lon="7.70746">
        <ele>484</ele>
        <time>2020-06-11T08:34:05.001Z</time>
      </trkpt>
      <trkpt lat="49.05527" lon="7.70748">
        <ele>483</ele>
        <time>2020-06-11T08:34:15.001Z</time>
      </trkpt>
      <trkpt lat="49.05524" lon="7.70748">
        <ele>483</ele>
        <time>2020-06-11T08:34:25.001Z</time>
      </trkpt>
      <trkpt lat="49.05513" lon="7.70753">
        <ele>473</ele>
        <time>2020-06-11T08:34:35.001Z</time>
      </trkpt>
      <trkpt lat="49.05499" lon="7.70756">
        <ele>475</ele>
        <time>2020-06-11T08:34:45.001Z</time>
      </trkpt>
      <trkpt lat="49.05475" lon="7.70755">
        <ele>471</ele>
        <time>2020-06-11T08:34:55.001Z</time>
      </trkpt>
      <trkpt lat="49.05461" lon="7.7075">
        <ele>477</ele>
        <time>2020-06-11T08:35:05.001Z</time>
      </trkpt>
      <trkpt lat="49.05444" lon="7.70747">
        <ele>477</ele>
        <time>2020-06-11T08:35:15.001Z</time>
      </trkpt>
      <trkpt lat="49.05441" lon="7.7076">
        <ele>472</ele>
        <time>2020-06-11T08:35:25.001Z</time>
      </trkpt>
      <trkpt lat="49.05451" lon="7.70764">
        <ele>470</ele>
        <time>2020-06-11T08:35:35.001Z</time>
      </trkpt>
      <trkpt lat="49.05458" lon="7.70766">
        <ele>470</ele>
        <time>2020-06-11T08:35:45.001Z</time>
      </trkpt>
      <trkpt lat="49.05462" lon="7.70762">
        <ele>470</ele>
        <time>2020-06-11T08:35:55.001Z</time>
      </trkpt>
      <trkpt lat="49.0547" lon="7.70759">
        <ele>471</ele>
        <time>2020-06-11T08:36:05.001Z</time>
      </trkpt>
      <trkpt lat="49.05485" lon="7.70757">
        <ele>472</ele>
        <time>2020-06-11T08:36:15.001Z</time>
      </trkpt>
      <trkpt lat="49.05497" lon="7.7076">
        <ele>473</ele>
        <time>2020-06-11T08:36:25.001Z</time>
      </trkpt>
      <trkpt lat="49.05509" lon="7.70765">
        <ele>472</ele>
        <time>2020-06-11T08:36:35.001Z</time>
      </trkpt>
      <trkpt lat="49.05512" lon="7.70766">
        <ele>471</ele>
        <time>2020-06-11T08:36:45.001Z</time>
      </trkpt>
      <trkpt lat="49.05516" lon="7.7077">
        <ele>471</ele>
        <time>2020-06-11T08:36:55.001Z</time>
      </trkpt>
      <trkpt lat="49.05527" lon="7.70781">
        <ele>468</ele>
        <time>2020-06-11T08:37:05.001Z</time>
      </trkpt>
      <trkpt lat="49.0554" lon="7.7079">
        <ele>467</ele>
        <time>2020-06-11T08:37:15.001Z</time>
      </trkpt>
      <trkpt lat="49.05552" lon="7.70797">
        <ele>467</ele>
        <time>2020-06-11T08:37:25.001Z</time>
      </trkpt>
      <trkpt lat="49.05558" lon="7.70801">
        <ele>466</ele>
        <time>2020-06-11T08:37:35.001Z</time>
      </trkpt>
      <trkpt lat="49.05569" lon="7.70814">
        <ele>464</ele>
        <time>2020-06-11T08:37:45.001Z</time>
      </trkpt>
      <trkpt lat="49.05589" lon="7.70833">
        <ele>456</ele>
        <time>2020-06-11T08:37:55.001Z</time>
      </trkpt>
      <trkpt lat="49.05604" lon="7.7085">
        <ele>452</ele>
        <time>2020-06-11T08:38:05.001Z</time>
      </trkpt>
      <trkpt lat="49.05615" lon="7.70864">
        <ele>449</ele>
        <time>2020-06-11T08:38:15.001Z</time>
      </trkpt>
      <trkpt lat="49.05623" lon="7.70872">
        <ele>448</ele>
        <time>2020-06-11T08:38:25.001Z</time>
      </trkpt>
      <trkpt lat="49.05624" lon="7.70876">
        <ele>448</ele>
        <time>2020-06-11T08:38:35.001Z</time>
      </trkpt>
      <trkpt lat="49.05631" lon="7.70887">
        <ele>447</ele>
        <time>2020-06-11T08:38:45.001Z</time>
      </trkpt>
      <trkpt lat="49.05639" lon="7.709">
        <ele>445</ele>
        <time>2020-06-11T08:38:55.001Z</time>
      </trkpt>
      <trkpt lat="49.05646" lon="7.70911">
        <ele>445</ele>
        <time>2020-06-11T08:39:05.001Z</time>
      </trkpt>
      <trkpt lat="49.05655" lon="7.70928">
        <ele>430</ele>
        <time>2020-06-11T08:39:15.001Z</time>
      </trkpt>
      <trkpt lat="49.05664" lon="7.70942">
        <ele>426</ele>
        <time>2020-06-11T08:39:25.001Z</time>
      </trkpt>
      <trkpt lat="49.05669" lon="7.70957">
        <ele>425</ele>
        <time>2020-06-11T08:39:35.001Z</time>
      </trkpt>
      <trkpt lat="49.05679" lon="7.70975">
        <ele>421</ele>
        <time>2020-06-11T08:39:45.001Z</time>
      </trkpt>
      <trkpt lat="49.05689" lon="7.70989">
        <ele>419</ele>
        <time>2020-06-11T08:39:55.001Z</time>
      </trkpt>
      <trkpt lat="49.05702" lon="7.70996">
        <ele>418</ele>
        <time>2020-06-11T08:40:05.001Z</time>
      </trkpt>
      <trkpt lat="49.05712" lon="7.71004">
        <ele>402</ele>
        <time>2020-06-11T08:40:15.001Z</time>
      </trkpt>
      <trkpt lat="49.05725" lon="7.71009">
        <ele>401</ele>
        <time>2020-06-11T08:40:25.001Z</time>
      </trkpt>
      <trkpt lat="49.05735" lon="7.71007">
        <ele>402</ele>
        <time>2020-06-11T08:40:35.001Z</time>
      </trkpt>
      <trkpt lat="49.05747" lon="7.70996">
        <ele>409</ele>
        <time>2020-06-11T08:40:45.001Z</time>
      </trkpt>
      <trkpt lat="49.05751" lon="7.70982">
        <ele>405</ele>
        <time>2020-06-11T08:40:55.001Z</time>
      </trkpt>
      <trkpt lat="49.05756" lon="7.7097">
        <ele>406</ele>
        <time>2020-06-11T08:41:05.001Z</time>
      </trkpt>
      <trkpt lat="49.05765" lon="7.70955">
        <ele>407</ele>
        <time>2020-06-11T08:41:15.001Z</time>
      </trkpt>
      <trkpt lat="49.0577" lon="7.70942">
        <ele>409</ele>
        <time>2020-06-11T08:41:25.001Z</time>
      </trkpt>
      <trkpt lat="49.05779" lon="7.70932">
        <ele>409</ele>
        <time>2020-06-11T08:41:35.001Z</time>
      </trkpt>
      <trkpt lat="49.05787" lon="7.70923">
        <ele>407</ele>
        <time>2020-06-11T08:41:45.001Z</time>
      </trkpt>
      <trkpt lat="49.05797" lon="7.7091">
        <ele>411</ele>
        <time>2020-06-11T08:41:55.001Z</time>
      </trkpt>
      <trkpt lat="49.05807" lon="7.70893">
        <ele>410</ele>
        <time>2020-06-11T08:42:05.001Z</time>
      </trkpt>
      <trkpt lat="49.05815" lon="7.7088">
        <ele>409</ele>
        <time>2020-06-11T08:42:15.001Z</time>
      </trkpt>
      <trkpt lat="49.05826" lon="7.70888">
        <ele>406</ele>
        <time>2020-06-11T08:42:25.001Z</time>
      </trkpt>
      <trkpt lat="49.05838" lon="7.70895">
        <ele>390</ele>
        <time>2020-06-11T08:42:35.001Z</time>
      </trkpt>
      <trkpt lat="49.0584" lon="7.70893">
        <ele>390</ele>
        <time>2020-06-11T08:42:45.001Z</time>
      </trkpt>
      <trkpt lat="49.05836" lon="7.70892">
        <ele>390</ele>
        <time>2020-06-11T08:42:55.001Z</time>
      </trkpt>
      <trkpt lat="49.05835" lon="7.70892">
        <ele>390</ele>
        <time>2020-06-11T08:43:19.001Z</time>
      </trkpt>
      <trkpt lat="49.05845" lon="7.70911">
        <ele>391</ele>
        <time>2020-06-11T08:43:29.001Z</time>
      </trkpt>
      <trkpt lat="49.0585" lon="7.70923">
        <ele>387</ele>
        <time>2020-06-11T08:43:39.001Z</time>
      </trkpt>
      <trkpt lat="49.05854" lon="7.70927">
        <ele>386</ele>
        <time>2020-06-11T08:43:49.001Z</time>
      </trkpt>
      <trkpt lat="49.05858" lon="7.70934">
        <ele>385</ele>
        <time>2020-06-11T08:43:59.001Z</time>
      </trkpt>
      <trkpt lat="49.05858" lon="7.70952">
        <ele>382</ele>
        <time>2020-06-11T08:44:09.001Z</time>
      </trkpt>
      <trkpt lat="49.05859" lon="7.70969">
        <ele>381</ele>
        <time>2020-06-11T08:44:19.001Z</time>
      </trkpt>
      <trkpt lat="49.05855" lon="7.70982">
        <ele>380</ele>
        <time>2020-06-11T08:44:29.001Z</time>
      </trkpt>
      <trkpt lat="49.05846" lon="7.71">
        <ele>380</ele>
        <time>2020-06-11T08:44:39.001Z</time>
      </trkpt>
      <trkpt lat="49.05834" lon="7.71021">
        <ele>370</ele>
        <time>2020-06-11T08:44:49.001Z</time>
      </trkpt>
      <trkpt lat="49.05829" lon="7.71035">
        <ele>380</ele>
        <time>2020-06-11T08:44:59.001Z</time>
      </trkpt>
      <trkpt lat="49.05827" lon="7.71049">
        <ele>378</ele>
        <time>2020-06-11T08:45:09.001Z</time>
      </trkpt>
      <trkpt lat="49.05822" lon="7.71067">
        <ele>374</ele>
        <time>2020-06-11T08:45:19.001Z</time>
      </trkpt>
      <trkpt lat="49.05816" lon="7.71085">
        <ele>365</ele>
        <time>2020-06-11T08:45:29.001Z</time>
      </trkpt>
      <trkpt lat="49.05809" lon="7.7111">
        <ele>366</ele>
        <time>2020-06-11T08:45:39.001Z</time>
      </trkpt>
      <trkpt lat="49.05803" lon="7.71132">
        <ele>364</ele>
        <time>2020-06-11T08:45:49.001Z</time>
      </trkpt>
      <trkpt lat="49.05799" lon="7.7115">
        <ele>363</ele>
        <time>2020-06-11T08:45:59.001Z</time>
      </trkpt>
      <trkpt lat="49.05796" lon="7.71166">
        <ele>362</ele>
        <time>2020-06-11T08:46:09.001Z</time>
      </trkpt>
      <trkpt lat="49.05792" lon="7.71183">
        <ele>351</ele>
        <time>2020-06-11T08:46:19.001Z</time>
      </trkpt>
      <trkpt lat="49.05789" lon="7.71199">
        <ele>350</ele>
        <time>2020-06-11T08:46:29.001Z</time>
      </trkpt>
      <trkpt lat="49.05786" lon="7.71221">
        <ele>348</ele>
        <time>2020-06-11T08:46:39.001Z</time>
      </trkpt>
      <trkpt lat="49.05784" lon="7.71239">
        <ele>346</ele>
        <time>2020-06-11T08:46:49.001Z</time>
      </trkpt>
      <trkpt lat="49.0578" lon="7.71258">
        <ele>336</ele>
        <time>2020-06-11T08:46:59.001Z</time>
      </trkpt>
      <trkpt lat="49.05776" lon="7.71287">
        <ele>334</ele>
        <time>2020-06-11T08:47:09.001Z</time>
      </trkpt>
      <trkpt lat="49.05772" lon="7.71307">
        <ele>332</ele>
        <time>2020-06-11T08:47:19.001Z</time>
      </trkpt>
      <trkpt lat="49.05769" lon="7.71324">
        <ele>332</ele>
        <time>2020-06-11T08:47:29.001Z</time>
      </trkpt>
      <trkpt lat="49.05769" lon="7.71335">
        <ele>327</ele>
        <time>2020-06-11T08:47:39.001Z</time>
      </trkpt>
      <trkpt lat="49.0577" lon="7.71326">
        <ele>332</ele>
        <time>2020-06-11T08:47:49.001Z</time>
      </trkpt>
      <trkpt lat="49.05768" lon="7.71324">
        <ele>332</ele>
        <time>2020-06-11T08:47:59.001Z</time>
      </trkpt>
      <trkpt lat="49.05766" lon="7.71322">
        <ele>332</ele>
        <time>2020-06-11T08:48:09.001Z</time>
      </trkpt>
      <trkpt lat="49.05765" lon="7.71322">
        <ele>332</ele>
        <time>2020-06-11T08:48:50.001Z</time>
      </trkpt>
      <trkpt lat="49.05763" lon="7.71332">
        <ele>332</ele>
        <time>2020-06-11T08:49:00.000Z</time>
      </trkpt>
      <trkpt lat="49.05758" lon="7.71335">
        <ele>330</ele>
        <time>2020-06-11T08:49:09.001Z</time>
      </trkpt>
      <trkpt lat="49.05755" lon="7.71341">
        <ele>329</ele>
        <time>2020-06-11T08:49:19.001Z</time>
      </trkpt>
      <trkpt lat="49.05752" lon="7.71359">
        <ele>326</ele>
        <time>2020-06-11T08:49:29.001Z</time>
      </trkpt>
      <trkpt lat="49.0575" lon="7.71375">
        <ele>325</ele>
        <time>2020-06-11T08:49:39.001Z</time>
      </trkpt>
      <trkpt lat="49.05761" lon="7.71394">
        <ele>324</ele>
        <time>2020-06-11T08:49:49.001Z</time>
      </trkpt>
      <trkpt lat="49.05768" lon="7.71403">
        <ele>323</ele>
        <time>2020-06-11T08:49:59.001Z</time>
      </trkpt>
      <trkpt lat="49.05771" lon="7.71414">
        <ele>323</ele>
        <time>2020-06-11T08:50:09.001Z</time>
      </trkpt>
      <trkpt lat="49.05773" lon="7.71417">
        <ele>318</ele>
        <time>2020-06-11T08:50:19.001Z</time>
      </trkpt>
      <trkpt lat="49.05773" lon="7.71418">
        <ele>318</ele>
        <time>2020-06-11T08:50:44.001Z</time>
      </trkpt>
      <trkpt lat="49.05771" lon="7.71413">
        <ele>323</ele>
        <time>2020-06-11T08:50:54.001Z</time>
      </trkpt>
      <trkpt lat="49.05769" lon="7.71405">
        <ele>323</ele>
        <time>2020-06-11T08:51:04.001Z</time>
      </trkpt>
      <trkpt lat="49.05764" lon="7.71403">
        <ele>324</ele>
        <time>2020-06-11T08:51:14.001Z</time>
      </trkpt>
      <trkpt lat="49.05759" lon="7.71399">
        <ele>324</ele>
        <time>2020-06-11T08:51:24.001Z</time>
      </trkpt>
      <trkpt lat="49.05756" lon="7.71393">
        <ele>324</ele>
        <time>2020-06-11T08:51:34.001Z</time>
      </trkpt>
      <trkpt lat="49.05741" lon="7.71384">
        <ele>321</ele>
        <time>2020-06-11T08:51:44.001Z</time>
      </trkpt>
      <trkpt lat="49.0574" lon="7.71376">
        <ele>321</ele>
        <time>2020-06-11T08:51:54.001Z</time>
      </trkpt>
      <trkpt lat="49.05752" lon="7.71361">
        <ele>326</ele>
        <time>2020-06-11T08:52:04.001Z</time>
      </trkpt>
      <trkpt lat="49.05759" lon="7.71356">
        <ele>326</ele>
        <time>2020-06-11T08:52:14.001Z</time>
      </trkpt>
      <trkpt lat="49.05757" lon="7.71362">
        <ele>325</ele>
        <time>2020-06-11T08:52:24.001Z</time>
      </trkpt>
      <trkpt lat="49.05757" lon="7.71365">
        <ele>325</ele>
        <time>2020-06-11T08:52:34.001Z</time>
      </trkpt>
      <trkpt lat="49.05757" lon="7.71366">
        <ele>325</ele>
        <time>2020-06-11T08:52:57.001Z</time>
      </trkpt>
      <trkpt lat="49.05757" lon="7.71367">
        <ele>325</ele>
        <time>2020-06-11T08:54:52.001Z</time>
      </trkpt>
      <trkpt lat="49.05758" lon="7.7137">
        <ele>325</ele>
        <time>2020-06-11T08:55:47.001Z</time>
      </trkpt>
      <trkpt lat="49.05759" lon="7.71369">
        <ele>325</ele>
        <time>2020-06-11T08:56:10.001Z</time>
      </trkpt>
      <trkpt lat="49.05757" lon="7.71364">
        <ele>325</ele>
        <time>2020-06-11T08:56:20.001Z</time>
      </trkpt>
      <trkpt lat="49.05757" lon="7.71358">
        <ele>326</ele>
        <time>2020-06-11T08:56:30.001Z</time>
      </trkpt>
      <trkpt lat="49.05758" lon="7.71354">
        <ele>327</ele>
        <time>2020-06-11T08:56:40.001Z</time>
      </trkpt>
      <trkpt lat="49.05758" lon="7.71355">
        <ele>326</ele>
        <time>2020-06-11T08:56:52.001Z</time>
      </trkpt>
      <trkpt lat="49.05759" lon="7.71366">
        <ele>325</ele>
        <time>2020-06-11T08:57:02.000Z</time>
      </trkpt>
      <trkpt lat="49.05758" lon="7.71367">
        <ele>325</ele>
        <time>2020-06-11T08:57:11.001Z</time>
      </trkpt>
      <trkpt lat="49.05757" lon="7.71372">
        <ele>324</ele>
        <time>2020-06-11T08:57:21.001Z</time>
      </trkpt>
      <trkpt lat="49.05755" lon="7.71379">
        <ele>324</ele>
        <time>2020-06-11T08:57:31.001Z</time>
      </trkpt>
      <trkpt lat="49.0576" lon="7.71387">
        <ele>324</ele>
        <time>2020-06-11T08:57:41.001Z</time>
      </trkpt>
      <trkpt lat="49.05761" lon="7.71397">
        <ele>324</ele>
        <time>2020-06-11T08:57:51.001Z</time>
      </trkpt>
      <trkpt lat="49.05762" lon="7.71405">
        <ele>324</ele>
        <time>2020-06-11T08:58:01.001Z</time>
      </trkpt>
      <trkpt lat="49.05768" lon="7.71409">
        <ele>323</ele>
        <time>2020-06-11T08:58:11.001Z</time>
      </trkpt>
      <trkpt lat="49.05771" lon="7.71413">
        <ele>323</ele>
        <time>2020-06-11T08:58:21.001Z</time>
      </trkpt>
      <trkpt lat="49.05769" lon="7.71411">
        <ele>323</ele>
        <time>2020-06-11T08:58:33.001Z</time>
      </trkpt>
      <trkpt lat="49.05761" lon="7.714">
        <ele>324</ele>
        <time>2020-06-11T08:58:43.001Z</time>
      </trkpt>
      <trkpt lat="49.05759" lon="7.71392">
        <ele>324</ele>
        <time>2020-06-11T08:58:53.001Z</time>
      </trkpt>
      <trkpt lat="49.05753" lon="7.71383">
        <ele>324</ele>
        <time>2020-06-11T08:59:03.001Z</time>
      </trkpt>
      <trkpt lat="49.05746" lon="7.71368">
        <ele>322</ele>
        <time>2020-06-11T08:59:13.001Z</time>
      </trkpt>
      <trkpt lat="49.05748" lon="7.71348">
        <ele>326</ele>
        <time>2020-06-11T08:59:23.001Z</time>
      </trkpt>
      <trkpt lat="49.05752" lon="7.7133">
        <ele>333</ele>
        <time>2020-06-11T08:59:33.001Z</time>
      </trkpt>
      <trkpt lat="49.05755" lon="7.71323">
        <ele>333</ele>
        <time>2020-06-11T08:59:43.001Z</time>
      </trkpt>
      <trkpt lat="49.05765" lon="7.71329">
        <ele>332</ele>
        <time>2020-06-11T09:00:28.001Z</time>
      </trkpt>
      <trkpt lat="49.05762" lon="7.71327">
        <ele>332</ele>
        <time>2020-06-11T09:00:38.001Z</time>
      </trkpt>
      <trkpt lat="49.05754" lon="7.71326">
        <ele>333</ele>
        <time>2020-06-11T09:00:48.001Z</time>
      </trkpt>
      <trkpt lat="49.0575" lon="7.71325">
        <ele>333</ele>
        <time>2020-06-11T09:00:58.001Z</time>
      </trkpt>
      <trkpt lat="49.05749" lon="7.71322">
        <ele>332</ele>
        <time>2020-06-11T09:01:08.001Z</time>
      </trkpt>
      <trkpt lat="49.05748" lon="7.71321">
        <ele>331</ele>
        <time>2020-06-11T09:01:18.001Z</time>
      </trkpt>
      <trkpt lat="49.05738" lon="7.71302">
        <ele>331</ele>
        <time>2020-06-11T09:01:28.001Z</time>
      </trkpt>
      <trkpt lat="49.05729" lon="7.71283">
        <ele>332</ele>
        <time>2020-06-11T09:01:38.001Z</time>
      </trkpt>
      <trkpt lat="49.05723" lon="7.71269">
        <ele>333</ele>
        <time>2020-06-11T09:01:48.001Z</time>
      </trkpt>
      <trkpt lat="49.05719" lon="7.71257">
        <ele>333</ele>
        <time>2020-06-11T09:01:58.001Z</time>
      </trkpt>
      <trkpt lat="49.05708" lon="7.71233">
        <ele>345</ele>
        <time>2020-06-11T09:02:08.001Z</time>
      </trkpt>
      <trkpt lat="49.05697" lon="7.71218">
        <ele>345</ele>
        <time>2020-06-11T09:02:18.001Z</time>
      </trkpt>
      <trkpt lat="49.05687" lon="7.71199">
        <ele>346</ele>
        <time>2020-06-11T09:02:28.001Z</time>
      </trkpt>
      <trkpt lat="49.05678" lon="7.71182">
        <ele>347</ele>
        <time>2020-06-11T09:02:38.001Z</time>
      </trkpt>
      <trkpt lat="49.0567" lon="7.71169">
        <ele>347</ele>
        <time>2020-06-11T09:02:48.001Z</time>
      </trkpt>
      <trkpt lat="49.05658" lon="7.71156">
        <ele>349</ele>
        <time>2020-06-11T09:02:58.001Z</time>
      </trkpt>
      <trkpt lat="49.05651" lon="7.71149">
        <ele>349</ele>
        <time>2020-06-11T09:03:08.001Z</time>
      </trkpt>
      <trkpt lat="49.05642" lon="7.7114">
        <ele>350</ele>
        <time>2020-06-11T09:03:18.001Z</time>
      </trkpt>
      <trkpt lat="49.05635" lon="7.71135">
        <ele>350</ele>
        <time>2020-06-11T09:03:28.001Z</time>
      </trkpt>
      <trkpt lat="49.05622" lon="7.71126">
        <ele>349</ele>
        <time>2020-06-11T09:03:38.001Z</time>
      </trkpt>
      <trkpt lat="49.0561" lon="7.71117">
        <ele>349</ele>
        <time>2020-06-11T09:03:48.001Z</time>
      </trkpt>
      <trkpt lat="49.05597" lon="7.71109">
        <ele>349</ele>
        <time>2020-06-11T09:03:58.001Z</time>
      </trkpt>
      <trkpt lat="49.05581" lon="7.71101">
        <ele>345</ele>
        <time>2020-06-11T09:04:08.001Z</time>
      </trkpt>
      <trkpt lat="49.05567" lon="7.71093">
        <ele>345</ele>
        <time>2020-06-11T09:04:18.001Z</time>
      </trkpt>
      <trkpt lat="49.05552" lon="7.71084">
        <ele>345</ele>
        <time>2020-06-11T09:04:28.001Z</time>
      </trkpt>
      <trkpt lat="49.05538" lon="7.71082">
        <ele>363</ele>
        <time>2020-06-11T09:04:38.001Z</time>
      </trkpt>
      <trkpt lat="49.0553" lon="7.71091">
        <ele>346</ele>
        <time>2020-06-11T09:04:48.001Z</time>
      </trkpt>
      <trkpt lat="49.05526" lon="7.71102">
        <ele>346</ele>
        <time>2020-06-11T09:04:58.001Z</time>
      </trkpt>
      <trkpt lat="49.05521" lon="7.71115">
        <ele>344</ele>
        <time>2020-06-11T09:05:08.001Z</time>
      </trkpt>
      <trkpt lat="49.05516" lon="7.71128">
        <ele>342</ele>
        <time>2020-06-11T09:05:18.001Z</time>
      </trkpt>
      <trkpt lat="49.05512" lon="7.71143">
        <ele>340</ele>
        <time>2020-06-11T09:05:28.001Z</time>
      </trkpt>
      <trkpt lat="49.05507" lon="7.71161">
        <ele>338</ele>
        <time>2020-06-11T09:05:38.001Z</time>
      </trkpt>
      <trkpt lat="49.05506" lon="7.71181">
        <ele>331</ele>
        <time>2020-06-11T09:05:48.001Z</time>
      </trkpt>
      <trkpt lat="49.05507" lon="7.712">
        <ele>327</ele>
        <time>2020-06-11T09:05:58.001Z</time>
      </trkpt>
      <trkpt lat="49.0551" lon="7.71219">
        <ele>326</ele>
        <time>2020-06-11T09:06:08.001Z</time>
      </trkpt>
      <trkpt lat="49.0551" lon="7.7124">
        <ele>326</ele>
        <time>2020-06-11T09:06:18.001Z</time>
      </trkpt>
      <trkpt lat="49.05507" lon="7.71263">
        <ele>322</ele>
        <time>2020-06-11T09:06:28.001Z</time>
      </trkpt>
      <trkpt lat="49.05505" lon="7.71283">
        <ele>318</ele>
        <time>2020-06-11T09:06:38.001Z</time>
      </trkpt>
      <trkpt lat="49.05504" lon="7.71301">
        <ele>317</ele>
        <time>2020-06-11T09:06:48.001Z</time>
      </trkpt>
      <trkpt lat="49.05503" lon="7.71321">
        <ele>317</ele>
        <time>2020-06-11T09:06:58.001Z</time>
      </trkpt>
      <trkpt lat="49.05504" lon="7.71342">
        <ele>317</ele>
        <time>2020-06-11T09:07:08.001Z</time>
      </trkpt>
      <trkpt lat="49.05503" lon="7.71368">
        <ele>313</ele>
        <time>2020-06-11T09:07:18.001Z</time>
      </trkpt>
      <trkpt lat="49.05502" lon="7.7139">
        <ele>313</ele>
        <time>2020-06-11T09:07:28.001Z</time>
      </trkpt>
      <trkpt lat="49.05503" lon="7.7141">
        <ele>316</ele>
        <time>2020-06-11T09:07:38.001Z</time>
      </trkpt>
      <trkpt lat="49.05508" lon="7.71426">
        <ele>315</ele>
        <time>2020-06-11T09:07:48.001Z</time>
      </trkpt>
      <trkpt lat="49.05512" lon="7.71446">
        <ele>313</ele>
        <time>2020-06-11T09:07:58.001Z</time>
      </trkpt>
      <trkpt lat="49.0552" lon="7.71471">
        <ele>313</ele>
        <time>2020-06-11T09:08:08.001Z</time>
      </trkpt>
      <trkpt lat="49.05527" lon="7.71496">
        <ele>314</ele>
        <time>2020-06-11T09:08:18.001Z</time>
      </trkpt>
      <trkpt lat="49.05531" lon="7.71515">
        <ele>315</ele>
        <time>2020-06-11T09:08:28.001Z</time>
      </trkpt>
      <trkpt lat="49.05526" lon="7.71534">
        <ele>316</ele>
        <time>2020-06-11T09:08:38.001Z</time>
      </trkpt>
      <trkpt lat="49.05523" lon="7.71557">
        <ele>318</ele>
        <time>2020-06-11T09:08:48.001Z</time>
      </trkpt>
      <trkpt lat="49.05523" lon="7.71581">
        <ele>320</ele>
        <time>2020-06-11T09:08:58.001Z</time>
      </trkpt>
      <trkpt lat="49.05522" lon="7.716">
        <ele>319</ele>
        <time>2020-06-11T09:09:08.001Z</time>
      </trkpt>
      <trkpt lat="49.05519" lon="7.71623">
        <ele>318</ele>
        <time>2020-06-11T09:09:18.001Z</time>
      </trkpt>
      <trkpt lat="49.05517" lon="7.7164">
        <ele>318</ele>
        <time>2020-06-11T09:09:28.001Z</time>
      </trkpt>
      <trkpt lat="49.05513" lon="7.71664">
        <ele>321</ele>
        <time>2020-06-11T09:09:38.001Z</time>
      </trkpt>
      <trkpt lat="49.05504" lon="7.71682">
        <ele>318</ele>
        <time>2020-06-11T09:09:48.001Z</time>
      </trkpt>
      <trkpt lat="49.05495" lon="7.71701">
        <ele>328</ele>
        <time>2020-06-11T09:09:58.001Z</time>
      </trkpt>
      <trkpt lat="49.05486" lon="7.71717">
        <ele>327</ele>
        <time>2020-06-11T09:10:08.001Z</time>
      </trkpt>
      <trkpt lat="49.05476" lon="7.71725">
        <ele>327</ele>
        <time>2020-06-11T09:10:18.001Z</time>
      </trkpt>
      <trkpt lat="49.05464" lon="7.71736">
        <ele>328</ele>
        <time>2020-06-11T09:10:28.001Z</time>
      </trkpt>
      <trkpt lat="49.05451" lon="7.71748">
        <ele>329</ele>
        <time>2020-06-11T09:10:38.001Z</time>
      </trkpt>
      <trkpt lat="49.05435" lon="7.71761">
        <ele>324</ele>
        <time>2020-06-11T09:10:48.001Z</time>
      </trkpt>
      <trkpt lat="49.05424" lon="7.71775">
        <ele>324</ele>
        <time>2020-06-11T09:10:58.001Z</time>
      </trkpt>
      <trkpt lat="49.05415" lon="7.71791">
        <ele>321</ele>
        <time>2020-06-11T09:11:08.001Z</time>
      </trkpt>
      <trkpt lat="49.0541" lon="7.71805">
        <ele>320</ele>
        <time>2020-06-11T09:11:18.001Z</time>
      </trkpt>
      <trkpt lat="49.05403" lon="7.71816">
        <ele>319</ele>
        <time>2020-06-11T09:11:28.001Z</time>
      </trkpt>
      <trkpt lat="49.05398" lon="7.71835">
        <ele>317</ele>
        <time>2020-06-11T09:11:38.001Z</time>
      </trkpt>
      <trkpt lat="49.05394" lon="7.71848">
        <ele>317</ele>
        <time>2020-06-11T09:11:48.001Z</time>
      </trkpt>
      <trkpt lat="49.05383" lon="7.71861">
        <ele>316</ele>
        <time>2020-06-11T09:11:58.001Z</time>
      </trkpt>
      <trkpt lat="49.05372" lon="7.71876">
        <ele>315</ele>
        <time>2020-06-11T09:12:08.001Z</time>
      </trkpt>
      <trkpt lat="49.0536" lon="7.71897">
        <ele>314</ele>
        <time>2020-06-11T09:12:18.001Z</time>
      </trkpt>
      <trkpt lat="49.05351" lon="7.71896">
        <ele>313</ele>
        <time>2020-06-11T09:12:28.001Z</time>
      </trkpt>
      <trkpt lat="49.05352" lon="7.71873">
        <ele>313</ele>
        <time>2020-06-11T09:12:38.001Z</time>
      </trkpt>
      <trkpt lat="49.05342" lon="7.71857">
        <ele>311</ele>
        <time>2020-06-11T09:12:48.001Z</time>
      </trkpt>
      <trkpt lat="49.05342" lon="7.71846">
        <ele>310</ele>
        <time>2020-06-11T09:12:58.001Z</time>
      </trkpt>
      <trkpt lat="49.05344" lon="7.7184">
        <ele>309</ele>
        <time>2020-06-11T09:13:08.001Z</time>
      </trkpt>
      <trkpt lat="49.05345" lon="7.71838">
        <ele>309</ele>
        <time>2020-06-11T09:13:18.001Z</time>
      </trkpt>
      <trkpt lat="49.05344" lon="7.71842">
        <ele>309</ele>
        <time>2020-06-11T09:13:28.001Z</time>
      </trkpt>
      <trkpt lat="49.05342" lon="7.71847">
        <ele>310</ele>
        <time>2020-06-11T09:13:38.001Z</time>
      </trkpt>
      <trkpt lat="49.05336" lon="7.71864">
        <ele>311</ele>
        <time>2020-06-11T09:13:48.001Z</time>
      </trkpt>
      <trkpt lat="49.05334" lon="7.71868">
        <ele>312</ele>
        <time>2020-06-11T09:13:58.001Z</time>
      </trkpt>
      <trkpt lat="49.05328" lon="7.71883">
        <ele>299</ele>
        <time>2020-06-11T09:14:08.001Z</time>
      </trkpt>
      <trkpt lat="49.05316" lon="7.71895">
        <ele>299</ele>
        <time>2020-06-11T09:14:18.001Z</time>
      </trkpt>
      <trkpt lat="49.05306" lon="7.71911">
        <ele>298</ele>
        <time>2020-06-11T09:14:28.001Z</time>
      </trkpt>
      <trkpt lat="49.05304" lon="7.71922">
        <ele>298</ele>
        <time>2020-06-11T09:14:38.001Z</time>
      </trkpt>
      <trkpt lat="49.05303" lon="7.71934">
        <ele>298</ele>
        <time>2020-06-11T09:14:48.001Z</time>
      </trkpt>
      <trkpt lat="49.05298" lon="7.71946">
        <ele>297</ele>
        <time>2020-06-11T09:14:58.001Z</time>
      </trkpt>
      <trkpt lat="49.05286" lon="7.71957">
        <ele>295</ele>
        <time>2020-06-11T09:15:08.001Z</time>
      </trkpt>
      <trkpt lat="49.05276" lon="7.71977">
        <ele>293</ele>
        <time>2020-06-11T09:15:18.001Z</time>
      </trkpt>
      <trkpt lat="49.0527" lon="7.71985">
        <ele>292</ele>
        <time>2020-06-11T09:15:28.001Z</time>
      </trkpt>
      <trkpt lat="49.05266" lon="7.71993">
        <ele>290</ele>
        <time>2020-06-11T09:15:38.001Z</time>
      </trkpt>
      <trkpt lat="49.05262" lon="7.71993">
        <ele>289</ele>
        <time>2020-06-11T09:15:48.001Z</time>
      </trkpt>
      <trkpt lat="49.05246" lon="7.72015">
        <ele>280</ele>
        <time>2020-06-11T09:15:58.001Z</time>
      </trkpt>
      <trkpt lat="49.05229" lon="7.7204">
        <ele>279</ele>
        <time>2020-06-11T09:16:08.001Z</time>
      </trkpt>
      <trkpt lat="49.05223" lon="7.72051">
        <ele>279</ele>
        <time>2020-06-11T09:16:18.001Z</time>
      </trkpt>
      <trkpt lat="49.05219" lon="7.72062">
        <ele>279</ele>
        <time>2020-06-11T09:16:28.001Z</time>
      </trkpt>
      <trkpt lat="49.05214" lon="7.72077">
        <ele>278</ele>
        <time>2020-06-11T09:16:38.001Z</time>
      </trkpt>
      <trkpt lat="49.05209" lon="7.72089">
        <ele>277</ele>
        <time>2020-06-11T09:16:48.001Z</time>
      </trkpt>
      <trkpt lat="49.05203" lon="7.72093">
        <ele>276</ele>
        <time>2020-06-11T09:16:58.001Z</time>
      </trkpt>
      <trkpt lat="49.05195" lon="7.72095">
        <ele>274</ele>
        <time>2020-06-11T09:17:08.001Z</time>
      </trkpt>
      <trkpt lat="49.05187" lon="7.72096">
        <ele>273</ele>
        <time>2020-06-11T09:18:08.001Z</time>
      </trkpt>
      <trkpt lat="49.05187" lon="7.72094">
        <ele>272</ele>
        <time>2020-06-11T09:18:46.001Z</time>
      </trkpt>
      <trkpt lat="49.05186" lon="7.7209">
        <ele>272</ele>
        <time>2020-06-11T09:18:56.001Z</time>
      </trkpt>
      <trkpt lat="49.05182" lon="7.72082">
        <ele>271</ele>
        <time>2020-06-11T09:19:06.001Z</time>
      </trkpt>
      <trkpt lat="49.05181" lon="7.7208">
        <ele>271</ele>
        <time>2020-06-11T09:19:31.001Z</time>
      </trkpt>
      <trkpt lat="49.05183" lon="7.72087">
        <ele>271</ele>
        <time>2020-06-11T09:19:41.001Z</time>
      </trkpt>
      <trkpt lat="49.05189" lon="7.7208">
        <ele>273</ele>
        <time>2020-06-11T09:19:51.001Z</time>
      </trkpt>
      <trkpt lat="49.05195" lon="7.72083">
        <ele>274</ele>
        <time>2020-06-11T09:20:01.001Z</time>
      </trkpt>
      <trkpt lat="49.0519" lon="7.72095">
        <ele>273</ele>
        <time>2020-06-11T09:20:11.001Z</time>
      </trkpt>
      <trkpt lat="49.05188" lon="7.721">
        <ele>273</ele>
        <time>2020-06-11T09:20:21.001Z</time>
      </trkpt>
      <trkpt lat="49.05195" lon="7.72102">
        <ele>274</ele>
        <time>2020-06-11T09:20:31.001Z</time>
      </trkpt>
      <trkpt lat="49.05214" lon="7.72116">
        <ele>277</ele>
        <time>2020-06-11T09:20:41.001Z</time>
      </trkpt>
      <trkpt lat="49.05223" lon="7.72127">
        <ele>278</ele>
        <time>2020-06-11T09:20:51.001Z</time>
      </trkpt>
      <trkpt lat="49.05229" lon="7.72144">
        <ele>279</ele>
        <time>2020-06-11T09:21:01.001Z</time>
      </trkpt>
      <trkpt lat="49.05237" lon="7.72167">
        <ele>278</ele>
        <time>2020-06-11T09:21:11.001Z</time>
      </trkpt>
      <trkpt lat="49.05242" lon="7.72181">
        <ele>277</ele>
        <time>2020-06-11T09:21:21.001Z</time>
      </trkpt>
      <trkpt lat="49.05249" lon="7.72197">
        <ele>273</ele>
        <time>2020-06-11T09:21:31.001Z</time>
      </trkpt>
      <trkpt lat="49.05255" lon="7.72219">
        <ele>286</ele>
        <time>2020-06-11T09:21:41.001Z</time>
      </trkpt>
      <trkpt lat="49.05258" lon="7.7223">
        <ele>283</ele>
        <time>2020-06-11T09:21:51.001Z</time>
      </trkpt>
      <trkpt lat="49.0526" lon="7.72244">
        <ele>279</ele>
        <time>2020-06-11T09:22:01.001Z</time>
      </trkpt>
      <trkpt lat="49.05265" lon="7.72262">
        <ele>274</ele>
        <time>2020-06-11T09:22:11.001Z</time>
      </trkpt>
      <trkpt lat="49.05272" lon="7.72278">
        <ele>275</ele>
        <time>2020-06-11T09:22:21.001Z</time>
      </trkpt>
      <trkpt lat="49.05283" lon="7.72294">
        <ele>275</ele>
        <time>2020-06-11T09:22:31.001Z</time>
      </trkpt>
      <trkpt lat="49.05294" lon="7.72308">
        <ele>275</ele>
        <time>2020-06-11T09:22:41.001Z</time>
      </trkpt>
      <trkpt lat="49.05302" lon="7.72318">
        <ele>274</ele>
        <time>2020-06-11T09:22:51.001Z</time>
      </trkpt>
      <trkpt lat="49.05302" lon="7.72328">
        <ele>274</ele>
        <time>2020-06-11T09:23:01.001Z</time>
      </trkpt>
      <trkpt lat="49.05307" lon="7.72322">
        <ele>274</ele>
        <time>2020-06-11T09:23:11.001Z</time>
      </trkpt>
      <trkpt lat="49.05307" lon="7.7232">
        <ele>274</ele>
        <time>2020-06-11T09:23:21.001Z</time>
      </trkpt>
      <trkpt lat="49.05305" lon="7.72321">
        <ele>274</ele>
        <time>2020-06-11T09:23:32.001Z</time>
      </trkpt>
      <trkpt lat="49.05312" lon="7.72325">
        <ele>274</ele>
        <time>2020-06-11T09:23:42.001Z</time>
      </trkpt>
      <trkpt lat="49.05327" lon="7.72338">
        <ele>270</ele>
        <time>2020-06-11T09:23:52.001Z</time>
      </trkpt>
      <trkpt lat="49.05338" lon="7.72359">
        <ele>273</ele>
        <time>2020-06-11T09:24:02.000Z</time>
      </trkpt>
      <trkpt lat="49.05343" lon="7.72379">
        <ele>272</ele>
        <time>2020-06-11T09:24:11.001Z</time>
      </trkpt>
      <trkpt lat="49.05347" lon="7.72392">
        <ele>270</ele>
        <time>2020-06-11T09:24:21.001Z</time>
      </trkpt>
      <trkpt lat="49.05349" lon="7.72405">
        <ele>267</ele>
        <time>2020-06-11T09:24:31.001Z</time>
      </trkpt>
      <trkpt lat="49.05353" lon="7.72413">
        <ele>267</ele>
        <time>2020-06-11T09:24:41.001Z</time>
      </trkpt>
      <trkpt lat="49.05362" lon="7.72422">
        <ele>262</ele>
        <time>2020-06-11T09:24:51.001Z</time>
      </trkpt>
      <trkpt lat="49.05369" lon="7.72428">
        <ele>263</ele>
        <time>2020-06-11T09:25:01.001Z</time>
      </trkpt>
      <trkpt lat="49.05373" lon="7.72436">
        <ele>263</ele>
        <time>2020-06-11T09:25:11.001Z</time>
      </trkpt>
      <trkpt lat="49.05379" lon="7.72449">
        <ele>263</ele>
        <time>2020-06-11T09:25:21.001Z</time>
      </trkpt>
      <trkpt lat="49.05391" lon="7.72461">
        <ele>262</ele>
        <time>2020-06-11T09:25:31.001Z</time>
      </trkpt>
      <trkpt lat="49.054" lon="7.72471">
        <ele>261</ele>
        <time>2020-06-11T09:25:41.001Z</time>
      </trkpt>
      <trkpt lat="49.05401" lon="7.72491">
        <ele>259</ele>
        <time>2020-06-11T09:25:51.001Z</time>
      </trkpt>
      <trkpt lat="49.05398" lon="7.72506">
        <ele>263</ele>
        <time>2020-06-11T09:26:01.001Z</time>
      </trkpt>
      <trkpt lat="49.05406" lon="7.72519">
        <ele>263</ele>
        <time>2020-06-11T09:26:11.001Z</time>
      </trkpt>
      <trkpt lat="49.05418" lon="7.72521">
        <ele>260</ele>
        <time>2020-06-11T09:26:21.001Z</time>
      </trkpt>
      <trkpt lat="49.05427" lon="7.72528">
        <ele>262</ele>
        <time>2020-06-11T09:26:31.001Z</time>
      </trkpt>
      <trkpt lat="49.05437" lon="7.72538">
        <ele>264</ele>
        <time>2020-06-11T09:26:41.001Z</time>
      </trkpt>
      <trkpt lat="49.05448" lon="7.72552">
        <ele>264</ele>
        <time>2020-06-11T09:26:51.001Z</time>
      </trkpt>
      <trkpt lat="49.05456" lon="7.72567">
        <ele>265</ele>
        <time>2020-06-11T09:27:01.001Z</time>
      </trkpt>
      <trkpt lat="49.05464" lon="7.7258">
        <ele>265</ele>
        <time>2020-06-11T09:27:11.001Z</time>
      </trkpt>
      <trkpt lat="49.05463" lon="7.72597">
        <ele>263</ele>
        <time>2020-06-11T09:27:21.001Z</time>
      </trkpt>
      <trkpt lat="49.05462" lon="7.72619">
        <ele>263</ele>
        <time>2020-06-11T09:27:31.001Z</time>
      </trkpt>
      <trkpt lat="49.05466" lon="7.72638">
        <ele>262</ele>
        <time>2020-06-11T09:27:41.001Z</time>
      </trkpt>
      <trkpt lat="49.05476" lon="7.72652">
        <ele>260</ele>
        <time>2020-06-11T09:27:51.001Z</time>
      </trkpt>
      <trkpt lat="49.05483" lon="7.72669">
        <ele>260</ele>
        <time>2020-06-11T09:28:01.001Z</time>
      </trkpt>
      <trkpt lat="49.05488" lon="7.72681">
        <ele>260</ele>
        <time>2020-06-11T09:28:11.001Z</time>
      </trkpt>
      <trkpt lat="49.05499" lon="7.7269">
        <ele>261</ele>
        <time>2020-06-11T09:28:21.001Z</time>
      </trkpt>
      <trkpt lat="49.05512" lon="7.72709">
        <ele>255</ele>
        <time>2020-06-11T09:28:31.001Z</time>
      </trkpt>
      <trkpt lat="49.05518" lon="7.72733">
        <ele>256</ele>
        <time>2020-06-11T09:28:41.001Z</time>
      </trkpt>
      <trkpt lat="49.05522" lon="7.72758">
        <ele>255</ele>
        <time>2020-06-11T09:28:51.001Z</time>
      </trkpt>
      <trkpt lat="49.05527" lon="7.72783">
        <ele>254</ele>
        <time>2020-06-11T09:29:01.001Z</time>
      </trkpt>
      <trkpt lat="49.0553" lon="7.72801">
        <ele>253</ele>
        <time>2020-06-11T09:29:11.001Z</time>
      </trkpt>
      <trkpt lat="49.05534" lon="7.72811">
        <ele>253</ele>
        <time>2020-06-11T09:29:21.001Z</time>
      </trkpt>
      <trkpt lat="49.05533" lon="7.72812">
        <ele>253</ele>
        <time>2020-06-11T09:29:31.001Z</time>
      </trkpt>
      <trkpt lat="49.05534" lon="7.72813">
        <ele>253</ele>
        <time>2020-06-11T09:29:48.001Z</time>
      </trkpt>
      <trkpt lat="49.05537" lon="7.72818">
        <ele>253</ele>
        <time>2020-06-11T09:29:58.001Z</time>
      </trkpt>
      <trkpt lat="49.05545" lon="7.72823">
        <ele>252</ele>
        <time>2020-06-11T09:30:08.001Z</time>
      </trkpt>
      <trkpt lat="49.05553" lon="7.72828">
        <ele>251</ele>
        <time>2020-06-11T09:30:18.001Z</time>
      </trkpt>
      <trkpt lat="49.05554" lon="7.72829">
        <ele>251</ele>
        <time>2020-06-11T09:30:28.001Z</time>
      </trkpt>
      <trkpt lat="49.05557" lon="7.72828">
        <ele>250</ele>
        <time>2020-06-11T09:30:38.001Z</time>
      </trkpt>
      <trkpt lat="49.05565" lon="7.72829">
        <ele>249</ele>
        <time>2020-06-11T09:30:48.001Z</time>
      </trkpt>
      <trkpt lat="49.05573" lon="7.72832">
        <ele>247</ele>
        <time>2020-06-11T09:30:58.001Z</time>
      </trkpt>
      <trkpt lat="49.05574" lon="7.72832">
        <ele>247</ele>
        <time>2020-06-11T09:31:08.001Z</time>
      </trkpt>
      <trkpt lat="49.05579" lon="7.72835">
        <ele>245</ele>
        <time>2020-06-11T09:31:21.001Z</time>
      </trkpt>
      <trkpt lat="49.05584" lon="7.72835">
        <ele>245</ele>
        <time>2020-06-11T09:31:31.001Z</time>
      </trkpt>
      <trkpt lat="49.05595" lon="7.72842">
        <ele>253</ele>
        <time>2020-06-11T09:31:41.001Z</time>
      </trkpt>
      <trkpt lat="49.05602" lon="7.72855">
        <ele>257</ele>
        <time>2020-06-11T09:31:51.001Z</time>
      </trkpt>
      <trkpt lat="49.0561" lon="7.72869">
        <ele>259</ele>
        <time>2020-06-11T09:32:01.001Z</time>
      </trkpt>
      <trkpt lat="49.05622" lon="7.72878">
        <ele>262</ele>
        <time>2020-06-11T09:32:11.001Z</time>
      </trkpt>
      <trkpt lat="49.05638" lon="7.72892">
        <ele>265</ele>
        <time>2020-06-11T09:32:21.001Z</time>
      </trkpt>
      <trkpt lat="49.05647" lon="7.72916">
        <ele>268</ele>
        <time>2020-06-11T09:32:31.001Z</time>
      </trkpt>
      <trkpt lat="49.05655" lon="7.72934">
        <ele>263</ele>
        <time>2020-06-11T09:32:41.001Z</time>
      </trkpt>
      <trkpt lat="49.05663" lon="7.72952">
        <ele>259</ele>
        <time>2020-06-11T09:32:51.001Z</time>
      </trkpt>
      <trkpt lat="49.0567" lon="7.72968">
        <ele>276</ele>
        <time>2020-06-11T09:33:01.001Z</time>
      </trkpt>
      <trkpt lat="49.05675" lon="7.7298">
        <ele>273</ele>
        <time>2020-06-11T09:33:11.001Z</time>
      </trkpt>
      <trkpt lat="49.0568" lon="7.72993">
        <ele>270</ele>
        <time>2020-06-11T09:33:21.001Z</time>
      </trkpt>
      <trkpt lat="49.05687" lon="7.73011">
        <ele>264</ele>
        <time>2020-06-11T09:33:31.001Z</time>
      </trkpt>
      <trkpt lat="49.05698" lon="7.73026">
        <ele>266</ele>
        <time>2020-06-11T09:33:41.001Z</time>
      </trkpt>
      <trkpt lat="49.05708" lon="7.73041">
        <ele>266</ele>
        <time>2020-06-11T09:33:51.001Z</time>
      </trkpt>
      <trkpt lat="49.05716" lon="7.73059">
        <ele>267</ele>
        <time>2020-06-11T09:34:01.001Z</time>
      </trkpt>
      <trkpt lat="49.05728" lon="7.73074">
        <ele>269</ele>
        <time>2020-06-11T09:34:11.001Z</time>
      </trkpt>
      <trkpt lat="49.05733" lon="7.73092">
        <ele>263</ele>
        <time>2020-06-11T09:34:21.001Z</time>
      </trkpt>
      <trkpt lat="49.05736" lon="7.7311">
        <ele>260</ele>
        <time>2020-06-11T09:34:31.001Z</time>
      </trkpt>
      <trkpt lat="49.05737" lon="7.73127">
        <ele>258</ele>
        <time>2020-06-11T09:34:41.001Z</time>
      </trkpt>
      <trkpt lat="49.05741" lon="7.73143">
        <ele>257</ele>
        <time>2020-06-11T09:34:51.001Z</time>
      </trkpt>
      <trkpt lat="49.05744" lon="7.73156">
        <ele>258</ele>
        <time>2020-06-11T09:35:01.001Z</time>
      </trkpt>
      <trkpt lat="49.0574" lon="7.73164">
        <ele>258</ele>
        <time>2020-06-11T09:35:11.001Z</time>
      </trkpt>
      <trkpt lat="49.05743" lon="7.73187">
        <ele>251</ele>
        <time>2020-06-11T09:35:21.001Z</time>
      </trkpt>
      <trkpt lat="49.05751" lon="7.73199">
        <ele>264</ele>
        <time>2020-06-11T09:35:31.001Z</time>
      </trkpt>
      <trkpt lat="49.05762" lon="7.7321">
        <ele>264</ele>
        <time>2020-06-11T09:35:41.001Z</time>
      </trkpt>
      <trkpt lat="49.05774" lon="7.73225">
        <ele>264</ele>
        <time>2020-06-11T09:35:51.001Z</time>
      </trkpt>
      <trkpt lat="49.05782" lon="7.73242">
        <ele>263</ele>
        <time>2020-06-11T09:36:01.001Z</time>
      </trkpt>
      <trkpt lat="49.05785" lon="7.73249">
        <ele>264</ele>
        <time>2020-06-11T09:36:14.001Z</time>
      </trkpt>
      <trkpt lat="49.05783" lon="7.73254">
        <ele>253</ele>
        <time>2020-06-11T09:36:24.001Z</time>
      </trkpt>
      <trkpt lat="49.05783" lon="7.73269">
        <ele>252</ele>
        <time>2020-06-11T09:36:34.001Z</time>
      </trkpt>
      <trkpt lat="49.05785" lon="7.73285">
        <ele>251</ele>
        <time>2020-06-11T09:36:44.001Z</time>
      </trkpt>
      <trkpt lat="49.05796" lon="7.73299">
        <ele>251</ele>
        <time>2020-06-11T09:36:54.001Z</time>
      </trkpt>
      <trkpt lat="49.05808" lon="7.7332">
        <ele>251</ele>
        <time>2020-06-11T09:37:04.001Z</time>
      </trkpt>
      <trkpt lat="49.05822" lon="7.73339">
        <ele>246</ele>
        <time>2020-06-11T09:37:14.001Z</time>
      </trkpt>
      <trkpt lat="49.05826" lon="7.73357">
        <ele>243</ele>
        <time>2020-06-11T09:37:24.001Z</time>
      </trkpt>
      <trkpt lat="49.05828" lon="7.73375">
        <ele>241</ele>
        <time>2020-06-11T09:37:34.001Z</time>
      </trkpt>
      <trkpt lat="49.05833" lon="7.73397">
        <ele>239</ele>
        <time>2020-06-11T09:37:44.001Z</time>
      </trkpt>
      <trkpt lat="49.05838" lon="7.73417">
        <ele>237</ele>
        <time>2020-06-11T09:37:54.001Z</time>
      </trkpt>
      <trkpt lat="49.05846" lon="7.73436">
        <ele>237</ele>
        <time>2020-06-11T09:38:04.001Z</time>
      </trkpt>
      <trkpt lat="49.05853" lon="7.73454">
        <ele>237</ele>
        <time>2020-06-11T09:38:14.001Z</time>
      </trkpt>
      <trkpt lat="49.05858" lon="7.73468">
        <ele>236</ele>
        <time>2020-06-11T09:38:24.001Z</time>
      </trkpt>
      <trkpt lat="49.05859" lon="7.73475">
        <ele>235</ele>
        <time>2020-06-11T09:38:34.001Z</time>
      </trkpt>
      <trkpt lat="49.05857" lon="7.73495">
        <ele>233</ele>
        <time>2020-06-11T09:38:44.001Z</time>
      </trkpt>
      <trkpt lat="49.0585" lon="7.73512">
        <ele>230</ele>
        <time>2020-06-11T09:38:54.001Z</time>
      </trkpt>
      <trkpt lat="49.0584" lon="7.73523">
        <ele>230</ele>
        <time>2020-06-11T09:39:04.001Z</time>
      </trkpt>
      <trkpt lat="49.05831" lon="7.73535">
        <ele>236</ele>
        <time>2020-06-11T09:39:14.001Z</time>
      </trkpt>
      <trkpt lat="49.05824" lon="7.73548">
        <ele>238</ele>
        <time>2020-06-11T09:39:24.001Z</time>
      </trkpt>
      <trkpt lat="49.05823" lon="7.73563">
        <ele>238</ele>
        <time>2020-06-11T09:39:34.001Z</time>
      </trkpt>
      <trkpt lat="49.05827" lon="7.73569">
        <ele>237</ele>
        <time>2020-06-11T09:39:44.001Z</time>
      </trkpt>
      <trkpt lat="49.05829" lon="7.73566">
        <ele>237</ele>
        <time>2020-06-11T09:40:00.000Z</time>
      </trkpt>
      <trkpt lat="49.05835" lon="7.73572">
        <ele>233</ele>
        <time>2020-06-11T09:40:09.001Z</time>
      </trkpt>
      <trkpt lat="49.05846" lon="7.73587">
        <ele>234</ele>
        <time>2020-06-11T09:40:19.001Z</time>
      </trkpt>
      <trkpt lat="49.05851" lon="7.73602">
        <ele>234</ele>
        <time>2020-06-11T09:40:29.001Z</time>
      </trkpt>
      <trkpt lat="49.05858" lon="7.73624">
        <ele>235</ele>
        <time>2020-06-11T09:40:39.001Z</time>
      </trkpt>
      <trkpt lat="49.05863" lon="7.73641">
        <ele>236</ele>
        <time>2020-06-11T09:40:49.001Z</time>
      </trkpt>
      <trkpt lat="49.05866" lon="7.7365">
        <ele>236</ele>
        <time>2020-06-11T09:40:59.001Z</time>
      </trkpt>
      <trkpt lat="49.05863" lon="7.73645">
        <ele>236</ele>
        <time>2020-06-11T09:42:26.001Z</time>
      </trkpt>
      <trkpt lat="49.05863" lon="7.73651">
        <ele>237</ele>
        <time>2020-06-11T09:42:36.001Z</time>
      </trkpt>
      <trkpt lat="49.05865" lon="7.73661">
        <ele>237</ele>
        <time>2020-06-11T09:42:46.001Z</time>
      </trkpt>
      <trkpt lat="49.05867" lon="7.73668">
        <ele>241</ele>
        <time>2020-06-11T09:42:56.001Z</time>
      </trkpt>
      <trkpt lat="49.05872" lon="7.73676">
        <ele>240</ele>
        <time>2020-06-11T09:43:06.001Z</time>
      </trkpt>
      <trkpt lat="49.05876" lon="7.73691">
        <ele>240</ele>
        <time>2020-06-11T09:43:16.000Z</time>
      </trkpt>
      <trkpt lat="49.05878" lon="7.73706">
        <ele>240</ele>
        <time>2020-06-11T09:43:25.001Z</time>
      </trkpt>
      <trkpt lat="49.0588" lon="7.7372">
        <ele>240</ele>
        <time>2020-06-11T09:43:35.001Z</time>
      </trkpt>
      <trkpt lat="49.05885" lon="7.73731">
        <ele>239</ele>
        <time>2020-06-11T09:43:45.001Z</time>
      </trkpt>
      <trkpt lat="49.05892" lon="7.7374">
        <ele>237</ele>
        <time>2020-06-11T09:43:55.001Z</time>
      </trkpt>
      <trkpt lat="49.05894" lon="7.73743">
        <ele>236</ele>
        <time>2020-06-11T09:44:05.001Z</time>
      </trkpt>
      <trkpt lat="49.05893" lon="7.73746">
        <ele>236</ele>
        <time>2020-06-11T09:44:30.001Z</time>
      </trkpt>
      <trkpt lat="49.05895" lon="7.73751">
        <ele>240</ele>
        <time>2020-06-11T09:44:40.001Z</time>
      </trkpt>
      <trkpt lat="49.05893" lon="7.73765">
        <ele>243</ele>
        <time>2020-06-11T09:44:50.001Z</time>
      </trkpt>
      <trkpt lat="49.05892" lon="7.73779">
        <ele>245</ele>
        <time>2020-06-11T09:45:00.000Z</time>
      </trkpt>
      <trkpt lat="49.05894" lon="7.73792">
        <ele>246</ele>
        <time>2020-06-11T09:45:09.001Z</time>
      </trkpt>
      <trkpt lat="49.05893" lon="7.73804">
        <ele>247</ele>
        <time>2020-06-11T09:45:19.001Z</time>
      </trkpt>
      <trkpt lat="49.05892" lon="7.73816">
        <ele>247</ele>
        <time>2020-06-11T09:45:29.001Z</time>
      </trkpt>
      <trkpt lat="49.05894" lon="7.73829">
        <ele>246</ele>
        <time>2020-06-11T09:45:39.001Z</time>
      </trkpt>
      <trkpt lat="49.05893" lon="7.73831">
        <ele>246</ele>
        <time>2020-06-11T09:45:49.001Z</time>
      </trkpt>
      <trkpt lat="49.05886" lon="7.73835">
        <ele>254</ele>
        <time>2020-06-11T09:46:14.001Z</time>
      </trkpt>
      <trkpt lat="49.05887" lon="7.73847">
        <ele>255</ele>
        <time>2020-06-11T09:46:24.001Z</time>
      </trkpt>
      <trkpt lat="49.05889" lon="7.73862">
        <ele>256</ele>
        <time>2020-06-11T09:46:34.001Z</time>
      </trkpt>
      <trkpt lat="49.05889" lon="7.73873">
        <ele>257</ele>
        <time>2020-06-11T09:46:44.001Z</time>
      </trkpt>
      <trkpt lat="49.05884" lon="7.73886">
        <ele>259</ele>
        <time>2020-06-11T09:46:54.001Z</time>
      </trkpt>
      <trkpt lat="49.05885" lon="7.73898">
        <ele>259</ele>
        <time>2020-06-11T09:47:04.001Z</time>
      </trkpt>
      <trkpt lat="49.05886" lon="7.73908">
        <ele>259</ele>
        <time>2020-06-11T09:47:14.001Z</time>
      </trkpt>
      <trkpt lat="49.05889" lon="7.73922">
        <ele>262</ele>
        <time>2020-06-11T09:47:24.001Z</time>
      </trkpt>
      <trkpt lat="49.05894" lon="7.73939">
        <ele>262</ele>
        <time>2020-06-11T09:47:34.001Z</time>
      </trkpt>
      <trkpt lat="49.05893" lon="7.73952">
        <ele>264</ele>
        <time>2020-06-11T09:47:44.001Z</time>
      </trkpt>
      <trkpt lat="49.0589" lon="7.73961">
        <ele>265</ele>
        <time>2020-06-11T09:47:54.001Z</time>
      </trkpt>
      <trkpt lat="49.05886" lon="7.73977">
        <ele>266</ele>
        <time>2020-06-11T09:48:04.001Z</time>
      </trkpt>
      <trkpt lat="49.05885" lon="7.73992">
        <ele>266</ele>
        <time>2020-06-11T09:48:14.001Z</time>
      </trkpt>
      <trkpt lat="49.0589" lon="7.74006">
        <ele>268</ele>
        <time>2020-06-11T09:48:24.001Z</time>
      </trkpt>
      <trkpt lat="49.05894" lon="7.74024">
        <ele>269</ele>
        <time>2020-06-11T09:48:34.001Z</time>
      </trkpt>
      <trkpt lat="49.05897" lon="7.74041">
        <ele>270</ele>
        <time>2020-06-11T09:48:44.001Z</time>
      </trkpt>
      <trkpt lat="49.05901" lon="7.74055">
        <ele>269</ele>
        <time>2020-06-11T09:48:54.001Z</time>
      </trkpt>
      <trkpt lat="49.05898" lon="7.74063">
        <ele>269</ele>
        <time>2020-06-11T09:50:06.001Z</time>
      </trkpt>
      <trkpt lat="49.05899" lon="7.74063">
        <ele>269</ele>
        <time>2020-06-11T09:50:51.001Z</time>
      </trkpt>
      <trkpt lat="49.05905" lon="7.74069">
        <ele>267</ele>
        <time>2020-06-11T09:51:01.001Z</time>
      </trkpt>
      <trkpt lat="49.05911" lon="7.74084">
        <ele>263</ele>
        <time>2020-06-11T09:51:11.001Z</time>
      </trkpt>
      <trkpt lat="49.05912" lon="7.74096">
        <ele>266</ele>
        <time>2020-06-11T09:51:21.001Z</time>
      </trkpt>
      <trkpt lat="49.05909" lon="7.74121">
        <ele>270</ele>
        <time>2020-06-11T09:51:31.001Z</time>
      </trkpt>
      <trkpt lat="49.05906" lon="7.74139">
        <ele>270</ele>
        <time>2020-06-11T09:51:41.001Z</time>
      </trkpt>
      <trkpt lat="49.05905" lon="7.74156">
        <ele>267</ele>
        <time>2020-06-11T09:51:51.001Z</time>
      </trkpt>
      <trkpt lat="49.05904" lon="7.74165">
        <ele>266</ele>
        <time>2020-06-11T09:52:01.001Z</time>
      </trkpt>
      <trkpt lat="49.05904" lon="7.74169">
        <ele>264</ele>
        <time>2020-06-11T09:52:11.001Z</time>
      </trkpt>
      <trkpt lat="49.05907" lon="7.74176">
        <ele>263</ele>
        <time>2020-06-11T09:52:21.001Z</time>
      </trkpt>
      <trkpt lat="49.05915" lon="7.74187">
        <ele>264</ele>
        <time>2020-06-11T09:52:31.001Z</time>
      </trkpt>
      <trkpt lat="49.05931" lon="7.74207">
        <ele>244</ele>
        <time>2020-06-11T09:52:41.001Z</time>
      </trkpt>
      <trkpt lat="49.05939" lon="7.74213">
        <ele>242</ele>
        <time>2020-06-11T09:52:51.001Z</time>
      </trkpt>
      <trkpt lat="49.0595" lon="7.74219">
        <ele>241</ele>
        <time>2020-06-11T09:53:01.001Z</time>
      </trkpt>
      <trkpt lat="49.05955" lon="7.74224">
        <ele>240</ele>
        <time>2020-06-11T09:53:11.001Z</time>
      </trkpt>
      <trkpt lat="49.05956" lon="7.74224">
        <ele>239</ele>
        <time>2020-06-11T09:53:25.001Z</time>
      </trkpt>
      <trkpt lat="49.05961" lon="7.74228">
        <ele>238</ele>
        <time>2020-06-11T09:53:35.001Z</time>
      </trkpt>
      <trkpt lat="49.05968" lon="7.74233">
        <ele>237</ele>
        <time>2020-06-11T09:53:45.001Z</time>
      </trkpt>
      <trkpt lat="49.05975" lon="7.74238">
        <ele>235</ele>
        <time>2020-06-11T09:53:55.001Z</time>
      </trkpt>
      <trkpt lat="49.05982" lon="7.74243">
        <ele>233</ele>
        <time>2020-06-11T09:54:05.001Z</time>
      </trkpt>
      <trkpt lat="49.05993" lon="7.74248">
        <ele>228</ele>
        <time>2020-06-11T09:54:15.001Z</time>
      </trkpt>
      <trkpt lat="49.06009" lon="7.74254">
        <ele>226</ele>
        <time>2020-06-11T09:54:25.001Z</time>
      </trkpt>
      <trkpt lat="49.06016" lon="7.74272">
        <ele>228</ele>
        <time>2020-06-11T09:54:35.001Z</time>
      </trkpt>
      <trkpt lat="49.06024" lon="7.74293">
        <ele>228</ele>
        <time>2020-06-11T09:54:45.001Z</time>
      </trkpt>
      <trkpt lat="49.06031" lon="7.74313">
        <ele>228</ele>
        <time>2020-06-11T09:54:55.001Z</time>
      </trkpt>
      <trkpt lat="49.06036" lon="7.74332">
        <ele>228</ele>
        <time>2020-06-11T09:55:05.001Z</time>
      </trkpt>
      <trkpt lat="49.06039" lon="7.74352">
        <ele>226</ele>
        <time>2020-06-11T09:55:15.001Z</time>
      </trkpt>
      <trkpt lat="49.0604" lon="7.74371">
        <ele>226</ele>
        <time>2020-06-11T09:55:25.001Z</time>
      </trkpt>
      <trkpt lat="49.06038" lon="7.74388">
        <ele>225</ele>
        <time>2020-06-11T09:55:35.001Z</time>
      </trkpt>
      <trkpt lat="49.06041" lon="7.74403">
        <ele>225</ele>
        <time>2020-06-11T09:55:45.001Z</time>
      </trkpt>
      <trkpt lat="49.06044" lon="7.74419">
        <ele>223</ele>
        <time>2020-06-11T09:55:55.001Z</time>
      </trkpt>
      <trkpt lat="49.06048" lon="7.74434">
        <ele>223</ele>
        <time>2020-06-11T09:56:05.001Z</time>
      </trkpt>
      <trkpt lat="49.06052" lon="7.74452">
        <ele>223</ele>
        <time>2020-06-11T09:56:15.001Z</time>
      </trkpt>
      <trkpt lat="49.06058" lon="7.74466">
        <ele>223</ele>
        <time>2020-06-11T09:56:25.001Z</time>
      </trkpt>
      <trkpt lat="49.06065" lon="7.74476">
        <ele>223</ele>
        <time>2020-06-11T09:56:35.001Z</time>
      </trkpt>
      <trkpt lat="49.06072" lon="7.74478">
        <ele>222</ele>
        <time>2020-06-11T09:56:45.001Z</time>
      </trkpt>
      <trkpt lat="49.06069" lon="7.74479">
        <ele>222</ele>
        <time>2020-06-11T09:57:12.001Z</time>
      </trkpt>
      <trkpt lat="49.06066" lon="7.74491">
        <ele>222</ele>
        <time>2020-06-11T09:57:22.001Z</time>
      </trkpt>
      <trkpt lat="49.0607" lon="7.74503">
        <ele>220</ele>
        <time>2020-06-11T09:57:32.001Z</time>
      </trkpt>
      <trkpt lat="49.06072" lon="7.7453">
        <ele>220</ele>
        <time>2020-06-11T09:57:42.001Z</time>
      </trkpt>
      <trkpt lat="49.06065" lon="7.74551">
        <ele>219</ele>
        <time>2020-06-11T09:57:52.001Z</time>
      </trkpt>
      <trkpt lat="49.06052" lon="7.7457">
        <ele>219</ele>
        <time>2020-06-11T09:58:02.000Z</time>
      </trkpt>
      <trkpt lat="49.06046" lon="7.74581">
        <ele>219</ele>
        <time>2020-06-11T09:58:11.001Z</time>
      </trkpt>
      <trkpt lat="49.06049" lon="7.7458">
        <ele>219</ele>
        <time>2020-06-11T09:58:21.001Z</time>
      </trkpt>
      <trkpt lat="49.06046" lon="7.74583">
        <ele>219</ele>
        <time>2020-06-11T09:59:21.001Z</time>
      </trkpt>
      <trkpt lat="49.06043" lon="7.74583">
        <ele>219</ele>
        <time>2020-06-11T10:01:12.001Z</time>
      </trkpt>
      <trkpt lat="49.06039" lon="7.74586">
        <ele>216</ele>
        <time>2020-06-11T10:01:22.001Z</time>
      </trkpt>
      <trkpt lat="49.06037" lon="7.74584">
        <ele>217</ele>
        <time>2020-06-11T10:01:32.001Z</time>
      </trkpt>
      <trkpt lat="49.06033" lon="7.74584">
        <ele>217</ele>
        <time>2020-06-11T10:01:42.001Z</time>
      </trkpt>
      <trkpt lat="49.06029" lon="7.74584">
        <ele>217</ele>
        <time>2020-06-11T10:01:52.001Z</time>
      </trkpt>
      <trkpt lat="49.06032" lon="7.74591">
        <ele>217</ele>
        <time>2020-06-11T10:02:02.000Z</time>
      </trkpt>
      <trkpt lat="49.06033" lon="7.74594">
        <ele>217</ele>
        <time>2020-06-11T10:02:12.001Z</time>
      </trkpt>
      <trkpt lat="49.06033" lon="7.74592">
        <ele>217</ele>
        <time>2020-06-11T10:02:59.001Z</time>
      </trkpt>
      <trkpt lat="49.06031" lon="7.74592">
        <ele>217</ele>
        <time>2020-06-11T10:03:09.001Z</time>
      </trkpt>
      <trkpt lat="49.06028" lon="7.74588">
        <ele>217</ele>
        <time>2020-06-11T10:03:19.001Z</time>
      </trkpt>
      <trkpt lat="49.06022" lon="7.74582">
        <ele>220</ele>
        <time>2020-06-11T10:03:29.001Z</time>
      </trkpt>
      <trkpt lat="49.06021" lon="7.7458">
        <ele>220</ele>
        <time>2020-06-11T10:03:39.001Z</time>
      </trkpt>
      <trkpt lat="49.06026" lon="7.74585">
        <ele>217</ele>
        <time>2020-06-11T10:03:49.001Z</time>
      </trkpt>
      <trkpt lat="49.0603" lon="7.74593">
        <ele>217</ele>
        <time>2020-06-11T10:03:59.001Z</time>
      </trkpt>
      <trkpt lat="49.06035" lon="7.74592">
        <ele>217</ele>
        <time>2020-06-11T10:04:09.001Z</time>
      </trkpt>
      <trkpt lat="49.06033" lon="7.74586">
        <ele>217</ele>
        <time>2020-06-11T10:06:57.001Z</time>
      </trkpt>
      <trkpt lat="49.06031" lon="7.74588">
        <ele>217</ele>
        <time>2020-06-11T10:07:07.001Z</time>
      </trkpt>
      <trkpt lat="49.06029" lon="7.7459">
        <ele>217</ele>
        <time>2020-06-11T10:07:24.001Z</time>
      </trkpt>
      <trkpt lat="49.06047" lon="7.74592">
        <ele>216</ele>
        <time>2020-06-11T10:32:26.951Z</time>
      </trkpt>
      <trkpt lat="49.06028" lon="7.74593">
        <ele>217</ele>
        <time>2020-06-11T10:32:36.000Z</time>
      </trkpt>
      <trkpt lat="49.0603" lon="7.7459">
        <ele>217</ele>
        <time>2020-06-11T10:38:02.000Z</time>
      </trkpt>
      <trkpt lat="49.06032" lon="7.74586">
        <ele>217</ele>
        <time>2020-06-11T10:38:12.000Z</time>
      </trkpt>
      <trkpt lat="49.06039" lon="7.74574">
        <ele>219</ele>
        <time>2020-06-11T10:38:22.000Z</time>
      </trkpt>
      <trkpt lat="49.06039" lon="7.74571">
        <ele>219</ele>
        <time>2020-06-11T10:38:57.000Z</time>
      </trkpt>
      <trkpt lat="49.06039" lon="7.74572">
        <ele>219</ele>
        <time>2020-06-11T10:39:13.000Z</time>
      </trkpt>
      <trkpt lat="49.0604" lon="7.74578">
        <ele>219</ele>
        <time>2020-06-11T10:39:23.000Z</time>
      </trkpt>
      <trkpt lat="49.0604" lon="7.74579">
        <ele>219</ele>
        <time>2020-06-11T10:39:33.000Z</time>
      </trkpt>
      <trkpt lat="49.06036" lon="7.74578">
        <ele>219</ele>
        <time>2020-06-11T10:39:43.000Z</time>
      </trkpt>
      <trkpt lat="49.06031" lon="7.74572">
        <ele>220</ele>
        <time>2020-06-11T10:39:53.000Z</time>
      </trkpt>
      <trkpt lat="49.06023" lon="7.74564">
        <ele>220</ele>
        <time>2020-06-11T10:40:03.000Z</time>
      </trkpt>
      <trkpt lat="49.06013" lon="7.74566">
        <ele>220</ele>
        <time>2020-06-11T10:40:13.000Z</time>
      </trkpt>
      <trkpt lat="49.06003" lon="7.74569">
        <ele>220</ele>
        <time>2020-06-11T10:40:23.000Z</time>
      </trkpt>
      <trkpt lat="49.05993" lon="7.74572">
        <ele>222</ele>
        <time>2020-06-11T10:40:33.000Z</time>
      </trkpt>
      <trkpt lat="49.05975" lon="7.74579">
        <ele>224</ele>
        <time>2020-06-11T10:40:43.000Z</time>
      </trkpt>
      <trkpt lat="49.05962" lon="7.74583">
        <ele>226</ele>
        <time>2020-06-11T10:40:53.000Z</time>
      </trkpt>
      <trkpt lat="49.05952" lon="7.7459">
        <ele>222</ele>
        <time>2020-06-11T10:41:03.000Z</time>
      </trkpt>
      <trkpt lat="49.05948" lon="7.74593">
        <ele>223</ele>
        <time>2020-06-11T10:41:13.000Z</time>
      </trkpt>
      <trkpt lat="49.05949" lon="7.74593">
        <ele>223</ele>
        <time>2020-06-11T10:42:15.000Z</time>
      </trkpt>
      <trkpt lat="49.0595" lon="7.74591">
        <ele>223</ele>
        <time>2020-06-11T10:42:25.000Z</time>
      </trkpt>
      <trkpt lat="49.05946" lon="7.74589">
        <ele>223</ele>
        <time>2020-06-11T10:42:35.000Z</time>
      </trkpt>
      <trkpt lat="49.05939" lon="7.74591">
        <ele>224</ele>
        <time>2020-06-11T10:42:45.000Z</time>
      </trkpt>
      <trkpt lat="49.05934" lon="7.74599">
        <ele>224</ele>
        <time>2020-06-11T10:42:55.000Z</time>
      </trkpt>
      <trkpt lat="49.0593" lon="7.74606">
        <ele>223</ele>
        <time>2020-06-11T10:43:05.000Z</time>
      </trkpt>
      <trkpt lat="49.05923" lon="7.74611">
        <ele>223</ele>
        <time>2020-06-11T10:43:15.000Z</time>
      </trkpt>
      <trkpt lat="49.05916" lon="7.74616">
        <ele>232</ele>
        <time>2020-06-11T10:43:25.000Z</time>
      </trkpt>
      <trkpt lat="49.05913" lon="7.74616">
        <ele>232</ele>
        <time>2020-06-11T10:43:35.000Z</time>
      </trkpt>
      <trkpt lat="49.05911" lon="7.74617">
        <ele>232</ele>
        <time>2020-06-11T10:44:06.000Z</time>
      </trkpt>
      <trkpt lat="49.0591" lon="7.74618">
        <ele>232</ele>
        <time>2020-06-11T10:44:27.000Z</time>
      </trkpt>
      <trkpt lat="49.05903" lon="7.7462">
        <ele>233</ele>
        <time>2020-06-11T10:44:37.000Z</time>
      </trkpt>
      <trkpt lat="49.05892" lon="7.74627">
        <ele>234</ele>
        <time>2020-06-11T10:44:47.000Z</time>
      </trkpt>
      <trkpt lat="49.05885" lon="7.74634">
        <ele>234</ele>
        <time>2020-06-11T10:44:57.000Z</time>
      </trkpt>
      <trkpt lat="49.05885" lon="7.74636">
        <ele>234</ele>
        <time>2020-06-11T10:45:07.000Z</time>
      </trkpt>
      <trkpt lat="49.05883" lon="7.74639">
        <ele>235</ele>
        <time>2020-06-11T10:45:17.000Z</time>
      </trkpt>
      <trkpt lat="49.05877" lon="7.74651">
        <ele>236</ele>
        <time>2020-06-11T10:45:27.000Z</time>
      </trkpt>
      <trkpt lat="49.05872" lon="7.74663">
        <ele>237</ele>
        <time>2020-06-11T10:45:37.000Z</time>
      </trkpt>
      <trkpt lat="49.05866" lon="7.74676">
        <ele>237</ele>
        <time>2020-06-11T10:45:47.000Z</time>
      </trkpt>
      <trkpt lat="49.05861" lon="7.74684">
        <ele>238</ele>
        <time>2020-06-11T10:45:57.000Z</time>
      </trkpt>
      <trkpt lat="49.05857" lon="7.74692">
        <ele>238</ele>
        <time>2020-06-11T10:46:07.000Z</time>
      </trkpt>
      <trkpt lat="49.05853" lon="7.74703">
        <ele>238</ele>
        <time>2020-06-11T10:46:17.000Z</time>
      </trkpt>
      <trkpt lat="49.05848" lon="7.7471">
        <ele>238</ele>
        <time>2020-06-11T10:46:27.000Z</time>
      </trkpt>
      <trkpt lat="49.05844" lon="7.74714">
        <ele>238</ele>
        <time>2020-06-11T10:46:37.000Z</time>
      </trkpt>
      <trkpt lat="49.0584" lon="7.7471">
        <ele>239</ele>
        <time>2020-06-11T10:46:47.000Z</time>
      </trkpt>
      <trkpt lat="49.05838" lon="7.74696">
        <ele>241</ele>
        <time>2020-06-11T10:46:57.000Z</time>
      </trkpt>
      <trkpt lat="49.05838" lon="7.74682">
        <ele>244</ele>
        <time>2020-06-11T10:47:07.000Z</time>
      </trkpt>
      <trkpt lat="49.05839" lon="7.74668">
        <ele>249</ele>
        <time>2020-06-11T10:47:17.000Z</time>
      </trkpt>
      <trkpt lat="49.05839" lon="7.74652">
        <ele>245</ele>
        <time>2020-06-11T10:47:27.000Z</time>
      </trkpt>
      <trkpt lat="49.05838" lon="7.74634">
        <ele>241</ele>
        <time>2020-06-11T10:47:37.000Z</time>
      </trkpt>
      <trkpt lat="49.05837" lon="7.74611">
        <ele>240</ele>
        <time>2020-06-11T10:47:47.000Z</time>
      </trkpt>
      <trkpt lat="49.05839" lon="7.74595">
        <ele>241</ele>
        <time>2020-06-11T10:47:57.000Z</time>
      </trkpt>
      <trkpt lat="49.05841" lon="7.74581">
        <ele>242</ele>
        <time>2020-06-11T10:48:07.000Z</time>
      </trkpt>
      <trkpt lat="49.05842" lon="7.74573">
        <ele>241</ele>
        <time>2020-06-11T10:48:17.000Z</time>
      </trkpt>
      <trkpt lat="49.05841" lon="7.74562">
        <ele>240</ele>
        <time>2020-06-11T10:48:27.000Z</time>
      </trkpt>
      <trkpt lat="49.05841" lon="7.74544">
        <ele>239</ele>
        <time>2020-06-11T10:48:37.000Z</time>
      </trkpt>
      <trkpt lat="49.05839" lon="7.74528">
        <ele>239</ele>
        <time>2020-06-11T10:48:47.000Z</time>
      </trkpt>
      <trkpt lat="49.05837" lon="7.74508">
        <ele>240</ele>
        <time>2020-06-11T10:48:57.000Z</time>
      </trkpt>
      <trkpt lat="49.05836" lon="7.745">
        <ele>241</ele>
        <time>2020-06-11T10:49:07.000Z</time>
      </trkpt>
      <trkpt lat="49.05835" lon="7.74498">
        <ele>241</ele>
        <time>2020-06-11T10:49:17.000Z</time>
      </trkpt>
      <trkpt lat="49.05836" lon="7.74497">
        <ele>240</ele>
        <time>2020-06-11T10:49:36.000Z</time>
      </trkpt>
      <trkpt lat="49.05832" lon="7.745">
        <ele>241</ele>
        <time>2020-06-11T10:49:46.000Z</time>
      </trkpt>
      <trkpt lat="49.05824" lon="7.74501">
        <ele>246</ele>
        <time>2020-06-11T10:49:56.000Z</time>
      </trkpt>
      <trkpt lat="49.05811" lon="7.74501">
        <ele>251</ele>
        <time>2020-06-11T10:50:06.000Z</time>
      </trkpt>
      <trkpt lat="49.05801" lon="7.74499">
        <ele>248</ele>
        <time>2020-06-11T10:50:16.000Z</time>
      </trkpt>
      <trkpt lat="49.05791" lon="7.74498">
        <ele>250</ele>
        <time>2020-06-11T10:50:26.000Z</time>
      </trkpt>
      <trkpt lat="49.05783" lon="7.74496">
        <ele>251</ele>
        <time>2020-06-11T10:50:36.000Z</time>
      </trkpt>
      <trkpt lat="49.05775" lon="7.74499">
        <ele>253</ele>
        <time>2020-06-11T10:50:46.000Z</time>
      </trkpt>
      <trkpt lat="49.0577" lon="7.74501">
        <ele>261</ele>
        <time>2020-06-11T10:50:56.000Z</time>
      </trkpt>
      <trkpt lat="49.05768" lon="7.74502">
        <ele>261</ele>
        <time>2020-06-11T10:51:15.000Z</time>
      </trkpt>
      <trkpt lat="49.05762" lon="7.74504">
        <ele>262</ele>
        <time>2020-06-11T10:51:25.000Z</time>
      </trkpt>
      <trkpt lat="49.05753" lon="7.74506">
        <ele>264</ele>
        <time>2020-06-11T10:51:35.000Z</time>
      </trkpt>
      <trkpt lat="49.05741" lon="7.74505">
        <ele>272</ele>
        <time>2020-06-11T10:51:45.000Z</time>
      </trkpt>
      <trkpt lat="49.05739" lon="7.74505">
        <ele>273</ele>
        <time>2020-06-11T10:51:55.000Z</time>
      </trkpt>
      <trkpt lat="49.05736" lon="7.74502">
        <ele>274</ele>
        <time>2020-06-11T10:52:46.000Z</time>
      </trkpt>
      <trkpt lat="49.05736" lon="7.74501">
        <ele>274</ele>
        <time>2020-06-11T10:52:56.000Z</time>
      </trkpt>
      <trkpt lat="49.05734" lon="7.74491">
        <ele>266</ele>
        <time>2020-06-11T10:53:06.000Z</time>
      </trkpt>
      <trkpt lat="49.05731" lon="7.7448">
        <ele>266</ele>
        <time>2020-06-11T10:53:16.000Z</time>
      </trkpt>
      <trkpt lat="49.05729" lon="7.7448">
        <ele>266</ele>
        <time>2020-06-11T10:53:26.000Z</time>
      </trkpt>
      <trkpt lat="49.05727" lon="7.74481">
        <ele>266</ele>
        <time>2020-06-11T10:53:36.000Z</time>
      </trkpt>
      <trkpt lat="49.05724" lon="7.74482">
        <ele>266</ele>
        <time>2020-06-11T10:53:46.000Z</time>
      </trkpt>
      <trkpt lat="49.05722" lon="7.74483">
        <ele>267</ele>
        <time>2020-06-11T10:53:56.000Z</time>
      </trkpt>
      <trkpt lat="49.05713" lon="7.74481">
        <ele>268</ele>
        <time>2020-06-11T10:54:06.000Z</time>
      </trkpt>
      <trkpt lat="49.05703" lon="7.74477">
        <ele>269</ele>
        <time>2020-06-11T10:54:16.000Z</time>
      </trkpt>
      <trkpt lat="49.05691" lon="7.74471">
        <ele>270</ele>
        <time>2020-06-11T10:54:26.000Z</time>
      </trkpt>
      <trkpt lat="49.05678" lon="7.74465">
        <ele>270</ele>
        <time>2020-06-11T10:54:36.000Z</time>
      </trkpt>
      <trkpt lat="49.05667" lon="7.74457">
        <ele>270</ele>
        <time>2020-06-11T10:54:46.000Z</time>
      </trkpt>
      <trkpt lat="49.05659" lon="7.74451">
        <ele>283</ele>
        <time>2020-06-11T10:54:56.000Z</time>
      </trkpt>
      <trkpt lat="49.05658" lon="7.74449">
        <ele>282</ele>
        <time>2020-06-11T10:55:06.000Z</time>
      </trkpt>
      <trkpt lat="49.05656" lon="7.74448">
        <ele>282</ele>
        <time>2020-06-11T10:55:20.000Z</time>
      </trkpt>
      <trkpt lat="49.05657" lon="7.74447">
        <ele>282</ele>
        <time>2020-06-11T10:55:30.000Z</time>
      </trkpt>
      <trkpt lat="49.05657" lon="7.74445">
        <ele>282</ele>
        <time>2020-06-11T10:55:40.000Z</time>
      </trkpt>
      <trkpt lat="49.05656" lon="7.74443">
        <ele>281</ele>
        <time>2020-06-11T10:55:50.000Z</time>
      </trkpt>
      <trkpt lat="49.05655" lon="7.74443">
        <ele>282</ele>
        <time>2020-06-11T10:56:25.000Z</time>
      </trkpt>
      <trkpt lat="49.05651" lon="7.74444">
        <ele>282</ele>
        <time>2020-06-11T10:56:35.000Z</time>
      </trkpt>
      <trkpt lat="49.05649" lon="7.74443">
        <ele>282</ele>
        <time>2020-06-11T10:56:45.000Z</time>
      </trkpt>
      <trkpt lat="49.05645" lon="7.74445">
        <ele>283</ele>
        <time>2020-06-11T10:56:55.000Z</time>
      </trkpt>
      <trkpt lat="49.05644" lon="7.74446">
        <ele>284</ele>
        <time>2020-06-11T10:57:05.000Z</time>
      </trkpt>
      <trkpt lat="49.05643" lon="7.74445">
        <ele>284</ele>
        <time>2020-06-11T10:57:26.000Z</time>
      </trkpt>
      <trkpt lat="49.05627" lon="7.74449">
        <ele>287</ele>
        <time>2020-06-11T10:57:36.000Z</time>
      </trkpt>
      <trkpt lat="49.05617" lon="7.7445">
        <ele>288</ele>
        <time>2020-06-11T10:57:46.000Z</time>
      </trkpt>
      <trkpt lat="49.05608" lon="7.74444">
        <ele>289</ele>
        <time>2020-06-11T10:57:56.000Z</time>
      </trkpt>
      <trkpt lat="49.05606" lon="7.74442">
        <ele>289</ele>
        <time>2020-06-11T10:58:50.000Z</time>
      </trkpt>
      <trkpt lat="49.05602" lon="7.7444">
        <ele>290</ele>
        <time>2020-06-11T10:59:00.000Z</time>
      </trkpt>
      <trkpt lat="49.05598" lon="7.74438">
        <ele>290</ele>
        <time>2020-06-11T10:59:10.000Z</time>
      </trkpt>
      <trkpt lat="49.05587" lon="7.74426">
        <ele>292</ele>
        <time>2020-06-11T10:59:20.000Z</time>
      </trkpt>
      <trkpt lat="49.05578" lon="7.74414">
        <ele>298</ele>
        <time>2020-06-11T10:59:30.000Z</time>
      </trkpt>
      <trkpt lat="49.05567" lon="7.74398">
        <ele>305</ele>
        <time>2020-06-11T10:59:40.000Z</time>
      </trkpt>
      <trkpt lat="49.0556" lon="7.7439">
        <ele>307</ele>
        <time>2020-06-11T10:59:50.000Z</time>
      </trkpt>
      <trkpt lat="49.05552" lon="7.74381">
        <ele>309</ele>
        <time>2020-06-11T11:00:00.000Z</time>
      </trkpt>
      <trkpt lat="49.05548" lon="7.74374">
        <ele>310</ele>
        <time>2020-06-11T11:00:10.000Z</time>
      </trkpt>
      <trkpt lat="49.05546" lon="7.7437">
        <ele>310</ele>
        <time>2020-06-11T11:00:20.000Z</time>
      </trkpt>
      <trkpt lat="49.05541" lon="7.7436">
        <ele>311</ele>
        <time>2020-06-11T11:00:30.000Z</time>
      </trkpt>
      <trkpt lat="49.05532" lon="7.74338">
        <ele>313</ele>
        <time>2020-06-11T11:00:40.000Z</time>
      </trkpt>
      <trkpt lat="49.0553" lon="7.74319">
        <ele>314</ele>
        <time>2020-06-11T11:00:50.000Z</time>
      </trkpt>
      <trkpt lat="49.05529" lon="7.74311">
        <ele>313</ele>
        <time>2020-06-11T11:01:00.000Z</time>
      </trkpt>
      <trkpt lat="49.0553" lon="7.74306">
        <ele>313</ele>
        <time>2020-06-11T11:01:13.000Z</time>
      </trkpt>
      <trkpt lat="49.05531" lon="7.74305">
        <ele>313</ele>
        <time>2020-06-11T11:01:23.000Z</time>
      </trkpt>
      <trkpt lat="49.05531" lon="7.74304">
        <ele>313</ele>
        <time>2020-06-11T11:01:46.000Z</time>
      </trkpt>
      <trkpt lat="49.05536" lon="7.74284">
        <ele>313</ele>
        <time>2020-06-11T11:01:56.000Z</time>
      </trkpt>
      <trkpt lat="49.05544" lon="7.74273">
        <ele>312</ele>
        <time>2020-06-11T11:02:06.000Z</time>
      </trkpt>
      <trkpt lat="49.05555" lon="7.74258">
        <ele>311</ele>
        <time>2020-06-11T11:02:16.000Z</time>
      </trkpt>
      <trkpt lat="49.05562" lon="7.74245">
        <ele>322</ele>
        <time>2020-06-11T11:02:26.000Z</time>
      </trkpt>
      <trkpt lat="49.05565" lon="7.74239">
        <ele>322</ele>
        <time>2020-06-11T11:02:36.000Z</time>
      </trkpt>
      <trkpt lat="49.05573" lon="7.74234">
        <ele>321</ele>
        <time>2020-06-11T11:02:46.000Z</time>
      </trkpt>
      <trkpt lat="49.05585" lon="7.74232">
        <ele>315</ele>
        <time>2020-06-11T11:02:56.000Z</time>
      </trkpt>
      <trkpt lat="49.05599" lon="7.74226">
        <ele>318</ele>
        <time>2020-06-11T11:03:06.000Z</time>
      </trkpt>
      <trkpt lat="49.05608" lon="7.74219">
        <ele>320</ele>
        <time>2020-06-11T11:03:16.000Z</time>
      </trkpt>
      <trkpt lat="49.05619" lon="7.74211">
        <ele>321</ele>
        <time>2020-06-11T11:03:26.000Z</time>
      </trkpt>
      <trkpt lat="49.05626" lon="7.74208">
        <ele>322</ele>
        <time>2020-06-11T11:03:36.000Z</time>
      </trkpt>
      <trkpt lat="49.05635" lon="7.74204">
        <ele>322</ele>
        <time>2020-06-11T11:03:46.000Z</time>
      </trkpt>
      <trkpt lat="49.05648" lon="7.74199">
        <ele>323</ele>
        <time>2020-06-11T11:03:56.000Z</time>
      </trkpt>
      <trkpt lat="49.05661" lon="7.74195">
        <ele>324</ele>
        <time>2020-06-11T11:04:06.000Z</time>
      </trkpt>
      <trkpt lat="49.0567" lon="7.7419">
        <ele>321</ele>
        <time>2020-06-11T11:04:16.000Z</time>
      </trkpt>
      <trkpt lat="49.05677" lon="7.74199">
        <ele>316</ele>
        <time>2020-06-11T11:04:26.000Z</time>
      </trkpt>
      <trkpt lat="49.05701" lon="7.74206">
        <ele>312</ele>
        <time>2020-06-11T11:04:36.000Z</time>
      </trkpt>
      <trkpt lat="49.05711" lon="7.74206">
        <ele>312</ele>
        <time>2020-06-11T11:04:46.000Z</time>
      </trkpt>
      <trkpt lat="49.05716" lon="7.74202">
        <ele>312</ele>
        <time>2020-06-11T11:04:56.000Z</time>
      </trkpt>
      <trkpt lat="49.05722" lon="7.74195">
        <ele>314</ele>
        <time>2020-06-11T11:05:06.000Z</time>
      </trkpt>
      <trkpt lat="49.05738" lon="7.74187">
        <ele>316</ele>
        <time>2020-06-11T11:05:16.000Z</time>
      </trkpt>
      <trkpt lat="49.05752" lon="7.7418">
        <ele>313</ele>
        <time>2020-06-11T11:05:26.000Z</time>
      </trkpt>
      <trkpt lat="49.05759" lon="7.74179">
        <ele>311</ele>
        <time>2020-06-11T11:05:36.000Z</time>
      </trkpt>
      <trkpt lat="49.05772" lon="7.74181">
        <ele>306</ele>
        <time>2020-06-11T11:05:46.000Z</time>
      </trkpt>
      <trkpt lat="49.05783" lon="7.74183">
        <ele>302</ele>
        <time>2020-06-11T11:05:56.000Z</time>
      </trkpt>
      <trkpt lat="49.05796" lon="7.74176">
        <ele>300</ele>
        <time>2020-06-11T11:06:06.000Z</time>
      </trkpt>
      <trkpt lat="49.05801" lon="7.74168">
        <ele>299</ele>
        <time>2020-06-11T11:06:16.000Z</time>
      </trkpt>
      <trkpt lat="49.05803" lon="7.74155">
        <ele>308</ele>
        <time>2020-06-11T11:06:26.000Z</time>
      </trkpt>
      <trkpt lat="49.05799" lon="7.74141">
        <ele>310</ele>
        <time>2020-06-11T11:06:36.000Z</time>
      </trkpt>
      <trkpt lat="49.05793" lon="7.74129">
        <ele>312</ele>
        <time>2020-06-11T11:06:46.000Z</time>
      </trkpt>
      <trkpt lat="49.05789" lon="7.74119">
        <ele>313</ele>
        <time>2020-06-11T11:06:56.000Z</time>
      </trkpt>
      <trkpt lat="49.05784" lon="7.74105">
        <ele>316</ele>
        <time>2020-06-11T11:07:06.000Z</time>
      </trkpt>
      <trkpt lat="49.05778" lon="7.74086">
        <ele>319</ele>
        <time>2020-06-11T11:07:16.000Z</time>
      </trkpt>
      <trkpt lat="49.05773" lon="7.74067">
        <ele>320</ele>
        <time>2020-06-11T11:07:26.000Z</time>
      </trkpt>
      <trkpt lat="49.05768" lon="7.74053">
        <ele>320</ele>
        <time>2020-06-11T11:07:36.000Z</time>
      </trkpt>
      <trkpt lat="49.05762" lon="7.74039">
        <ele>320</ele>
        <time>2020-06-11T11:07:46.000Z</time>
      </trkpt>
      <trkpt lat="49.05753" lon="7.74023">
        <ele>322</ele>
        <time>2020-06-11T11:07:56.000Z</time>
      </trkpt>
      <trkpt lat="49.05746" lon="7.74009">
        <ele>338</ele>
        <time>2020-06-11T11:08:06.000Z</time>
      </trkpt>
      <trkpt lat="49.0574" lon="7.73996">
        <ele>337</ele>
        <time>2020-06-11T11:08:16.000Z</time>
      </trkpt>
      <trkpt lat="49.05736" lon="7.7398">
        <ele>340</ele>
        <time>2020-06-11T11:08:26.000Z</time>
      </trkpt>
      <trkpt lat="49.05732" lon="7.73957">
        <ele>341</ele>
        <time>2020-06-11T11:08:36.000Z</time>
      </trkpt>
      <trkpt lat="49.05727" lon="7.73939">
        <ele>340</ele>
        <time>2020-06-11T11:08:46.000Z</time>
      </trkpt>
      <trkpt lat="49.05722" lon="7.73922">
        <ele>340</ele>
        <time>2020-06-11T11:08:56.000Z</time>
      </trkpt>
      <trkpt lat="49.05718" lon="7.73909">
        <ele>336</ele>
        <time>2020-06-11T11:09:06.000Z</time>
      </trkpt>
      <trkpt lat="49.05713" lon="7.73896">
        <ele>337</ele>
        <time>2020-06-11T11:09:16.000Z</time>
      </trkpt>
      <trkpt lat="49.05708" lon="7.73879">
        <ele>337</ele>
        <time>2020-06-11T11:09:26.000Z</time>
      </trkpt>
      <trkpt lat="49.05704" lon="7.73862">
        <ele>337</ele>
        <time>2020-06-11T11:09:36.000Z</time>
      </trkpt>
      <trkpt lat="49.057" lon="7.73847">
        <ele>337</ele>
        <time>2020-06-11T11:09:46.000Z</time>
      </trkpt>
      <trkpt lat="49.05692" lon="7.73833">
        <ele>333</ele>
        <time>2020-06-11T11:09:56.000Z</time>
      </trkpt>
      <trkpt lat="49.05683" lon="7.73821">
        <ele>334</ele>
        <time>2020-06-11T11:10:06.000Z</time>
      </trkpt>
      <trkpt lat="49.05675" lon="7.73811">
        <ele>334</ele>
        <time>2020-06-11T11:10:16.000Z</time>
      </trkpt>
      <trkpt lat="49.05669" lon="7.73803">
        <ele>333</ele>
        <time>2020-06-11T11:10:26.000Z</time>
      </trkpt>
      <trkpt lat="49.05665" lon="7.73801">
        <ele>349</ele>
        <time>2020-06-11T11:10:36.000Z</time>
      </trkpt>
      <trkpt lat="49.05661" lon="7.73797">
        <ele>349</ele>
        <time>2020-06-11T11:10:46.000Z</time>
      </trkpt>
      <trkpt lat="49.0566" lon="7.73794">
        <ele>349</ele>
        <time>2020-06-11T11:10:56.000Z</time>
      </trkpt>
      <trkpt lat="49.05651" lon="7.73786">
        <ele>349</ele>
        <time>2020-06-11T11:11:06.000Z</time>
      </trkpt>
      <trkpt lat="49.05637" lon="7.73775">
        <ele>350</ele>
        <time>2020-06-11T11:11:16.000Z</time>
      </trkpt>
      <trkpt lat="49.05624" lon="7.73772">
        <ele>353</ele>
        <time>2020-06-11T11:11:26.000Z</time>
      </trkpt>
      <trkpt lat="49.05613" lon="7.73766">
        <ele>355</ele>
        <time>2020-06-11T11:11:36.000Z</time>
      </trkpt>
      <trkpt lat="49.05601" lon="7.73758">
        <ele>357</ele>
        <time>2020-06-11T11:11:46.000Z</time>
      </trkpt>
      <trkpt lat="49.05589" lon="7.73745">
        <ele>356</ele>
        <time>2020-06-11T11:11:56.000Z</time>
      </trkpt>
      <trkpt lat="49.05579" lon="7.73733">
        <ele>362</ele>
        <time>2020-06-11T11:12:06.000Z</time>
      </trkpt>
      <trkpt lat="49.05571" lon="7.73723">
        <ele>362</ele>
        <time>2020-06-11T11:12:16.000Z</time>
      </trkpt>
      <trkpt lat="49.05563" lon="7.73713">
        <ele>362</ele>
        <time>2020-06-11T11:12:26.000Z</time>
      </trkpt>
      <trkpt lat="49.05555" lon="7.73703">
        <ele>362</ele>
        <time>2020-06-11T11:12:36.000Z</time>
      </trkpt>
      <trkpt lat="49.05546" lon="7.73694">
        <ele>362</ele>
        <time>2020-06-11T11:12:46.000Z</time>
      </trkpt>
      <trkpt lat="49.05537" lon="7.73686">
        <ele>363</ele>
        <time>2020-06-11T11:12:56.000Z</time>
      </trkpt>
      <trkpt lat="49.0553" lon="7.73677">
        <ele>364</ele>
        <time>2020-06-11T11:13:06.000Z</time>
      </trkpt>
      <trkpt lat="49.05522" lon="7.73667">
        <ele>365</ele>
        <time>2020-06-11T11:13:16.000Z</time>
      </trkpt>
      <trkpt lat="49.05514" lon="7.73655">
        <ele>358</ele>
        <time>2020-06-11T11:13:26.000Z</time>
      </trkpt>
      <trkpt lat="49.05505" lon="7.73646">
        <ele>357</ele>
        <time>2020-06-11T11:13:36.000Z</time>
      </trkpt>
      <trkpt lat="49.05497" lon="7.7364">
        <ele>368</ele>
        <time>2020-06-11T11:13:46.000Z</time>
      </trkpt>
      <trkpt lat="49.05487" lon="7.73638">
        <ele>369</ele>
        <time>2020-06-11T11:13:56.000Z</time>
      </trkpt>
      <trkpt lat="49.05479" lon="7.73636">
        <ele>369</ele>
        <time>2020-06-11T11:14:06.000Z</time>
      </trkpt>
      <trkpt lat="49.0548" lon="7.73637">
        <ele>369</ele>
        <time>2020-06-11T11:14:20.000Z</time>
      </trkpt>
      <trkpt lat="49.05479" lon="7.73636">
        <ele>369</ele>
        <time>2020-06-11T11:14:30.000Z</time>
      </trkpt>
      <trkpt lat="49.05478" lon="7.73636">
        <ele>369</ele>
        <time>2020-06-11T11:15:01.000Z</time>
      </trkpt>
      <trkpt lat="49.0547" lon="7.73636">
        <ele>370</ele>
        <time>2020-06-11T11:15:11.000Z</time>
      </trkpt>
      <trkpt lat="49.05461" lon="7.73631">
        <ele>370</ele>
        <time>2020-06-11T11:15:21.000Z</time>
      </trkpt>
      <trkpt lat="49.05455" lon="7.73626">
        <ele>371</ele>
        <time>2020-06-11T11:15:31.000Z</time>
      </trkpt>
      <trkpt lat="49.05444" lon="7.73623">
        <ele>371</ele>
        <time>2020-06-11T11:15:41.000Z</time>
      </trkpt>
      <trkpt lat="49.05434" lon="7.73618">
        <ele>371</ele>
        <time>2020-06-11T11:15:51.000Z</time>
      </trkpt>
      <trkpt lat="49.05423" lon="7.73613">
        <ele>371</ele>
        <time>2020-06-11T11:16:01.000Z</time>
      </trkpt>
      <trkpt lat="49.05414" lon="7.73609">
        <ele>378</ele>
        <time>2020-06-11T11:16:11.000Z</time>
      </trkpt>
      <trkpt lat="49.05402" lon="7.73604">
        <ele>377</ele>
        <time>2020-06-11T11:16:21.000Z</time>
      </trkpt>
      <trkpt lat="49.05391" lon="7.73599">
        <ele>378</ele>
        <time>2020-06-11T11:16:31.000Z</time>
      </trkpt>
      <trkpt lat="49.05383" lon="7.73597">
        <ele>378</ele>
        <time>2020-06-11T11:16:41.000Z</time>
      </trkpt>
      <trkpt lat="49.05372" lon="7.73593">
        <ele>379</ele>
        <time>2020-06-11T11:16:51.000Z</time>
      </trkpt>
      <trkpt lat="49.05362" lon="7.73591">
        <ele>378</ele>
        <time>2020-06-11T11:17:01.000Z</time>
      </trkpt>
      <trkpt lat="49.05356" lon="7.73591">
        <ele>378</ele>
        <time>2020-06-11T11:17:11.000Z</time>
      </trkpt>
      <trkpt lat="49.05346" lon="7.73591">
        <ele>377</ele>
        <time>2020-06-11T11:17:21.000Z</time>
      </trkpt>
      <trkpt lat="49.05331" lon="7.73593">
        <ele>377</ele>
        <time>2020-06-11T11:17:31.000Z</time>
      </trkpt>
      <trkpt lat="49.05326" lon="7.73595">
        <ele>379</ele>
        <time>2020-06-11T11:17:41.000Z</time>
      </trkpt>
      <trkpt lat="49.05317" lon="7.73599">
        <ele>381</ele>
        <time>2020-06-11T11:17:51.000Z</time>
      </trkpt>
      <trkpt lat="49.0531" lon="7.73603">
        <ele>383</ele>
        <time>2020-06-11T11:18:01.000Z</time>
      </trkpt>
      <trkpt lat="49.05301" lon="7.73609">
        <ele>385</ele>
        <time>2020-06-11T11:18:11.000Z</time>
      </trkpt>
      <trkpt lat="49.0529" lon="7.73614">
        <ele>386</ele>
        <time>2020-06-11T11:18:21.000Z</time>
      </trkpt>
      <trkpt lat="49.05281" lon="7.73615">
        <ele>386</ele>
        <time>2020-06-11T11:18:31.000Z</time>
      </trkpt>
      <trkpt lat="49.05271" lon="7.73617">
        <ele>387</ele>
        <time>2020-06-11T11:18:41.000Z</time>
      </trkpt>
      <trkpt lat="49.05256" lon="7.73617">
        <ele>386</ele>
        <time>2020-06-11T11:18:51.000Z</time>
      </trkpt>
      <trkpt lat="49.05245" lon="7.73618">
        <ele>390</ele>
        <time>2020-06-11T11:19:01.000Z</time>
      </trkpt>
      <trkpt lat="49.05236" lon="7.73618">
        <ele>391</ele>
        <time>2020-06-11T11:19:11.000Z</time>
      </trkpt>
      <trkpt lat="49.05229" lon="7.7362">
        <ele>392</ele>
        <time>2020-06-11T11:19:21.000Z</time>
      </trkpt>
      <trkpt lat="49.05219" lon="7.73623">
        <ele>393</ele>
        <time>2020-06-11T11:19:31.000Z</time>
      </trkpt>
      <trkpt lat="49.05201" lon="7.73622">
        <ele>394</ele>
        <time>2020-06-11T11:19:41.000Z</time>
      </trkpt>
      <trkpt lat="49.05188" lon="7.73623">
        <ele>394</ele>
        <time>2020-06-11T11:19:51.000Z</time>
      </trkpt>
      <trkpt lat="49.05172" lon="7.73621">
        <ele>394</ele>
        <time>2020-06-11T11:20:01.000Z</time>
      </trkpt>
      <trkpt lat="49.05159" lon="7.73619">
        <ele>399</ele>
        <time>2020-06-11T11:20:11.000Z</time>
      </trkpt>
      <trkpt lat="49.05151" lon="7.73616">
        <ele>399</ele>
        <time>2020-06-11T11:20:21.000Z</time>
      </trkpt>
      <trkpt lat="49.05143" lon="7.73613">
        <ele>399</ele>
        <time>2020-06-11T11:20:31.000Z</time>
      </trkpt>
      <trkpt lat="49.05134" lon="7.73611">
        <ele>399</ele>
        <time>2020-06-11T11:20:41.000Z</time>
      </trkpt>
      <trkpt lat="49.05116" lon="7.73608">
        <ele>399</ele>
        <time>2020-06-11T11:20:51.000Z</time>
      </trkpt>
      <trkpt lat="49.05103" lon="7.73603">
        <ele>398</ele>
        <time>2020-06-11T11:21:01.000Z</time>
      </trkpt>
      <trkpt lat="49.05093" lon="7.73594">
        <ele>395</ele>
        <time>2020-06-11T11:21:10.001Z</time>
      </trkpt>
      <trkpt lat="49.05082" lon="7.73579">
        <ele>389</ele>
        <time>2020-06-11T11:21:20.001Z</time>
      </trkpt>
      <trkpt lat="49.0508" lon="7.73578">
        <ele>388</ele>
        <time>2020-06-11T11:21:30.001Z</time>
      </trkpt>
      <trkpt lat="49.05076" lon="7.73574">
        <ele>387</ele>
        <time>2020-06-11T11:21:47.001Z</time>
      </trkpt>
      <trkpt lat="49.05074" lon="7.73574">
        <ele>387</ele>
        <time>2020-06-11T11:22:02.000Z</time>
      </trkpt>
      <trkpt lat="49.05063" lon="7.73572">
        <ele>386</ele>
        <time>2020-06-11T11:22:11.001Z</time>
      </trkpt>
      <trkpt lat="49.0505" lon="7.73567">
        <ele>385</ele>
        <time>2020-06-11T11:22:21.001Z</time>
      </trkpt>
      <trkpt lat="49.05041" lon="7.73566">
        <ele>386</ele>
        <time>2020-06-11T11:22:31.001Z</time>
      </trkpt>
      <trkpt lat="49.05027" lon="7.73565">
        <ele>388</ele>
        <time>2020-06-11T11:22:41.001Z</time>
      </trkpt>
      <trkpt lat="49.05013" lon="7.73566">
        <ele>391</ele>
        <time>2020-06-11T11:22:51.001Z</time>
      </trkpt>
      <trkpt lat="49.05001" lon="7.73564">
        <ele>392</ele>
        <time>2020-06-11T11:23:01.001Z</time>
      </trkpt>
      <trkpt lat="49.04993" lon="7.73562">
        <ele>398</ele>
        <time>2020-06-11T11:23:11.001Z</time>
      </trkpt>
      <trkpt lat="49.04986" lon="7.73561">
        <ele>397</ele>
        <time>2020-06-11T11:23:21.001Z</time>
      </trkpt>
      <trkpt lat="49.04973" lon="7.73559">
        <ele>397</ele>
        <time>2020-06-11T11:23:31.001Z</time>
      </trkpt>
      <trkpt lat="49.0496" lon="7.73553">
        <ele>397</ele>
        <time>2020-06-11T11:23:41.001Z</time>
      </trkpt>
      <trkpt lat="49.04949" lon="7.73548">
        <ele>397</ele>
        <time>2020-06-11T11:23:51.001Z</time>
      </trkpt>
      <trkpt lat="49.04939" lon="7.73543">
        <ele>397</ele>
        <time>2020-06-11T11:24:01.001Z</time>
      </trkpt>
      <trkpt lat="49.04924" lon="7.73536">
        <ele>396</ele>
        <time>2020-06-11T11:24:11.001Z</time>
      </trkpt>
      <trkpt lat="49.04905" lon="7.73526">
        <ele>401</ele>
        <time>2020-06-11T11:24:21.001Z</time>
      </trkpt>
      <trkpt lat="49.0489" lon="7.7352">
        <ele>402</ele>
        <time>2020-06-11T11:24:31.001Z</time>
      </trkpt>
      <trkpt lat="49.04878" lon="7.73516">
        <ele>404</ele>
        <time>2020-06-11T11:24:41.001Z</time>
      </trkpt>
      <trkpt lat="49.04869" lon="7.73511">
        <ele>404</ele>
        <time>2020-06-11T11:24:51.001Z</time>
      </trkpt>
      <trkpt lat="49.04856" lon="7.73502">
        <ele>404</ele>
        <time>2020-06-11T11:25:01.001Z</time>
      </trkpt>
      <trkpt lat="49.04844" lon="7.73495">
        <ele>395</ele>
        <time>2020-06-11T11:25:11.001Z</time>
      </trkpt>
      <trkpt lat="49.04833" lon="7.7349">
        <ele>401</ele>
        <time>2020-06-11T11:25:21.001Z</time>
      </trkpt>
      <trkpt lat="49.04824" lon="7.73484">
        <ele>400</ele>
        <time>2020-06-11T11:25:31.001Z</time>
      </trkpt>
      <trkpt lat="49.04817" lon="7.7348">
        <ele>400</ele>
        <time>2020-06-11T11:25:41.001Z</time>
      </trkpt>
      <trkpt lat="49.04813" lon="7.73478">
        <ele>400</ele>
        <time>2020-06-11T11:25:51.001Z</time>
      </trkpt>
      <trkpt lat="49.0481" lon="7.73476">
        <ele>400</ele>
        <time>2020-06-11T11:26:01.001Z</time>
      </trkpt>
      <trkpt lat="49.04786" lon="7.73461">
        <ele>400</ele>
        <time>2020-06-11T11:26:11.001Z</time>
      </trkpt>
      <trkpt lat="49.04781" lon="7.73457">
        <ele>400</ele>
        <time>2020-06-11T11:26:21.001Z</time>
      </trkpt>
      <trkpt lat="49.04776" lon="7.73454">
        <ele>400</ele>
        <time>2020-06-11T11:26:31.001Z</time>
      </trkpt>
      <trkpt lat="49.04763" lon="7.73438">
        <ele>400</ele>
        <time>2020-06-11T11:26:41.001Z</time>
      </trkpt>
      <trkpt lat="49.04761" lon="7.73436">
        <ele>399</ele>
        <time>2020-06-11T11:26:51.001Z</time>
      </trkpt>
      <trkpt lat="49.04753" lon="7.73431">
        <ele>399</ele>
        <time>2020-06-11T11:28:15.001Z</time>
      </trkpt>
      <trkpt lat="49.04752" lon="7.73429">
        <ele>399</ele>
        <time>2020-06-11T11:28:34.001Z</time>
      </trkpt>
      <trkpt lat="49.04745" lon="7.73421">
        <ele>402</ele>
        <time>2020-06-11T11:28:44.001Z</time>
      </trkpt>
      <trkpt lat="49.04737" lon="7.73411">
        <ele>399</ele>
        <time>2020-06-11T11:28:54.001Z</time>
      </trkpt>
      <trkpt lat="49.04727" lon="7.73403">
        <ele>400</ele>
        <time>2020-06-11T11:29:04.001Z</time>
      </trkpt>
      <trkpt lat="49.04715" lon="7.73391">
        <ele>400</ele>
        <time>2020-06-11T11:29:14.001Z</time>
      </trkpt>
      <trkpt lat="49.04705" lon="7.73382">
        <ele>400</ele>
        <time>2020-06-11T11:29:24.001Z</time>
      </trkpt>
      <trkpt lat="49.04694" lon="7.7337">
        <ele>401</ele>
        <time>2020-06-11T11:29:34.001Z</time>
      </trkpt>
      <trkpt lat="49.04682" lon="7.73353">
        <ele>401</ele>
        <time>2020-06-11T11:29:44.001Z</time>
      </trkpt>
      <trkpt lat="49.04674" lon="7.73342">
        <ele>402</ele>
        <time>2020-06-11T11:29:54.001Z</time>
      </trkpt>
      <trkpt lat="49.04666" lon="7.73326">
        <ele>402</ele>
        <time>2020-06-11T11:30:04.001Z</time>
      </trkpt>
      <trkpt lat="49.04657" lon="7.73311">
        <ele>401</ele>
        <time>2020-06-11T11:30:14.001Z</time>
      </trkpt>
      <trkpt lat="49.04648" lon="7.73295">
        <ele>400</ele>
        <time>2020-06-11T11:30:24.001Z</time>
      </trkpt>
      <trkpt lat="49.04637" lon="7.73265">
        <ele>399</ele>
        <time>2020-06-11T11:30:34.001Z</time>
      </trkpt>
      <trkpt lat="49.0463" lon="7.73245">
        <ele>400</ele>
        <time>2020-06-11T11:30:44.001Z</time>
      </trkpt>
      <trkpt lat="49.04628" lon="7.73239">
        <ele>400</ele>
        <time>2020-06-11T11:30:54.001Z</time>
      </trkpt>
      <trkpt lat="49.04626" lon="7.7323">
        <ele>400</ele>
        <time>2020-06-11T11:31:04.001Z</time>
      </trkpt>
      <trkpt lat="49.04624" lon="7.73226">
        <ele>400</ele>
        <time>2020-06-11T11:31:14.001Z</time>
      </trkpt>
      <trkpt lat="49.04614" lon="7.73213">
        <ele>401</ele>
        <time>2020-06-11T11:31:24.001Z</time>
      </trkpt>
      <trkpt lat="49.04606" lon="7.73196">
        <ele>402</ele>
        <time>2020-06-11T11:31:34.001Z</time>
      </trkpt>
      <trkpt lat="49.04602" lon="7.73189">
        <ele>402</ele>
        <time>2020-06-11T11:31:44.001Z</time>
      </trkpt>
      <trkpt lat="49.04603" lon="7.7318">
        <ele>403</ele>
        <time>2020-06-11T11:34:24.001Z</time>
      </trkpt>
      <trkpt lat="49.04599" lon="7.73168">
        <ele>403</ele>
        <time>2020-06-11T11:34:34.001Z</time>
      </trkpt>
      <trkpt lat="49.04598" lon="7.73166">
        <ele>407</ele>
        <time>2020-06-11T11:34:44.001Z</time>
      </trkpt>
      <trkpt lat="49.04598" lon="7.73164">
        <ele>407</ele>
        <time>2020-06-11T11:34:54.001Z</time>
      </trkpt>
      <trkpt lat="49.04597" lon="7.73163">
        <ele>407</ele>
        <time>2020-06-11T11:36:51.001Z</time>
      </trkpt>
      <trkpt lat="49.04587" lon="7.73157">
        <ele>407</ele>
        <time>2020-06-11T11:37:01.001Z</time>
      </trkpt>
      <trkpt lat="49.04575" lon="7.73154">
        <ele>404</ele>
        <time>2020-06-11T11:37:11.001Z</time>
      </trkpt>
      <trkpt lat="49.04567" lon="7.73145">
        <ele>403</ele>
        <time>2020-06-11T11:37:21.001Z</time>
      </trkpt>
      <trkpt lat="49.04557" lon="7.73134">
        <ele>403</ele>
        <time>2020-06-11T11:37:31.001Z</time>
      </trkpt>
      <trkpt lat="49.04547" lon="7.73122">
        <ele>403</ele>
        <time>2020-06-11T11:37:41.001Z</time>
      </trkpt>
      <trkpt lat="49.04537" lon="7.73113">
        <ele>402</ele>
        <time>2020-06-11T11:37:51.001Z</time>
      </trkpt>
      <trkpt lat="49.04525" lon="7.73104">
        <ele>401</ele>
        <time>2020-06-11T11:38:01.001Z</time>
      </trkpt>
      <trkpt lat="49.04509" lon="7.73088">
        <ele>400</ele>
        <time>2020-06-11T11:38:11.001Z</time>
      </trkpt>
      <trkpt lat="49.04499" lon="7.7308">
        <ele>399</ele>
        <time>2020-06-11T11:38:21.001Z</time>
      </trkpt>
      <trkpt lat="49.04488" lon="7.73069">
        <ele>400</ele>
        <time>2020-06-11T11:38:31.001Z</time>
      </trkpt>
      <trkpt lat="49.04479" lon="7.73061">
        <ele>400</ele>
        <time>2020-06-11T11:38:41.001Z</time>
      </trkpt>
      <trkpt lat="49.04465" lon="7.73049">
        <ele>400</ele>
        <time>2020-06-11T11:38:51.001Z</time>
      </trkpt>
      <trkpt lat="49.04455" lon="7.73041">
        <ele>400</ele>
        <time>2020-06-11T11:39:01.001Z</time>
      </trkpt>
      <trkpt lat="49.04444" lon="7.73035">
        <ele>400</ele>
        <time>2020-06-11T11:39:11.001Z</time>
      </trkpt>
      <trkpt lat="49.04432" lon="7.73034">
        <ele>399</ele>
        <time>2020-06-11T11:39:21.001Z</time>
      </trkpt>
      <trkpt lat="49.04418" lon="7.7303">
        <ele>399</ele>
        <time>2020-06-11T11:39:31.001Z</time>
      </trkpt>
      <trkpt lat="49.04407" lon="7.73027">
        <ele>391</ele>
        <time>2020-06-11T11:39:41.001Z</time>
      </trkpt>
      <trkpt lat="49.04395" lon="7.73025">
        <ele>390</ele>
        <time>2020-06-11T11:39:51.001Z</time>
      </trkpt>
      <trkpt lat="49.04386" lon="7.73025">
        <ele>389</ele>
        <time>2020-06-11T11:40:01.001Z</time>
      </trkpt>
      <trkpt lat="49.04376" lon="7.73023">
        <ele>389</ele>
        <time>2020-06-11T11:40:11.001Z</time>
      </trkpt>
      <trkpt lat="49.04364" lon="7.73021">
        <ele>388</ele>
        <time>2020-06-11T11:40:21.001Z</time>
      </trkpt>
      <trkpt lat="49.04351" lon="7.73017">
        <ele>389</ele>
        <time>2020-06-11T11:40:31.001Z</time>
      </trkpt>
      <trkpt lat="49.04347" lon="7.73013">
        <ele>389</ele>
        <time>2020-06-11T11:40:41.001Z</time>
      </trkpt>
      <trkpt lat="49.04341" lon="7.73009">
        <ele>390</ele>
        <time>2020-06-11T11:40:51.001Z</time>
      </trkpt>
      <trkpt lat="49.04334" lon="7.73005">
        <ele>392</ele>
        <time>2020-06-11T11:41:01.001Z</time>
      </trkpt>
      <trkpt lat="49.04324" lon="7.7301">
        <ele>387</ele>
        <time>2020-06-11T11:41:11.001Z</time>
      </trkpt>
      <trkpt lat="49.04311" lon="7.73018">
        <ele>383</ele>
        <time>2020-06-11T11:41:21.001Z</time>
      </trkpt>
      <trkpt lat="49.04305" lon="7.7302">
        <ele>382</ele>
        <time>2020-06-11T11:41:31.001Z</time>
      </trkpt>
      <trkpt lat="49.04302" lon="7.7302">
        <ele>382</ele>
        <time>2020-06-11T11:42:01.001Z</time>
      </trkpt>
      <trkpt lat="49.04301" lon="7.7302">
        <ele>382</ele>
        <time>2020-06-11T11:42:52.001Z</time>
      </trkpt>
      <trkpt lat="49.04294" lon="7.73019">
        <ele>381</ele>
        <time>2020-06-11T11:43:02.000Z</time>
      </trkpt>
      <trkpt lat="49.04284" lon="7.7302">
        <ele>380</ele>
        <time>2020-06-11T11:43:11.001Z</time>
      </trkpt>
      <trkpt lat="49.04276" lon="7.73024">
        <ele>380</ele>
        <time>2020-06-11T11:43:21.001Z</time>
      </trkpt>
      <trkpt lat="49.04267" lon="7.73029">
        <ele>379</ele>
        <time>2020-06-11T11:43:31.001Z</time>
      </trkpt>
      <trkpt lat="49.04264" lon="7.73031">
        <ele>379</ele>
        <time>2020-06-11T11:43:41.001Z</time>
      </trkpt>
      <trkpt lat="49.04263" lon="7.73032">
        <ele>379</ele>
        <time>2020-06-11T11:43:51.001Z</time>
      </trkpt>
      <trkpt lat="49.04261" lon="7.73032">
        <ele>379</ele>
        <time>2020-06-11T11:44:26.001Z</time>
      </trkpt>
      <trkpt lat="49.04243" lon="7.73028">
        <ele>372</ele>
        <time>2020-06-11T11:44:36.001Z</time>
      </trkpt>
      <trkpt lat="49.04236" lon="7.73031">
        <ele>371</ele>
        <time>2020-06-11T11:44:46.001Z</time>
      </trkpt>
      <trkpt lat="49.04234" lon="7.73031">
        <ele>371</ele>
        <time>2020-06-11T11:44:56.001Z</time>
      </trkpt>
      <trkpt lat="49.0423" lon="7.73024">
        <ele>372</ele>
        <time>2020-06-11T11:45:06.001Z</time>
      </trkpt>
      <trkpt lat="49.0422" lon="7.73017">
        <ele>371</ele>
        <time>2020-06-11T11:45:16.000Z</time>
      </trkpt>
      <trkpt lat="49.04211" lon="7.73013">
        <ele>369</ele>
        <time>2020-06-11T11:45:25.001Z</time>
      </trkpt>
      <trkpt lat="49.04198" lon="7.73005">
        <ele>367</ele>
        <time>2020-06-11T11:45:35.001Z</time>
      </trkpt>
      <trkpt lat="49.0419" lon="7.72992">
        <ele>375</ele>
        <time>2020-06-11T11:45:45.001Z</time>
      </trkpt>
      <trkpt lat="49.0418" lon="7.72979">
        <ele>375</ele>
        <time>2020-06-11T11:45:55.001Z</time>
      </trkpt>
      <trkpt lat="49.04171" lon="7.72971">
        <ele>376</ele>
        <time>2020-06-11T11:46:05.001Z</time>
      </trkpt>
      <trkpt lat="49.04161" lon="7.7296">
        <ele>359</ele>
        <time>2020-06-11T11:46:15.001Z</time>
      </trkpt>
      <trkpt lat="49.04153" lon="7.72948">
        <ele>360</ele>
        <time>2020-06-11T11:46:25.001Z</time>
      </trkpt>
      <trkpt lat="49.04146" lon="7.72932">
        <ele>363</ele>
        <time>2020-06-11T11:46:35.001Z</time>
      </trkpt>
      <trkpt lat="49.0414" lon="7.72914">
        <ele>371</ele>
        <time>2020-06-11T11:46:45.001Z</time>
      </trkpt>
      <trkpt lat="49.04134" lon="7.729">
        <ele>370</ele>
        <time>2020-06-11T11:46:55.001Z</time>
      </trkpt>
      <trkpt lat="49.04129" lon="7.72883">
        <ele>369</ele>
        <time>2020-06-11T11:47:05.001Z</time>
      </trkpt>
      <trkpt lat="49.04124" lon="7.72866">
        <ele>369</ele>
        <time>2020-06-11T11:47:15.001Z</time>
      </trkpt>
      <trkpt lat="49.04119" lon="7.72848">
        <ele>369</ele>
        <time>2020-06-11T11:47:25.001Z</time>
      </trkpt>
      <trkpt lat="49.04116" lon="7.7283">
        <ele>376</ele>
        <time>2020-06-11T11:47:35.001Z</time>
      </trkpt>
      <trkpt lat="49.04112" lon="7.72815">
        <ele>376</ele>
        <time>2020-06-11T11:47:45.001Z</time>
      </trkpt>
      <trkpt lat="49.04107" lon="7.72798">
        <ele>377</ele>
        <time>2020-06-11T11:47:55.001Z</time>
      </trkpt>
      <trkpt lat="49.04102" lon="7.72779">
        <ele>377</ele>
        <time>2020-06-11T11:48:05.001Z</time>
      </trkpt>
      <trkpt lat="49.041" lon="7.72764">
        <ele>374</ele>
        <time>2020-06-11T11:48:15.001Z</time>
      </trkpt>
      <trkpt lat="49.04099" lon="7.72748">
        <ele>376</ele>
        <time>2020-06-11T11:48:25.001Z</time>
      </trkpt>
      <trkpt lat="49.041" lon="7.72729">
        <ele>382</ele>
        <time>2020-06-11T11:48:35.001Z</time>
      </trkpt>
      <trkpt lat="49.04101" lon="7.72711">
        <ele>385</ele>
        <time>2020-06-11T11:48:45.001Z</time>
      </trkpt>
      <trkpt lat="49.04103" lon="7.72693">
        <ele>385</ele>
        <time>2020-06-11T11:48:55.001Z</time>
      </trkpt>
      <trkpt lat="49.04105" lon="7.72676">
        <ele>384</ele>
        <time>2020-06-11T11:49:05.001Z</time>
      </trkpt>
      <trkpt lat="49.04106" lon="7.72658">
        <ele>388</ele>
        <time>2020-06-11T11:49:15.001Z</time>
      </trkpt>
      <trkpt lat="49.04106" lon="7.7264">
        <ele>391</ele>
        <time>2020-06-11T11:49:25.001Z</time>
      </trkpt>
      <trkpt lat="49.04106" lon="7.72623">
        <ele>393</ele>
        <time>2020-06-11T11:49:35.001Z</time>
      </trkpt>
      <trkpt lat="49.04108" lon="7.72605">
        <ele>393</ele>
        <time>2020-06-11T11:49:45.001Z</time>
      </trkpt>
      <trkpt lat="49.04109" lon="7.72586">
        <ele>392</ele>
        <time>2020-06-11T11:49:55.001Z</time>
      </trkpt>
      <trkpt lat="49.04108" lon="7.72569">
        <ele>398</ele>
        <time>2020-06-11T11:50:05.001Z</time>
      </trkpt>
      <trkpt lat="49.04106" lon="7.72551">
        <ele>400</ele>
        <time>2020-06-11T11:50:15.001Z</time>
      </trkpt>
      <trkpt lat="49.04104" lon="7.72533">
        <ele>401</ele>
        <time>2020-06-11T11:50:25.001Z</time>
      </trkpt>
      <trkpt lat="49.04101" lon="7.72519">
        <ele>399</ele>
        <time>2020-06-11T11:50:35.001Z</time>
      </trkpt>
      <trkpt lat="49.04096" lon="7.72507">
        <ele>395</ele>
        <time>2020-06-11T11:50:45.001Z</time>
      </trkpt>
      <trkpt lat="49.04091" lon="7.72494">
        <ele>395</ele>
        <time>2020-06-11T11:50:55.001Z</time>
      </trkpt>
      <trkpt lat="49.04085" lon="7.72476">
        <ele>402</ele>
        <time>2020-06-11T11:51:05.001Z</time>
      </trkpt>
      <trkpt lat="49.04087" lon="7.72458">
        <ele>407</ele>
        <time>2020-06-11T11:51:15.001Z</time>
      </trkpt>
      <trkpt lat="49.04087" lon="7.72441">
        <ele>407</ele>
        <time>2020-06-11T11:51:25.001Z</time>
      </trkpt>
      <trkpt lat="49.04086" lon="7.72425">
        <ele>404</ele>
        <time>2020-06-11T11:51:35.001Z</time>
      </trkpt>
      <trkpt lat="49.04083" lon="7.72407">
        <ele>396</ele>
        <time>2020-06-11T11:51:45.001Z</time>
      </trkpt>
      <trkpt lat="49.0408" lon="7.72392">
        <ele>394</ele>
        <time>2020-06-11T11:51:55.001Z</time>
      </trkpt>
      <trkpt lat="49.04076" lon="7.7238">
        <ele>394</ele>
        <time>2020-06-11T11:52:05.001Z</time>
      </trkpt>
      <trkpt lat="49.04071" lon="7.72368">
        <ele>394</ele>
        <time>2020-06-11T11:52:15.001Z</time>
      </trkpt>
      <trkpt lat="49.04067" lon="7.72353">
        <ele>397</ele>
        <time>2020-06-11T11:52:25.001Z</time>
      </trkpt>
      <trkpt lat="49.04064" lon="7.72335">
        <ele>399</ele>
        <time>2020-06-11T11:52:35.001Z</time>
      </trkpt>
      <trkpt lat="49.04059" lon="7.72317">
        <ele>403</ele>
        <time>2020-06-11T11:52:45.001Z</time>
      </trkpt>
      <trkpt lat="49.04055" lon="7.72301">
        <ele>402</ele>
        <time>2020-06-11T11:52:55.001Z</time>
      </trkpt>
      <trkpt lat="49.04052" lon="7.72285">
        <ele>402</ele>
        <time>2020-06-11T11:53:05.001Z</time>
      </trkpt>
      <trkpt lat="49.04054" lon="7.72264">
        <ele>403</ele>
        <time>2020-06-11T11:53:15.001Z</time>
      </trkpt>
      <trkpt lat="49.04058" lon="7.72253">
        <ele>404</ele>
        <time>2020-06-11T11:53:25.001Z</time>
      </trkpt>
      <trkpt lat="49.04057" lon="7.72256">
        <ele>403</ele>
        <time>2020-06-11T11:53:55.001Z</time>
      </trkpt>
      <trkpt lat="49.04061" lon="7.72241">
        <ele>402</ele>
        <time>2020-06-11T11:54:05.001Z</time>
      </trkpt>
      <trkpt lat="49.04071" lon="7.72227">
        <ele>401</ele>
        <time>2020-06-11T11:54:15.001Z</time>
      </trkpt>
      <trkpt lat="49.04083" lon="7.72218">
        <ele>400</ele>
        <time>2020-06-11T11:54:25.001Z</time>
      </trkpt>
      <trkpt lat="49.04092" lon="7.72213">
        <ele>403</ele>
        <time>2020-06-11T11:54:35.001Z</time>
      </trkpt>
      <trkpt lat="49.04095" lon="7.72213">
        <ele>403</ele>
        <time>2020-06-11T11:54:45.001Z</time>
      </trkpt>
      <trkpt lat="49.041" lon="7.72214">
        <ele>403</ele>
        <time>2020-06-11T11:55:47.001Z</time>
      </trkpt>
      <trkpt lat="49.04102" lon="7.72216">
        <ele>404</ele>
        <time>2020-06-11T11:55:57.001Z</time>
      </trkpt>
      <trkpt lat="49.04106" lon="7.72215">
        <ele>404</ele>
        <time>2020-06-11T11:56:07.001Z</time>
      </trkpt>
      <trkpt lat="49.04104" lon="7.72215">
        <ele>404</ele>
        <time>2020-06-11T11:58:26.001Z</time>
      </trkpt>
      <trkpt lat="49.04105" lon="7.72215">
        <ele>404</ele>
        <time>2020-06-11T11:58:36.001Z</time>
      </trkpt>
      <trkpt lat="49.04111" lon="7.72217">
        <ele>404</ele>
        <time>2020-06-11T11:58:46.001Z</time>
      </trkpt>
      <trkpt lat="49.04123" lon="7.72219">
        <ele>404</ele>
        <time>2020-06-11T11:58:56.001Z</time>
      </trkpt>
      <trkpt lat="49.04135" lon="7.72222">
        <ele>405</ele>
        <time>2020-06-11T11:59:06.001Z</time>
      </trkpt>
      <trkpt lat="49.04146" lon="7.72222">
        <ele>406</ele>
        <time>2020-06-11T11:59:16.000Z</time>
      </trkpt>
      <trkpt lat="49.04154" lon="7.72222">
        <ele>406</ele>
        <time>2020-06-11T11:59:25.001Z</time>
      </trkpt>
      <trkpt lat="49.04163" lon="7.72222">
        <ele>406</ele>
        <time>2020-06-11T11:59:35.001Z</time>
      </trkpt>
      <trkpt lat="49.04171" lon="7.7222">
        <ele>411</ele>
        <time>2020-06-11T11:59:45.001Z</time>
      </trkpt>
      <trkpt lat="49.04182" lon="7.72215">
        <ele>411</ele>
        <time>2020-06-11T11:59:55.001Z</time>
      </trkpt>
      <trkpt lat="49.04188" lon="7.72212">
        <ele>411</ele>
        <time>2020-06-11T12:00:05.001Z</time>
      </trkpt>
      <trkpt lat="49.04197" lon="7.72209">
        <ele>412</ele>
        <time>2020-06-11T12:00:15.001Z</time>
      </trkpt>
      <trkpt lat="49.0422" lon="7.72209">
        <ele>414</ele>
        <time>2020-06-11T12:00:25.001Z</time>
      </trkpt>
      <trkpt lat="49.04231" lon="7.72208">
        <ele>415</ele>
        <time>2020-06-11T12:00:35.001Z</time>
      </trkpt>
      <trkpt lat="49.04237" lon="7.72205">
        <ele>415</ele>
        <time>2020-06-11T12:00:45.001Z</time>
      </trkpt>
      <trkpt lat="49.04249" lon="7.72198">
        <ele>415</ele>
        <time>2020-06-11T12:00:55.001Z</time>
      </trkpt>
      <trkpt lat="49.04255" lon="7.72193">
        <ele>420</ele>
        <time>2020-06-11T12:01:05.001Z</time>
      </trkpt>
      <trkpt lat="49.04264" lon="7.72185">
        <ele>420</ele>
        <time>2020-06-11T12:01:15.001Z</time>
      </trkpt>
      <trkpt lat="49.04272" lon="7.7218">
        <ele>420</ele>
        <time>2020-06-11T12:01:25.001Z</time>
      </trkpt>
      <trkpt lat="49.0428" lon="7.72183">
        <ele>421</ele>
        <time>2020-06-11T12:01:35.001Z</time>
      </trkpt>
      <trkpt lat="49.04282" lon="7.72184">
        <ele>421</ele>
        <time>2020-06-11T12:01:45.001Z</time>
      </trkpt>
      <trkpt lat="49.04283" lon="7.72184">
        <ele>421</ele>
        <time>2020-06-11T12:02:13.001Z</time>
      </trkpt>
      <trkpt lat="49.04292" lon="7.72181">
        <ele>422</ele>
        <time>2020-06-11T12:02:23.001Z</time>
      </trkpt>
      <trkpt lat="49.04299" lon="7.72174">
        <ele>423</ele>
        <time>2020-06-11T12:02:33.001Z</time>
      </trkpt>
      <trkpt lat="49.04301" lon="7.72173">
        <ele>423</ele>
        <time>2020-06-11T12:02:43.001Z</time>
      </trkpt>
      <trkpt lat="49.04302" lon="7.72173">
        <ele>423</ele>
        <time>2020-06-11T12:03:07.001Z</time>
      </trkpt>
      <trkpt lat="49.04313" lon="7.72164">
        <ele>424</ele>
        <time>2020-06-11T12:03:17.001Z</time>
      </trkpt>
      <trkpt lat="49.04319" lon="7.72157">
        <ele>425</ele>
        <time>2020-06-11T12:03:27.001Z</time>
      </trkpt>
      <trkpt lat="49.04321" lon="7.72154">
        <ele>425</ele>
        <time>2020-06-11T12:04:19.001Z</time>
      </trkpt>
      <trkpt lat="49.04324" lon="7.72151">
        <ele>425</ele>
        <time>2020-06-11T12:04:29.001Z</time>
      </trkpt>
      <trkpt lat="49.0433" lon="7.72139">
        <ele>424</ele>
        <time>2020-06-11T12:04:39.001Z</time>
      </trkpt>
      <trkpt lat="49.04338" lon="7.72123">
        <ele>427</ele>
        <time>2020-06-11T12:04:49.001Z</time>
      </trkpt>
      <trkpt lat="49.04347" lon="7.72113">
        <ele>427</ele>
        <time>2020-06-11T12:04:59.001Z</time>
      </trkpt>
      <trkpt lat="49.04358" lon="7.72097">
        <ele>427</ele>
        <time>2020-06-11T12:05:09.001Z</time>
      </trkpt>
      <trkpt lat="49.04369" lon="7.72082">
        <ele>433</ele>
        <time>2020-06-11T12:05:19.001Z</time>
      </trkpt>
      <trkpt lat="49.04379" lon="7.7207">
        <ele>432</ele>
        <time>2020-06-11T12:05:29.001Z</time>
      </trkpt>
      <trkpt lat="49.04386" lon="7.72057">
        <ele>432</ele>
        <time>2020-06-11T12:05:39.001Z</time>
      </trkpt>
      <trkpt lat="49.04393" lon="7.72044">
        <ele>433</ele>
        <time>2020-06-11T12:05:49.001Z</time>
      </trkpt>
      <trkpt lat="49.04403" lon="7.72026">
        <ele>435</ele>
        <time>2020-06-11T12:05:59.001Z</time>
      </trkpt>
      <trkpt lat="49.04411" lon="7.72012">
        <ele>437</ele>
        <time>2020-06-11T12:06:09.001Z</time>
      </trkpt>
      <trkpt lat="49.04418" lon="7.72">
        <ele>437</ele>
        <time>2020-06-11T12:06:19.001Z</time>
      </trkpt>
      <trkpt lat="49.04428" lon="7.71985">
        <ele>429</ele>
        <time>2020-06-11T12:06:29.001Z</time>
      </trkpt>
      <trkpt lat="49.04434" lon="7.71972">
        <ele>426</ele>
        <time>2020-06-11T12:06:39.001Z</time>
      </trkpt>
      <trkpt lat="49.04438" lon="7.71954">
        <ele>425</ele>
        <time>2020-06-11T12:06:49.001Z</time>
      </trkpt>
      <trkpt lat="49.04441" lon="7.71933">
        <ele>427</ele>
        <time>2020-06-11T12:06:59.001Z</time>
      </trkpt>
      <trkpt lat="49.04442" lon="7.71917">
        <ele>429</ele>
        <time>2020-06-11T12:07:09.001Z</time>
      </trkpt>
      <trkpt lat="49.04443" lon="7.71898">
        <ele>431</ele>
        <time>2020-06-11T12:07:19.001Z</time>
      </trkpt>
      <trkpt lat="49.04445" lon="7.71888">
        <ele>430</ele>
        <time>2020-06-11T12:07:29.001Z</time>
      </trkpt>
      <trkpt lat="49.04447" lon="7.71878">
        <ele>429</ele>
        <time>2020-06-11T12:07:39.001Z</time>
      </trkpt>
      <trkpt lat="49.04448" lon="7.71863">
        <ele>430</ele>
        <time>2020-06-11T12:07:49.001Z</time>
      </trkpt>
      <trkpt lat="49.04445" lon="7.71847">
        <ele>432</ele>
        <time>2020-06-11T12:07:59.001Z</time>
      </trkpt>
      <trkpt lat="49.04442" lon="7.71827">
        <ele>434</ele>
        <time>2020-06-11T12:08:09.001Z</time>
      </trkpt>
      <trkpt lat="49.04441" lon="7.71806">
        <ele>432</ele>
        <time>2020-06-11T12:08:19.001Z</time>
      </trkpt>
      <trkpt lat="49.0444" lon="7.71783">
        <ele>432</ele>
        <time>2020-06-11T12:08:29.001Z</time>
      </trkpt>
      <trkpt lat="49.04439" lon="7.71762">
        <ele>435</ele>
        <time>2020-06-11T12:08:39.001Z</time>
      </trkpt>
      <trkpt lat="49.04438" lon="7.71742">
        <ele>432</ele>
        <time>2020-06-11T12:08:49.001Z</time>
      </trkpt>
      <trkpt lat="49.04437" lon="7.71731">
        <ele>430</ele>
        <time>2020-06-11T12:08:59.001Z</time>
      </trkpt>
      <trkpt lat="49.04438" lon="7.71734">
        <ele>430</ele>
        <time>2020-06-11T12:09:18.001Z</time>
      </trkpt>
      <trkpt lat="49.04437" lon="7.71734">
        <ele>431</ele>
        <time>2020-06-11T12:09:29.001Z</time>
      </trkpt>
      <trkpt lat="49.04433" lon="7.7173">
        <ele>431</ele>
        <time>2020-06-11T12:09:39.001Z</time>
      </trkpt>
      <trkpt lat="49.04432" lon="7.71717">
        <ele>428</ele>
        <time>2020-06-11T12:09:49.001Z</time>
      </trkpt>
      <trkpt lat="49.04426" lon="7.71697">
        <ele>428</ele>
        <time>2020-06-11T12:09:59.001Z</time>
      </trkpt>
      <trkpt lat="49.0442" lon="7.71683">
        <ele>431</ele>
        <time>2020-06-11T12:10:09.001Z</time>
      </trkpt>
      <trkpt lat="49.04414" lon="7.71667">
        <ele>441</ele>
        <time>2020-06-11T12:10:19.001Z</time>
      </trkpt>
      <trkpt lat="49.04411" lon="7.71659">
        <ele>440</ele>
        <time>2020-06-11T12:10:29.001Z</time>
      </trkpt>
      <trkpt lat="49.04405" lon="7.71647">
        <ele>439</ele>
        <time>2020-06-11T12:10:39.001Z</time>
      </trkpt>
      <trkpt lat="49.04401" lon="7.71633">
        <ele>439</ele>
        <time>2020-06-11T12:10:49.001Z</time>
      </trkpt>
      <trkpt lat="49.04397" lon="7.71619">
        <ele>438</ele>
        <time>2020-06-11T12:10:59.001Z</time>
      </trkpt>
      <trkpt lat="49.04394" lon="7.71611">
        <ele>438</ele>
        <time>2020-06-11T12:11:09.001Z</time>
      </trkpt>
      <trkpt lat="49.04389" lon="7.71597">
        <ele>437</ele>
        <time>2020-06-11T12:11:19.001Z</time>
      </trkpt>
      <trkpt lat="49.04382" lon="7.71583">
        <ele>433</ele>
        <time>2020-06-11T12:11:29.001Z</time>
      </trkpt>
      <trkpt lat="49.04376" lon="7.71567">
        <ele>433</ele>
        <time>2020-06-11T12:11:39.001Z</time>
      </trkpt>
      <trkpt lat="49.0437" lon="7.71556">
        <ele>433</ele>
        <time>2020-06-11T12:11:49.001Z</time>
      </trkpt>
      <trkpt lat="49.04363" lon="7.71541">
        <ele>432</ele>
        <time>2020-06-11T12:11:59.001Z</time>
      </trkpt>
      <trkpt lat="49.04359" lon="7.71534">
        <ele>432</ele>
        <time>2020-06-11T12:12:09.001Z</time>
      </trkpt>
      <trkpt lat="49.0436" lon="7.71529">
        <ele>432</ele>
        <time>2020-06-11T12:12:19.001Z</time>
      </trkpt>
      <trkpt lat="49.04359" lon="7.71516">
        <ele>432</ele>
        <time>2020-06-11T12:12:29.001Z</time>
      </trkpt>
      <trkpt lat="49.04356" lon="7.71499">
        <ele>430</ele>
        <time>2020-06-11T12:12:39.001Z</time>
      </trkpt>
      <trkpt lat="49.04353" lon="7.71492">
        <ele>430</ele>
        <time>2020-06-11T12:12:49.001Z</time>
      </trkpt>
      <trkpt lat="49.04355" lon="7.71492">
        <ele>430</ele>
        <time>2020-06-11T12:12:59.001Z</time>
      </trkpt>
      <trkpt lat="49.04355" lon="7.71494">
        <ele>430</ele>
        <time>2020-06-11T12:13:09.001Z</time>
      </trkpt>
      <trkpt lat="49.04353" lon="7.71492">
        <ele>430</ele>
        <time>2020-06-11T12:13:19.001Z</time>
      </trkpt>
      <trkpt lat="49.0435" lon="7.71483">
        <ele>430</ele>
        <time>2020-06-11T12:13:29.001Z</time>
      </trkpt>
      <trkpt lat="49.04349" lon="7.71481">
        <ele>430</ele>
        <time>2020-06-11T12:13:39.001Z</time>
      </trkpt>
      <trkpt lat="49.04346" lon="7.71472">
        <ele>430</ele>
        <time>2020-06-11T12:13:49.001Z</time>
      </trkpt>
      <trkpt lat="49.04345" lon="7.71467">
        <ele>430</ele>
        <time>2020-06-11T12:13:59.001Z</time>
      </trkpt>
      <trkpt lat="49.04345" lon="7.71465">
        <ele>430</ele>
        <time>2020-06-11T12:14:12.001Z</time>
      </trkpt>
      <trkpt lat="49.04341" lon="7.71459">
        <ele>430</ele>
        <time>2020-06-11T12:14:22.001Z</time>
      </trkpt>
      <trkpt lat="49.0434" lon="7.71458">
        <ele>430</ele>
        <time>2020-06-11T12:14:32.001Z</time>
      </trkpt>
      <trkpt lat="49.04339" lon="7.71458">
        <ele>430</ele>
        <time>2020-06-11T12:15:13.001Z</time>
      </trkpt>
      <trkpt lat="49.04338" lon="7.71458">
        <ele>430</ele>
        <time>2020-06-11T12:15:23.001Z</time>
      </trkpt>
      <trkpt lat="49.04337" lon="7.71454">
        <ele>430</ele>
        <time>2020-06-11T12:15:33.001Z</time>
      </trkpt>
      <trkpt lat="49.04337" lon="7.71452">
        <ele>430</ele>
        <time>2020-06-11T12:16:02.000Z</time>
      </trkpt>
      <trkpt lat="49.04336" lon="7.71451">
        <ele>431</ele>
        <time>2020-06-11T12:16:11.001Z</time>
      </trkpt>
      <trkpt lat="49.04334" lon="7.71445">
        <ele>431</ele>
        <time>2020-06-11T12:16:21.001Z</time>
      </trkpt>
      <trkpt lat="49.04332" lon="7.7144">
        <ele>421</ele>
        <time>2020-06-11T12:16:31.001Z</time>
      </trkpt>
      <trkpt lat="49.04333" lon="7.71432">
        <ele>432</ele>
        <time>2020-06-11T12:16:41.001Z</time>
      </trkpt>
      <trkpt lat="49.04338" lon="7.71415">
        <ele>434</ele>
        <time>2020-06-11T12:16:51.001Z</time>
      </trkpt>
      <trkpt lat="49.04339" lon="7.71409">
        <ele>433</ele>
        <time>2020-06-11T12:17:01.001Z</time>
      </trkpt>
      <trkpt lat="49.0434" lon="7.71407">
        <ele>433</ele>
        <time>2020-06-11T12:17:11.001Z</time>
      </trkpt>
      <trkpt lat="49.0434" lon="7.71408">
        <ele>433</ele>
        <time>2020-06-11T12:17:30.001Z</time>
      </trkpt>
      <trkpt lat="49.0434" lon="7.71413">
        <ele>433</ele>
        <time>2020-06-11T12:17:40.001Z</time>
      </trkpt>
      <trkpt lat="49.04339" lon="7.71413">
        <ele>434</ele>
        <time>2020-06-11T12:17:50.001Z</time>
      </trkpt>
      <trkpt lat="49.04338" lon="7.71428">
        <ele>432</ele>
        <time>2020-06-11T12:18:00.000Z</time>
      </trkpt>
      <trkpt lat="49.04337" lon="7.7143">
        <ele>432</ele>
        <time>2020-06-11T12:18:09.001Z</time>
      </trkpt>
      <trkpt lat="49.04333" lon="7.7143">
        <ele>425</ele>
        <time>2020-06-11T12:18:19.001Z</time>
      </trkpt>
      <trkpt lat="49.04332" lon="7.71429">
        <ele>426</ele>
        <time>2020-06-11T12:18:54.001Z</time>
      </trkpt>
      <trkpt lat="49.0433" lon="7.7143">
        <ele>425</ele>
        <time>2020-06-11T12:19:04.001Z</time>
      </trkpt>
      <trkpt lat="49.04336" lon="7.71429">
        <ele>432</ele>
        <time>2020-06-11T12:19:14.001Z</time>
      </trkpt>
      <trkpt lat="49.0434" lon="7.71423">
        <ele>433</ele>
        <time>2020-06-11T12:19:24.001Z</time>
      </trkpt>
      <trkpt lat="49.0434" lon="7.7142">
        <ele>433</ele>
        <time>2020-06-11T12:19:34.001Z</time>
      </trkpt>
      <trkpt lat="49.04341" lon="7.71421">
        <ele>433</ele>
        <time>2020-06-11T12:20:02.000Z</time>
      </trkpt>
      <trkpt lat="49.04343" lon="7.71424">
        <ele>432</ele>
        <time>2020-06-11T12:20:11.001Z</time>
      </trkpt>
      <trkpt lat="49.04344" lon="7.71425">
        <ele>432</ele>
        <time>2020-06-11T12:20:21.001Z</time>
      </trkpt>
      <trkpt lat="49.04345" lon="7.71424">
        <ele>432</ele>
        <time>2020-06-11T12:20:47.001Z</time>
      </trkpt>
      <trkpt lat="49.04344" lon="7.71426">
        <ele>432</ele>
        <time>2020-06-11T12:20:57.001Z</time>
      </trkpt>
      <trkpt lat="49.04345" lon="7.71428">
        <ele>432</ele>
        <time>2020-06-11T12:21:07.001Z</time>
      </trkpt>
      <trkpt lat="49.04342" lon="7.71424">
        <ele>432</ele>
        <time>2020-06-11T12:21:17.001Z</time>
      </trkpt>
      <trkpt lat="49.04342" lon="7.71421">
        <ele>433</ele>
        <time>2020-06-11T12:21:27.001Z</time>
      </trkpt>
      <trkpt lat="49.04342" lon="7.71419">
        <ele>433</ele>
        <time>2020-06-11T12:22:44.001Z</time>
      </trkpt>
      <trkpt lat="49.04338" lon="7.71415">
        <ele>434</ele>
        <time>2020-06-11T12:22:54.001Z</time>
      </trkpt>
      <trkpt lat="49.04332" lon="7.7141">
        <ele>431</ele>
        <time>2020-06-11T12:23:04.001Z</time>
      </trkpt>
      <trkpt lat="49.04332" lon="7.71414">
        <ele>433</ele>
        <time>2020-06-11T12:23:32.001Z</time>
      </trkpt>
      <trkpt lat="49.04327" lon="7.71447">
        <ele>419</ele>
        <time>2020-06-11T12:23:42.001Z</time>
      </trkpt>
      <trkpt lat="49.04331" lon="7.7145">
        <ele>419</ele>
        <time>2020-06-11T12:23:58.001Z</time>
      </trkpt>
      <trkpt lat="49.0433" lon="7.71449">
        <ele>419</ele>
        <time>2020-06-11T12:24:09.001Z</time>
      </trkpt>
      <trkpt lat="49.04323" lon="7.7145">
        <ele>418</ele>
        <time>2020-06-11T12:24:19.001Z</time>
      </trkpt>
      <trkpt lat="49.04319" lon="7.7145">
        <ele>417</ele>
        <time>2020-06-11T12:24:29.001Z</time>
      </trkpt>
      <trkpt lat="49.0432" lon="7.71447">
        <ele>418</ele>
        <time>2020-06-11T12:24:39.001Z</time>
      </trkpt>
      <trkpt lat="49.04321" lon="7.71446">
        <ele>418</ele>
        <time>2020-06-11T12:24:52.001Z</time>
      </trkpt>
      <trkpt lat="49.04323" lon="7.7144">
        <ele>420</ele>
        <time>2020-06-11T12:25:02.000Z</time>
      </trkpt>
      <trkpt lat="49.04325" lon="7.71437">
        <ele>421</ele>
        <time>2020-06-11T12:25:44.001Z</time>
      </trkpt>
      <trkpt lat="49.0433" lon="7.71443">
        <ele>420</ele>
        <time>2020-06-11T12:25:54.001Z</time>
      </trkpt>
      <trkpt lat="49.04339" lon="7.71457">
        <ele>430</ele>
        <time>2020-06-11T12:26:04.001Z</time>
      </trkpt>
      <trkpt lat="49.04346" lon="7.7146">
        <ele>430</ele>
        <time>2020-06-11T12:26:14.001Z</time>
      </trkpt>
      <trkpt lat="49.04347" lon="7.7146">
        <ele>430</ele>
        <time>2020-06-11T12:26:24.001Z</time>
      </trkpt>
      <trkpt lat="49.04348" lon="7.71454">
        <ele>430</ele>
        <time>2020-06-11T12:26:34.001Z</time>
      </trkpt>
      <trkpt lat="49.04349" lon="7.7145">
        <ele>430</ele>
        <time>2020-06-11T12:26:44.001Z</time>
      </trkpt>
      <trkpt lat="49.0435" lon="7.71448">
        <ele>430</ele>
        <time>2020-06-11T12:27:05.001Z</time>
      </trkpt>
      <trkpt lat="49.04348" lon="7.71435">
        <ele>431</ele>
        <time>2020-06-11T12:27:15.001Z</time>
      </trkpt>
      <trkpt lat="49.04348" lon="7.71434">
        <ele>431</ele>
        <time>2020-06-11T12:27:25.001Z</time>
      </trkpt>
      <trkpt lat="49.04347" lon="7.71423">
        <ele>432</ele>
        <time>2020-06-11T12:27:35.001Z</time>
      </trkpt>
      <trkpt lat="49.0435" lon="7.71412">
        <ele>432</ele>
        <time>2020-06-11T12:27:45.001Z</time>
      </trkpt>
      <trkpt lat="49.04351" lon="7.71396">
        <ele>431</ele>
        <time>2020-06-11T12:27:55.001Z</time>
      </trkpt>
      <trkpt lat="49.0435" lon="7.71387">
        <ele>431</ele>
        <time>2020-06-11T12:28:05.001Z</time>
      </trkpt>
      <trkpt lat="49.0435" lon="7.71383">
        <ele>431</ele>
        <time>2020-06-11T12:28:15.001Z</time>
      </trkpt>
      <trkpt lat="49.04354" lon="7.71381">
        <ele>431</ele>
        <time>2020-06-11T12:28:25.001Z</time>
      </trkpt>
      <trkpt lat="49.04357" lon="7.71372">
        <ele>431</ele>
        <time>2020-06-11T12:28:35.001Z</time>
      </trkpt>
      <trkpt lat="49.0436" lon="7.71365">
        <ele>430</ele>
        <time>2020-06-11T12:28:45.001Z</time>
      </trkpt>
      <trkpt lat="49.0436" lon="7.71363">
        <ele>431</ele>
        <time>2020-06-11T12:28:55.001Z</time>
      </trkpt>
      <trkpt lat="49.04357" lon="7.71362">
        <ele>431</ele>
        <time>2020-06-11T12:29:13.001Z</time>
      </trkpt>
      <trkpt lat="49.04357" lon="7.71361">
        <ele>431</ele>
        <time>2020-06-11T12:29:36.001Z</time>
      </trkpt>
      <trkpt lat="49.04354" lon="7.71352">
        <ele>432</ele>
        <time>2020-06-11T12:29:46.001Z</time>
      </trkpt>
      <trkpt lat="49.04353" lon="7.71344">
        <ele>433</ele>
        <time>2020-06-11T12:29:56.001Z</time>
      </trkpt>
      <trkpt lat="49.04353" lon="7.71337">
        <ele>433</ele>
        <time>2020-06-11T12:30:06.001Z</time>
      </trkpt>
      <trkpt lat="49.04352" lon="7.71324">
        <ele>434</ele>
        <time>2020-06-11T12:30:16.000Z</time>
      </trkpt>
      <trkpt lat="49.04353" lon="7.71315">
        <ele>433</ele>
        <time>2020-06-11T12:30:25.001Z</time>
      </trkpt>
      <trkpt lat="49.04355" lon="7.71304">
        <ele>433</ele>
        <time>2020-06-11T12:30:35.001Z</time>
      </trkpt>
      <trkpt lat="49.04358" lon="7.71289">
        <ele>433</ele>
        <time>2020-06-11T12:30:45.001Z</time>
      </trkpt>
      <trkpt lat="49.0436" lon="7.7128">
        <ele>433</ele>
        <time>2020-06-11T12:30:55.001Z</time>
      </trkpt>
      <trkpt lat="49.04363" lon="7.71273">
        <ele>433</ele>
        <time>2020-06-11T12:31:05.001Z</time>
      </trkpt>
      <trkpt lat="49.0437" lon="7.71256">
        <ele>432</ele>
        <time>2020-06-11T12:31:15.001Z</time>
      </trkpt>
      <trkpt lat="49.04373" lon="7.71245">
        <ele>430</ele>
        <time>2020-06-11T12:31:25.001Z</time>
      </trkpt>
      <trkpt lat="49.04378" lon="7.71223">
        <ele>429</ele>
        <time>2020-06-11T12:31:35.001Z</time>
      </trkpt>
      <trkpt lat="49.04385" lon="7.712">
        <ele>427</ele>
        <time>2020-06-11T12:31:45.001Z</time>
      </trkpt>
      <trkpt lat="49.0439" lon="7.71179">
        <ele>425</ele>
        <time>2020-06-11T12:31:55.001Z</time>
      </trkpt>
      <trkpt lat="49.04392" lon="7.71165">
        <ele>420</ele>
        <time>2020-06-11T12:32:05.001Z</time>
      </trkpt>
      <trkpt lat="49.04392" lon="7.71148">
        <ele>421</ele>
        <time>2020-06-11T12:32:15.001Z</time>
      </trkpt>
      <trkpt lat="49.04392" lon="7.71131">
        <ele>420</ele>
        <time>2020-06-11T12:32:25.001Z</time>
      </trkpt>
      <trkpt lat="49.04391" lon="7.71111">
        <ele>419</ele>
        <time>2020-06-11T12:32:35.001Z</time>
      </trkpt>
      <trkpt lat="49.04388" lon="7.7109">
        <ele>419</ele>
        <time>2020-06-11T12:32:45.001Z</time>
      </trkpt>
      <trkpt lat="49.04384" lon="7.71075">
        <ele>413</ele>
        <time>2020-06-11T12:32:55.001Z</time>
      </trkpt>
      <trkpt lat="49.04381" lon="7.71057">
        <ele>412</ele>
        <time>2020-06-11T12:33:05.001Z</time>
      </trkpt>
      <trkpt lat="49.04376" lon="7.7105">
        <ele>412</ele>
        <time>2020-06-11T12:33:15.001Z</time>
      </trkpt>
      <trkpt lat="49.04377" lon="7.71055">
        <ele>412</ele>
        <time>2020-06-11T12:33:25.001Z</time>
      </trkpt>
      <trkpt lat="49.0438" lon="7.71052">
        <ele>412</ele>
        <time>2020-06-11T12:33:35.001Z</time>
      </trkpt>
      <trkpt lat="49.04384" lon="7.71032">
        <ele>411</ele>
        <time>2020-06-11T12:33:45.001Z</time>
      </trkpt>
      <trkpt lat="49.04385" lon="7.71016">
        <ele>410</ele>
        <time>2020-06-11T12:33:55.001Z</time>
      </trkpt>
      <trkpt lat="49.04388" lon="7.71001">
        <ele>410</ele>
        <time>2020-06-11T12:34:05.001Z</time>
      </trkpt>
      <trkpt lat="49.04387" lon="7.70989">
        <ele>404</ele>
        <time>2020-06-11T12:34:15.001Z</time>
      </trkpt>
      <trkpt lat="49.04386" lon="7.70979">
        <ele>403</ele>
        <time>2020-06-11T12:34:25.001Z</time>
      </trkpt>
      <trkpt lat="49.04384" lon="7.70967">
        <ele>403</ele>
        <time>2020-06-11T12:34:35.001Z</time>
      </trkpt>
      <trkpt lat="49.04383" lon="7.70958">
        <ele>402</ele>
        <time>2020-06-11T12:34:45.001Z</time>
      </trkpt>
      <trkpt lat="49.04377" lon="7.70964">
        <ele>402</ele>
        <time>2020-06-11T12:34:55.001Z</time>
      </trkpt>
      <trkpt lat="49.04383" lon="7.70965">
        <ele>402</ele>
        <time>2020-06-11T12:35:05.001Z</time>
      </trkpt>
      <trkpt lat="49.04385" lon="7.70962">
        <ele>402</ele>
        <time>2020-06-11T12:35:15.001Z</time>
      </trkpt>
      <trkpt lat="49.04386" lon="7.70957">
        <ele>402</ele>
        <time>2020-06-11T12:35:25.001Z</time>
      </trkpt>
      <trkpt lat="49.04386" lon="7.70956">
        <ele>402</ele>
        <time>2020-06-11T12:35:51.001Z</time>
      </trkpt>
      <trkpt lat="49.04387" lon="7.70954">
        <ele>402</ele>
        <time>2020-06-11T12:36:02.000Z</time>
      </trkpt>
      <trkpt lat="49.04387" lon="7.70952">
        <ele>402</ele>
        <time>2020-06-11T12:36:55.001Z</time>
      </trkpt>
      <trkpt lat="49.04387" lon="7.7095">
        <ele>402</ele>
        <time>2020-06-11T12:37:05.001Z</time>
      </trkpt>
      <trkpt lat="49.04385" lon="7.70943">
        <ele>401</ele>
        <time>2020-06-11T12:37:15.001Z</time>
      </trkpt>
      <trkpt lat="49.04382" lon="7.70928">
        <ele>401</ele>
        <time>2020-06-11T12:37:25.001Z</time>
      </trkpt>
      <trkpt lat="49.04381" lon="7.70914">
        <ele>396</ele>
        <time>2020-06-11T12:37:35.001Z</time>
      </trkpt>
      <trkpt lat="49.04379" lon="7.70895">
        <ele>395</ele>
        <time>2020-06-11T12:37:45.001Z</time>
      </trkpt>
      <trkpt lat="49.04372" lon="7.70886">
        <ele>394</ele>
        <time>2020-06-11T12:37:55.001Z</time>
      </trkpt>
      <trkpt lat="49.04366" lon="7.70867">
        <ele>393</ele>
        <time>2020-06-11T12:38:05.001Z</time>
      </trkpt>
      <trkpt lat="49.0437" lon="7.70853">
        <ele>393</ele>
        <time>2020-06-11T12:38:15.001Z</time>
      </trkpt>
      <trkpt lat="49.04378" lon="7.70843">
        <ele>393</ele>
        <time>2020-06-11T12:38:25.001Z</time>
      </trkpt>
      <trkpt lat="49.04382" lon="7.70843">
        <ele>394</ele>
        <time>2020-06-11T12:38:35.001Z</time>
      </trkpt>
      <trkpt lat="49.0439" lon="7.70824">
        <ele>393</ele>
        <time>2020-06-11T12:38:45.001Z</time>
      </trkpt>
      <trkpt lat="49.04396" lon="7.70812">
        <ele>394</ele>
        <time>2020-06-11T12:38:55.001Z</time>
      </trkpt>
      <trkpt lat="49.044" lon="7.70802">
        <ele>394</ele>
        <time>2020-06-11T12:39:05.001Z</time>
      </trkpt>
      <trkpt lat="49.04401" lon="7.70801">
        <ele>394</ele>
        <time>2020-06-11T12:39:15.001Z</time>
      </trkpt>
      <trkpt lat="49.04408" lon="7.70786">
        <ele>394</ele>
        <time>2020-06-11T12:39:25.001Z</time>
      </trkpt>
      <trkpt lat="49.0441" lon="7.70773">
        <ele>396</ele>
        <time>2020-06-11T12:39:35.001Z</time>
      </trkpt>
      <trkpt lat="49.04412" lon="7.70763">
        <ele>397</ele>
        <time>2020-06-11T12:39:45.001Z</time>
      </trkpt>
      <trkpt lat="49.04413" lon="7.70767">
        <ele>397</ele>
        <time>2020-06-11T12:39:55.001Z</time>
      </trkpt>
      <trkpt lat="49.04411" lon="7.7077">
        <ele>396</ele>
        <time>2020-06-11T12:40:27.001Z</time>
      </trkpt>
      <trkpt lat="49.04412" lon="7.7077">
        <ele>396</ele>
        <time>2020-06-11T12:40:40.001Z</time>
      </trkpt>
      <trkpt lat="49.0442" lon="7.70766">
        <ele>398</ele>
        <time>2020-06-11T12:40:50.001Z</time>
      </trkpt>
      <trkpt lat="49.04427" lon="7.70761">
        <ele>398</ele>
        <time>2020-06-11T12:41:00.000Z</time>
      </trkpt>
      <trkpt lat="49.04441" lon="7.70753">
        <ele>396</ele>
        <time>2020-06-11T12:41:09.001Z</time>
      </trkpt>
      <trkpt lat="49.04444" lon="7.7075">
        <ele>396</ele>
        <time>2020-06-11T12:41:19.001Z</time>
      </trkpt>
      <trkpt lat="49.04455" lon="7.70741">
        <ele>403</ele>
        <time>2020-06-11T12:41:29.001Z</time>
      </trkpt>
      <trkpt lat="49.04465" lon="7.70733">
        <ele>403</ele>
        <time>2020-06-11T12:41:39.001Z</time>
      </trkpt>
      <trkpt lat="49.04474" lon="7.70721">
        <ele>403</ele>
        <time>2020-06-11T12:41:49.001Z</time>
      </trkpt>
      <trkpt lat="49.04483" lon="7.70709">
        <ele>404</ele>
        <time>2020-06-11T12:41:59.001Z</time>
      </trkpt>
      <trkpt lat="49.04485" lon="7.70707">
        <ele>405</ele>
        <time>2020-06-11T12:42:09.001Z</time>
      </trkpt>
      <trkpt lat="49.04558" lon="7.70662">
        <ele>401</ele>
        <time>2020-06-11T12:47:02.789Z</time>
      </trkpt>
      <trkpt lat="49.04528" lon="7.70665">
        <ele>406</ele>
        <time>2020-06-11T12:47:12.000Z</time>
      </trkpt>
      <trkpt lat="49.04531" lon="7.70661">
        <ele>406</ele>
        <time>2020-06-11T12:47:22.000Z</time>
      </trkpt>
      <trkpt lat="49.04535" lon="7.70649">
        <ele>406</ele>
        <time>2020-06-11T12:47:32.000Z</time>
      </trkpt>
      <trkpt lat="49.04537" lon="7.70644">
        <ele>405</ele>
        <time>2020-06-11T12:47:42.000Z</time>
      </trkpt>
      <trkpt lat="49.04544" lon="7.7063">
        <ele>405</ele>
        <time>2020-06-11T12:47:52.000Z</time>
      </trkpt>
      <trkpt lat="49.04555" lon="7.70613">
        <ele>405</ele>
        <time>2020-06-11T12:48:02.000Z</time>
      </trkpt>
      <trkpt lat="49.04558" lon="7.706">
        <ele>404</ele>
        <time>2020-06-11T12:48:12.000Z</time>
      </trkpt>
      <trkpt lat="49.0456" lon="7.70589">
        <ele>404</ele>
        <time>2020-06-11T12:48:22.000Z</time>
      </trkpt>
      <trkpt lat="49.04562" lon="7.7058">
        <ele>406</ele>
        <time>2020-06-11T12:48:32.000Z</time>
      </trkpt>
      <trkpt lat="49.04563" lon="7.70577">
        <ele>406</ele>
        <time>2020-06-11T12:48:42.000Z</time>
      </trkpt>
      <trkpt lat="49.04566" lon="7.70577">
        <ele>405</ele>
        <time>2020-06-11T12:50:16.000Z</time>
      </trkpt>
      <trkpt lat="49.04582" lon="7.70588">
        <ele>399</ele>
        <time>2020-06-11T12:50:26.000Z</time>
      </trkpt>
      <trkpt lat="49.04588" lon="7.70593">
        <ele>396</ele>
        <time>2020-06-11T12:50:36.000Z</time>
      </trkpt>
      <trkpt lat="49.0459" lon="7.70595">
        <ele>396</ele>
        <time>2020-06-11T12:50:46.000Z</time>
      </trkpt>
      <trkpt lat="49.04591" lon="7.70596">
        <ele>396</ele>
        <time>2020-06-11T12:50:59.000Z</time>
      </trkpt>
      <trkpt lat="49.04593" lon="7.70602">
        <ele>395</ele>
        <time>2020-06-11T12:51:09.000Z</time>
      </trkpt>
      <trkpt lat="49.04594" lon="7.70603">
        <ele>395</ele>
        <time>2020-06-11T12:51:19.000Z</time>
      </trkpt>
      <trkpt lat="49.04595" lon="7.70604">
        <ele>395</ele>
        <time>2020-06-11T12:51:29.000Z</time>
      </trkpt>
      <trkpt lat="49.0459" lon="7.70593">
        <ele>396</ele>
        <time>2020-06-11T12:51:39.000Z</time>
      </trkpt>
      <trkpt lat="49.04587" lon="7.70585">
        <ele>397</ele>
        <time>2020-06-11T12:51:49.000Z</time>
      </trkpt>
      <trkpt lat="49.04586" lon="7.70581">
        <ele>397</ele>
        <time>2020-06-11T12:52:10.000Z</time>
      </trkpt>
      <trkpt lat="49.04587" lon="7.70572">
        <ele>396</ele>
        <time>2020-06-11T12:52:20.000Z</time>
      </trkpt>
      <trkpt lat="49.04591" lon="7.70564">
        <ele>395</ele>
        <time>2020-06-11T12:52:30.000Z</time>
      </trkpt>
      <trkpt lat="49.04598" lon="7.70552">
        <ele>394</ele>
        <time>2020-06-11T12:52:40.000Z</time>
      </trkpt>
      <trkpt lat="49.04603" lon="7.70545">
        <ele>394</ele>
        <time>2020-06-11T12:52:50.000Z</time>
      </trkpt>
      <trkpt lat="49.04612" lon="7.70538">
        <ele>394</ele>
        <time>2020-06-11T12:53:00.000Z</time>
      </trkpt>
      <trkpt lat="49.04615" lon="7.70535">
        <ele>394</ele>
        <time>2020-06-11T12:53:10.000Z</time>
      </trkpt>
      <trkpt lat="49.04624" lon="7.70526">
        <ele>393</ele>
        <time>2020-06-11T12:53:20.000Z</time>
      </trkpt>
      <trkpt lat="49.04637" lon="7.70508">
        <ele>391</ele>
        <time>2020-06-11T12:53:30.000Z</time>
      </trkpt>
      <trkpt lat="49.04643" lon="7.70498">
        <ele>385</ele>
        <time>2020-06-11T12:53:40.000Z</time>
      </trkpt>
      <trkpt lat="49.04649" lon="7.70488">
        <ele>384</ele>
        <time>2020-06-11T12:53:50.000Z</time>
      </trkpt>
      <trkpt lat="49.04661" lon="7.70473">
        <ele>383</ele>
        <time>2020-06-11T12:54:00.000Z</time>
      </trkpt>
      <trkpt lat="49.04665" lon="7.70464">
        <ele>381</ele>
        <time>2020-06-11T12:54:10.000Z</time>
      </trkpt>
      <trkpt lat="49.04666" lon="7.70463">
        <ele>381</ele>
        <time>2020-06-11T12:54:20.000Z</time>
      </trkpt>
      <trkpt lat="49.04667" lon="7.70461">
        <ele>381</ele>
        <time>2020-06-11T12:54:36.000Z</time>
      </trkpt>
      <trkpt lat="49.04673" lon="7.70454">
        <ele>381</ele>
        <time>2020-06-11T12:54:46.000Z</time>
      </trkpt>
      <trkpt lat="49.04678" lon="7.70442">
        <ele>379</ele>
        <time>2020-06-11T12:54:56.000Z</time>
      </trkpt>
      <trkpt lat="49.04682" lon="7.70434">
        <ele>377</ele>
        <time>2020-06-11T12:55:06.000Z</time>
      </trkpt>
      <trkpt lat="49.04687" lon="7.70424">
        <ele>377</ele>
        <time>2020-06-11T12:55:16.000Z</time>
      </trkpt>
      <trkpt lat="49.04692" lon="7.70411">
        <ele>368</ele>
        <time>2020-06-11T12:55:26.000Z</time>
      </trkpt>
      <trkpt lat="49.04699" lon="7.70399">
        <ele>368</ele>
        <time>2020-06-11T12:55:36.000Z</time>
      </trkpt>
      <trkpt lat="49.04705" lon="7.70387">
        <ele>367</ele>
        <time>2020-06-11T12:55:46.000Z</time>
      </trkpt>
      <trkpt lat="49.04707" lon="7.70379">
        <ele>367</ele>
        <time>2020-06-11T12:55:56.000Z</time>
      </trkpt>
      <trkpt lat="49.04711" lon="7.70368">
        <ele>366</ele>
        <time>2020-06-11T12:56:06.000Z</time>
      </trkpt>
      <trkpt lat="49.04712" lon="7.70363">
        <ele>366</ele>
        <time>2020-06-11T12:56:16.000Z</time>
      </trkpt>
      <trkpt lat="49.04713" lon="7.70357">
        <ele>365</ele>
        <time>2020-06-11T12:56:26.000Z</time>
      </trkpt>
      <trkpt lat="49.04716" lon="7.70348">
        <ele>365</ele>
        <time>2020-06-11T12:56:36.000Z</time>
      </trkpt>
      <trkpt lat="49.04718" lon="7.70344">
        <ele>365</ele>
        <time>2020-06-11T12:56:46.000Z</time>
      </trkpt>
      <trkpt lat="49.04724" lon="7.70337">
        <ele>365</ele>
        <time>2020-06-11T12:56:56.000Z</time>
      </trkpt>
      <trkpt lat="49.04731" lon="7.70322">
        <ele>355</ele>
        <time>2020-06-11T12:57:06.000Z</time>
      </trkpt>
      <trkpt lat="49.04737" lon="7.70312">
        <ele>353</ele>
        <time>2020-06-11T12:57:16.000Z</time>
      </trkpt>
      <trkpt lat="49.04744" lon="7.70301">
        <ele>351</ele>
        <time>2020-06-11T12:57:26.000Z</time>
      </trkpt>
      <trkpt lat="49.04749" lon="7.70287">
        <ele>348</ele>
        <time>2020-06-11T12:57:36.000Z</time>
      </trkpt>
      <trkpt lat="49.04752" lon="7.70278">
        <ele>352</ele>
        <time>2020-06-11T12:57:46.000Z</time>
      </trkpt>
      <trkpt lat="49.04754" lon="7.70274">
        <ele>351</ele>
        <time>2020-06-11T12:57:56.000Z</time>
      </trkpt>
      <trkpt lat="49.04755" lon="7.70271">
        <ele>351</ele>
        <time>2020-06-11T12:58:15.000Z</time>
      </trkpt>
      <trkpt lat="49.04762" lon="7.7026">
        <ele>349</ele>
        <time>2020-06-11T12:58:25.000Z</time>
      </trkpt>
      <trkpt lat="49.04769" lon="7.70249">
        <ele>341</ele>
        <time>2020-06-11T12:58:35.000Z</time>
      </trkpt>
      <trkpt lat="49.04771" lon="7.70245">
        <ele>341</ele>
        <time>2020-06-11T12:58:45.000Z</time>
      </trkpt>
      <trkpt lat="49.04773" lon="7.70244">
        <ele>340</ele>
        <time>2020-06-11T12:59:40.000Z</time>
      </trkpt>
      <trkpt lat="49.04774" lon="7.70237">
        <ele>340</ele>
        <time>2020-06-11T12:59:50.000Z</time>
      </trkpt>
      <trkpt lat="49.04776" lon="7.70232">
        <ele>340</ele>
        <time>2020-06-11T13:00:00.000Z</time>
      </trkpt>
      <trkpt lat="49.04777" lon="7.7023">
        <ele>340</ele>
        <time>2020-06-11T13:00:10.000Z</time>
      </trkpt>
      <trkpt lat="49.04778" lon="7.70229">
        <ele>340</ele>
        <time>2020-06-11T13:00:20.000Z</time>
      </trkpt>
      <trkpt lat="49.04785" lon="7.70235">
        <ele>340</ele>
        <time>2020-06-11T13:00:30.000Z</time>
      </trkpt>
      <trkpt lat="49.04792" lon="7.70238">
        <ele>341</ele>
        <time>2020-06-11T13:00:40.000Z</time>
      </trkpt>
      <trkpt lat="49.04795" lon="7.70236">
        <ele>341</ele>
        <time>2020-06-11T13:00:50.000Z</time>
      </trkpt>
      <trkpt lat="49.04788" lon="7.7024">
        <ele>341</ele>
        <time>2020-06-11T13:01:00.000Z</time>
      </trkpt>
      <trkpt lat="49.04784" lon="7.70237">
        <ele>340</ele>
        <time>2020-06-11T13:01:10.000Z</time>
      </trkpt>
      <trkpt lat="49.04783" lon="7.70234">
        <ele>340</ele>
        <time>2020-06-11T13:01:20.000Z</time>
      </trkpt>
      <trkpt lat="49.04783" lon="7.70242">
        <ele>341</ele>
        <time>2020-06-11T13:01:30.000Z</time>
      </trkpt>
      <trkpt lat="49.04781" lon="7.70246">
        <ele>341</ele>
        <time>2020-06-11T13:01:40.000Z</time>
      </trkpt>
      <trkpt lat="49.04777" lon="7.70241">
        <ele>340</ele>
        <time>2020-06-11T13:01:50.000Z</time>
      </trkpt>
      <trkpt lat="49.04775" lon="7.70226">
        <ele>339</ele>
        <time>2020-06-11T13:02:00.000Z</time>
      </trkpt>
      <trkpt lat="49.04776" lon="7.70216">
        <ele>338</ele>
        <time>2020-06-11T13:02:10.000Z</time>
      </trkpt>
      <trkpt lat="49.04776" lon="7.70213">
        <ele>338</ele>
        <time>2020-06-11T13:02:20.000Z</time>
      </trkpt>
      <trkpt lat="49.04777" lon="7.70209">
        <ele>338</ele>
        <time>2020-06-11T13:02:30.000Z</time>
      </trkpt>
      <trkpt lat="49.04777" lon="7.70208">
        <ele>338</ele>
        <time>2020-06-11T13:02:48.000Z</time>
      </trkpt>
      <trkpt lat="49.04777" lon="7.70206">
        <ele>337</ele>
        <time>2020-06-11T13:03:00.000Z</time>
      </trkpt>
      <trkpt lat="49.04778" lon="7.70201">
        <ele>337</ele>
        <time>2020-06-11T13:03:10.000Z</time>
      </trkpt>
      <trkpt lat="49.04778" lon="7.70199">
        <ele>337</ele>
        <time>2020-06-11T13:03:20.000Z</time>
      </trkpt>
      <trkpt lat="49.04778" lon="7.70197">
        <ele>336</ele>
        <time>2020-06-11T13:03:30.000Z</time>
      </trkpt>
      <trkpt lat="49.04778" lon="7.7019">
        <ele>336</ele>
        <time>2020-06-11T13:03:40.000Z</time>
      </trkpt>
      <trkpt lat="49.04776" lon="7.70185">
        <ele>335</ele>
        <time>2020-06-11T13:03:50.000Z</time>
      </trkpt>
      <trkpt lat="49.04775" lon="7.70185">
        <ele>335</ele>
        <time>2020-06-11T13:04:00.000Z</time>
      </trkpt>
      <trkpt lat="49.04773" lon="7.70185">
        <ele>334</ele>
        <time>2020-06-11T13:04:10.000Z</time>
      </trkpt>
      <trkpt lat="49.04772" lon="7.70184">
        <ele>334</ele>
        <time>2020-06-11T13:04:20.000Z</time>
      </trkpt>
      <trkpt lat="49.04774" lon="7.70182">
        <ele>334</ele>
        <time>2020-06-11T13:04:30.000Z</time>
      </trkpt>
      <trkpt lat="49.04776" lon="7.70181">
        <ele>334</ele>
        <time>2020-06-11T13:04:41.000Z</time>
      </trkpt>
      <trkpt lat="49.04778" lon="7.7018">
        <ele>335</ele>
        <time>2020-06-11T13:04:51.000Z</time>
      </trkpt>
      <trkpt lat="49.04784" lon="7.70176">
        <ele>335</ele>
        <time>2020-06-11T13:05:01.000Z</time>
      </trkpt>
      <trkpt lat="49.04786" lon="7.70175">
        <ele>335</ele>
        <time>2020-06-11T13:05:11.000Z</time>
      </trkpt>
      <trkpt lat="49.04787" lon="7.70178">
        <ele>335</ele>
        <time>2020-06-11T13:05:21.000Z</time>
      </trkpt>
      <trkpt lat="49.04792" lon="7.70176">
        <ele>336</ele>
        <time>2020-06-11T13:05:31.000Z</time>
      </trkpt>
      <trkpt lat="49.04793" lon="7.70178">
        <ele>336</ele>
        <time>2020-06-11T13:05:44.000Z</time>
      </trkpt>
      <trkpt lat="49.04793" lon="7.70186">
        <ele>337</ele>
        <time>2020-06-11T13:05:54.000Z</time>
      </trkpt>
      <trkpt lat="49.04792" lon="7.70193">
        <ele>337</ele>
        <time>2020-06-11T13:06:04.000Z</time>
      </trkpt>
      <trkpt lat="49.04792" lon="7.70194">
        <ele>337</ele>
        <time>2020-06-11T13:06:14.000Z</time>
      </trkpt>
      <trkpt lat="49.04792" lon="7.70195">
        <ele>337</ele>
        <time>2020-06-11T13:06:47.000Z</time>
      </trkpt>
      <trkpt lat="49.04793" lon="7.70197">
        <ele>338</ele>
        <time>2020-06-11T13:06:57.000Z</time>
      </trkpt>
      <trkpt lat="49.04793" lon="7.70199">
        <ele>338</ele>
        <time>2020-06-11T13:08:43.000Z</time>
      </trkpt>
      <trkpt lat="49.04792" lon="7.70203">
        <ele>338</ele>
        <time>2020-06-11T13:08:53.000Z</time>
      </trkpt>
      <trkpt lat="49.04792" lon="7.70204">
        <ele>338</ele>
        <time>2020-06-11T13:09:10.000Z</time>
      </trkpt>
      <trkpt lat="49.04792" lon="7.70203">
        <ele>338</ele>
        <time>2020-06-11T13:09:23.000Z</time>
      </trkpt>
      <trkpt lat="49.04792" lon="7.70201">
        <ele>338</ele>
        <time>2020-06-11T13:09:33.000Z</time>
      </trkpt>
      <trkpt lat="49.04792" lon="7.70199">
        <ele>338</ele>
        <time>2020-06-11T13:10:40.000Z</time>
      </trkpt>
      <trkpt lat="49.04794" lon="7.70199">
        <ele>338</ele>
        <time>2020-06-11T13:10:50.000Z</time>
      </trkpt>
      <trkpt lat="49.04795" lon="7.70199">
        <ele>338</ele>
        <time>2020-06-11T13:12:19.000Z</time>
      </trkpt>
      <trkpt lat="49.04793" lon="7.70198">
        <ele>338</ele>
        <time>2020-06-11T13:12:29.000Z</time>
      </trkpt>
      <trkpt lat="49.04787" lon="7.70195">
        <ele>337</ele>
        <time>2020-06-11T13:12:39.000Z</time>
      </trkpt>
      <trkpt lat="49.04786" lon="7.70194">
        <ele>337</ele>
        <time>2020-06-11T13:12:49.000Z</time>
      </trkpt>
      <trkpt lat="49.04784" lon="7.70193">
        <ele>337</ele>
        <time>2020-06-11T13:12:59.000Z</time>
      </trkpt>
      <trkpt lat="49.0479" lon="7.70183">
        <ele>336</ele>
        <time>2020-06-11T13:13:09.000Z</time>
      </trkpt>
      <trkpt lat="49.0479" lon="7.70175">
        <ele>336</ele>
        <time>2020-06-11T13:13:19.000Z</time>
      </trkpt>
      <trkpt lat="49.04789" lon="7.70177">
        <ele>336</ele>
        <time>2020-06-11T13:13:29.000Z</time>
      </trkpt>
      <trkpt lat="49.04789" lon="7.70178">
        <ele>336</ele>
        <time>2020-06-11T13:14:48.000Z</time>
      </trkpt>
      <trkpt lat="49.04788" lon="7.70177">
        <ele>336</ele>
        <time>2020-06-11T13:18:15.000Z</time>
      </trkpt>
      <trkpt lat="49.04787" lon="7.7018">
        <ele>336</ele>
        <time>2020-06-11T13:18:25.000Z</time>
      </trkpt>
      <trkpt lat="49.04788" lon="7.7018">
        <ele>336</ele>
        <time>2020-06-11T13:18:36.000Z</time>
      </trkpt>
      <trkpt lat="49.04788" lon="7.70179">
        <ele>336</ele>
        <time>2020-06-11T13:19:22.000Z</time>
      </trkpt>
      <trkpt lat="49.04789" lon="7.70178">
        <ele>336</ele>
        <time>2020-06-11T13:19:36.000Z</time>
      </trkpt>
      <trkpt lat="49.04785" lon="7.70157">
        <ele>324</ele>
        <time>2020-06-11T13:19:46.000Z</time>
      </trkpt>
      <trkpt lat="49.04784" lon="7.70156">
        <ele>324</ele>
        <time>2020-06-11T13:19:56.000Z</time>
      </trkpt>
      <trkpt lat="49.04783" lon="7.70157">
        <ele>324</ele>
        <time>2020-06-11T13:20:29.000Z</time>
      </trkpt>
      <trkpt lat="49.04779" lon="7.70169">
        <ele>334</ele>
        <time>2020-06-11T13:20:39.000Z</time>
      </trkpt>
      <trkpt lat="49.0478" lon="7.70176">
        <ele>334</ele>
        <time>2020-06-11T13:20:49.000Z</time>
      </trkpt>
      <trkpt lat="49.0478" lon="7.70178">
        <ele>335</ele>
        <time>2020-06-11T13:20:59.000Z</time>
      </trkpt>
      <trkpt lat="49.0478" lon="7.7018">
        <ele>335</ele>
        <time>2020-06-11T13:21:19.000Z</time>
      </trkpt>
      <trkpt lat="49.04781" lon="7.70178">
        <ele>335</ele>
        <time>2020-06-11T13:21:29.000Z</time>
      </trkpt>
      <trkpt lat="49.04781" lon="7.70176">
        <ele>335</ele>
        <time>2020-06-11T13:21:39.000Z</time>
      </trkpt>
      <trkpt lat="49.0478" lon="7.70172">
        <ele>334</ele>
        <time>2020-06-11T13:21:49.000Z</time>
      </trkpt>
      <trkpt lat="49.04777" lon="7.70163">
        <ele>324</ele>
        <time>2020-06-11T13:21:59.000Z</time>
      </trkpt>
      <trkpt lat="49.04775" lon="7.70159">
        <ele>324</ele>
        <time>2020-06-11T13:22:09.000Z</time>
      </trkpt>
      <trkpt lat="49.04773" lon="7.70158">
        <ele>324</ele>
        <time>2020-06-11T13:22:19.000Z</time>
      </trkpt>
      <trkpt lat="49.04772" lon="7.70158">
        <ele>324</ele>
        <time>2020-06-11T13:22:32.000Z</time>
      </trkpt>
      <trkpt lat="49.0477" lon="7.70159">
        <ele>324</ele>
        <time>2020-06-11T13:22:42.000Z</time>
      </trkpt>
      <trkpt lat="49.04771" lon="7.70159">
        <ele>324</ele>
        <time>2020-06-11T13:22:52.000Z</time>
      </trkpt>
      <trkpt lat="49.04773" lon="7.70159">
        <ele>324</ele>
        <time>2020-06-11T13:23:02.000Z</time>
      </trkpt>
      <trkpt lat="49.04772" lon="7.70148">
        <ele>323</ele>
        <time>2020-06-11T13:23:12.000Z</time>
      </trkpt>
      <trkpt lat="49.04773" lon="7.70141">
        <ele>322</ele>
        <time>2020-06-11T13:23:22.000Z</time>
      </trkpt>
      <trkpt lat="49.04775" lon="7.7014">
        <ele>322</ele>
        <time>2020-06-11T13:23:32.000Z</time>
      </trkpt>
      <trkpt lat="49.04776" lon="7.7014">
        <ele>322</ele>
        <time>2020-06-11T13:23:42.000Z</time>
      </trkpt>
      <trkpt lat="49.04777" lon="7.70137">
        <ele>322</ele>
        <time>2020-06-11T13:23:52.000Z</time>
      </trkpt>
      <trkpt lat="49.04776" lon="7.70136">
        <ele>322</ele>
        <time>2020-06-11T13:24:10.000Z</time>
      </trkpt>
      <trkpt lat="49.04775" lon="7.70134">
        <ele>322</ele>
        <time>2020-06-11T13:24:20.000Z</time>
      </trkpt>
      <trkpt lat="49.0478" lon="7.70127">
        <ele>321</ele>
        <time>2020-06-11T13:24:30.000Z</time>
      </trkpt>
      <trkpt lat="49.0478" lon="7.70117">
        <ele>320</ele>
        <time>2020-06-11T13:24:40.000Z</time>
      </trkpt>
      <trkpt lat="49.04781" lon="7.70113">
        <ele>320</ele>
        <time>2020-06-11T13:24:50.000Z</time>
      </trkpt>
      <trkpt lat="49.04781" lon="7.7011">
        <ele>319</ele>
        <time>2020-06-11T13:25:00.000Z</time>
      </trkpt>
      <trkpt lat="49.04782" lon="7.70111">
        <ele>319</ele>
        <time>2020-06-11T13:25:29.000Z</time>
      </trkpt>
      <trkpt lat="49.04783" lon="7.70115">
        <ele>320</ele>
        <time>2020-06-11T13:25:39.000Z</time>
      </trkpt>
      <trkpt lat="49.04785" lon="7.70119">
        <ele>321</ele>
        <time>2020-06-11T13:25:49.000Z</time>
      </trkpt>
      <trkpt lat="49.04787" lon="7.70122">
        <ele>321</ele>
        <time>2020-06-11T13:25:59.000Z</time>
      </trkpt>
      <trkpt lat="49.04786" lon="7.70124">
        <ele>321</ele>
        <time>2020-06-11T13:26:09.000Z</time>
      </trkpt>
      <trkpt lat="49.04787" lon="7.70126">
        <ele>321</ele>
        <time>2020-06-11T13:26:31.000Z</time>
      </trkpt>
      <trkpt lat="49.04788" lon="7.70129">
        <ele>322</ele>
        <time>2020-06-11T13:26:41.000Z</time>
      </trkpt>
      <trkpt lat="49.04788" lon="7.70131">
        <ele>322</ele>
        <time>2020-06-11T13:27:04.000Z</time>
      </trkpt>
      <trkpt lat="49.04788" lon="7.70136">
        <ele>322</ele>
        <time>2020-06-11T13:27:17.000Z</time>
      </trkpt>
      <trkpt lat="49.04787" lon="7.70138">
        <ele>323</ele>
        <time>2020-06-11T13:27:27.000Z</time>
      </trkpt>
      <trkpt lat="49.04792" lon="7.70147">
        <ele>324</ele>
        <time>2020-06-11T13:27:37.000Z</time>
      </trkpt>
      <trkpt lat="49.04792" lon="7.70148">
        <ele>324</ele>
        <time>2020-06-11T13:27:49.000Z</time>
      </trkpt>
      <trkpt lat="49.04793" lon="7.70149">
        <ele>324</ele>
        <time>2020-06-11T13:28:01.000Z</time>
      </trkpt>
      <trkpt lat="49.04793" lon="7.70147">
        <ele>324</ele>
        <time>2020-06-11T13:28:19.000Z</time>
      </trkpt>
      <trkpt lat="49.04793" lon="7.70146">
        <ele>324</ele>
        <time>2020-06-11T13:28:35.000Z</time>
      </trkpt>
      <trkpt lat="49.04795" lon="7.70151">
        <ele>324</ele>
        <time>2020-06-11T13:28:45.000Z</time>
      </trkpt>
      <trkpt lat="49.04793" lon="7.70158">
        <ele>325</ele>
        <time>2020-06-11T13:28:55.000Z</time>
      </trkpt>
      <trkpt lat="49.0479" lon="7.70176">
        <ele>336</ele>
        <time>2020-06-11T13:29:05.000Z</time>
      </trkpt>
      <trkpt lat="49.04789" lon="7.70177">
        <ele>336</ele>
        <time>2020-06-11T13:29:15.000Z</time>
      </trkpt>
      <trkpt lat="49.04787" lon="7.7017">
        <ele>335</ele>
        <time>2020-06-11T13:29:51.000Z</time>
      </trkpt>
      <trkpt lat="49.04788" lon="7.70173">
        <ele>335</ele>
        <time>2020-06-11T13:30:28.001Z</time>
      </trkpt>
      <trkpt lat="49.04789" lon="7.70175">
        <ele>336</ele>
        <time>2020-06-11T13:30:38.001Z</time>
      </trkpt>
      <trkpt lat="49.0479" lon="7.70176">
        <ele>336</ele>
        <time>2020-06-11T13:30:48.001Z</time>
      </trkpt>
      <trkpt lat="49.04796" lon="7.70162">
        <ele>325</ele>
        <time>2020-06-11T13:30:58.001Z</time>
      </trkpt>
      <trkpt lat="49.04794" lon="7.70151">
        <ele>324</ele>
        <time>2020-06-11T13:31:08.001Z</time>
      </trkpt>
      <trkpt lat="49.04793" lon="7.70148">
        <ele>324</ele>
        <time>2020-06-11T13:31:18.001Z</time>
      </trkpt>
      <trkpt lat="49.04791" lon="7.70145">
        <ele>323</ele>
        <time>2020-06-11T13:31:28.001Z</time>
      </trkpt>
      <trkpt lat="49.04789" lon="7.70144">
        <ele>323</ele>
        <time>2020-06-11T13:31:50.001Z</time>
      </trkpt>
      <trkpt lat="49.04789" lon="7.70134">
        <ele>322</ele>
        <time>2020-06-11T13:32:00.000Z</time>
      </trkpt>
      <trkpt lat="49.04787" lon="7.70132">
        <ele>322</ele>
        <time>2020-06-11T13:32:11.001Z</time>
      </trkpt>
      <trkpt lat="49.04787" lon="7.7013">
        <ele>322</ele>
        <time>2020-06-11T13:32:21.001Z</time>
      </trkpt>
      <trkpt lat="49.04786" lon="7.70127">
        <ele>321</ele>
        <time>2020-06-11T13:32:31.001Z</time>
      </trkpt>
      <trkpt lat="49.04785" lon="7.70126">
        <ele>321</ele>
        <time>2020-06-11T13:32:47.001Z</time>
      </trkpt>
      <trkpt lat="49.04785" lon="7.70131">
        <ele>322</ele>
        <time>2020-06-11T13:32:57.001Z</time>
      </trkpt>
      <trkpt lat="49.04779" lon="7.7013">
        <ele>321</ele>
        <time>2020-06-11T13:33:07.001Z</time>
      </trkpt>
      <trkpt lat="49.04777" lon="7.70135">
        <ele>322</ele>
        <time>2020-06-11T13:33:17.001Z</time>
      </trkpt>
      <trkpt lat="49.04784" lon="7.70138">
        <ele>322</ele>
        <time>2020-06-11T13:33:27.001Z</time>
      </trkpt>
      <trkpt lat="49.04785" lon="7.70139">
        <ele>323</ele>
        <time>2020-06-11T13:33:37.001Z</time>
      </trkpt>
      <trkpt lat="49.04785" lon="7.70142">
        <ele>323</ele>
        <time>2020-06-11T13:33:47.001Z</time>
      </trkpt>
      <trkpt lat="49.04782" lon="7.70145">
        <ele>323</ele>
        <time>2020-06-11T13:33:57.001Z</time>
      </trkpt>
      <trkpt lat="49.04778" lon="7.70145">
        <ele>323</ele>
        <time>2020-06-11T13:34:07.001Z</time>
      </trkpt>
      <trkpt lat="49.04776" lon="7.70156">
        <ele>323</ele>
        <time>2020-06-11T13:34:17.001Z</time>
      </trkpt>
      <trkpt lat="49.04775" lon="7.70157">
        <ele>324</ele>
        <time>2020-06-11T13:34:27.001Z</time>
      </trkpt>
      <trkpt lat="49.04773" lon="7.70161">
        <ele>324</ele>
        <time>2020-06-11T13:35:06.001Z</time>
      </trkpt>
      <trkpt lat="49.04777" lon="7.7017">
        <ele>334</ele>
        <time>2020-06-11T13:35:16.000Z</time>
      </trkpt>
      <trkpt lat="49.04775" lon="7.70177">
        <ele>334</ele>
        <time>2020-06-11T13:35:25.001Z</time>
      </trkpt>
      <trkpt lat="49.04773" lon="7.70186">
        <ele>335</ele>
        <time>2020-06-11T13:35:35.001Z</time>
      </trkpt>
      <trkpt lat="49.0477" lon="7.70197">
        <ele>336</ele>
        <time>2020-06-11T13:35:45.001Z</time>
      </trkpt>
      <trkpt lat="49.0477" lon="7.70203">
        <ele>337</ele>
        <time>2020-06-11T13:35:55.001Z</time>
      </trkpt>
      <trkpt lat="49.04771" lon="7.70211">
        <ele>338</ele>
        <time>2020-06-11T13:36:05.001Z</time>
      </trkpt>
      <trkpt lat="49.0477" lon="7.70214">
        <ele>338</ele>
        <time>2020-06-11T13:36:15.001Z</time>
      </trkpt>
      <trkpt lat="49.0477" lon="7.70212">
        <ele>338</ele>
        <time>2020-06-11T13:36:28.001Z</time>
      </trkpt>
      <trkpt lat="49.0477" lon="7.70211">
        <ele>338</ele>
        <time>2020-06-11T13:36:45.001Z</time>
      </trkpt>
      <trkpt lat="49.0477" lon="7.70208">
        <ele>337</ele>
        <time>2020-06-11T13:36:55.001Z</time>
      </trkpt>
      <trkpt lat="49.04771" lon="7.70207">
        <ele>337</ele>
        <time>2020-06-11T13:37:12.001Z</time>
      </trkpt>
      <trkpt lat="49.04776" lon="7.70213">
        <ele>338</ele>
        <time>2020-06-11T13:37:22.001Z</time>
      </trkpt>
      <trkpt lat="49.04778" lon="7.70222">
        <ele>339</ele>
        <time>2020-06-11T13:37:32.001Z</time>
      </trkpt>
      <trkpt lat="49.0478" lon="7.70234">
        <ele>340</ele>
        <time>2020-06-11T13:37:42.001Z</time>
      </trkpt>
      <trkpt lat="49.04779" lon="7.70245">
        <ele>341</ele>
        <time>2020-06-11T13:37:52.001Z</time>
      </trkpt>
      <trkpt lat="49.04778" lon="7.70252">
        <ele>351</ele>
        <time>2020-06-11T13:38:02.000Z</time>
      </trkpt>
      <trkpt lat="49.0478" lon="7.70251">
        <ele>351</ele>
        <time>2020-06-11T13:38:11.001Z</time>
      </trkpt>
      <trkpt lat="49.04785" lon="7.70254">
        <ele>352</ele>
        <time>2020-06-11T13:38:21.001Z</time>
      </trkpt>
      <trkpt lat="49.04786" lon="7.70254">
        <ele>352</ele>
        <time>2020-06-11T13:38:31.001Z</time>
      </trkpt>
      <trkpt lat="49.04787" lon="7.70255">
        <ele>352</ele>
        <time>2020-06-11T13:39:19.001Z</time>
      </trkpt>
      <trkpt lat="49.04786" lon="7.70256">
        <ele>352</ele>
        <time>2020-06-11T13:40:17.001Z</time>
      </trkpt>
      <trkpt lat="49.04779" lon="7.70259">
        <ele>352</ele>
        <time>2020-06-11T13:40:27.001Z</time>
      </trkpt>
      <trkpt lat="49.04776" lon="7.70264">
        <ele>352</ele>
        <time>2020-06-11T13:40:37.001Z</time>
      </trkpt>
      <trkpt lat="49.04773" lon="7.70269">
        <ele>352</ele>
        <time>2020-06-11T13:40:47.001Z</time>
      </trkpt>
      <trkpt lat="49.04772" lon="7.70269">
        <ele>352</ele>
        <time>2020-06-11T13:41:58.001Z</time>
      </trkpt>
      <trkpt lat="49.04765" lon="7.70278">
        <ele>353</ele>
        <time>2020-06-11T13:42:08.001Z</time>
      </trkpt>
      <trkpt lat="49.04761" lon="7.70284">
        <ele>354</ele>
        <time>2020-06-11T13:42:18.001Z</time>
      </trkpt>
      <trkpt lat="49.0475" lon="7.70298">
        <ele>351</ele>
        <time>2020-06-11T13:42:28.001Z</time>
      </trkpt>
      <trkpt lat="49.04739" lon="7.70305">
        <ele>352</ele>
        <time>2020-06-11T13:42:38.001Z</time>
      </trkpt>
      <trkpt lat="49.0473" lon="7.70309">
        <ele>352</ele>
        <time>2020-06-11T13:42:48.001Z</time>
      </trkpt>
      <trkpt lat="49.04725" lon="7.70313">
        <ele>351</ele>
        <time>2020-06-11T13:42:58.001Z</time>
      </trkpt>
      <trkpt lat="49.04718" lon="7.70316">
        <ele>351</ele>
        <time>2020-06-11T13:43:08.001Z</time>
      </trkpt>
      <trkpt lat="49.04713" lon="7.70318">
        <ele>350</ele>
        <time>2020-06-11T13:43:18.001Z</time>
      </trkpt>
      <trkpt lat="49.0471" lon="7.70321">
        <ele>350</ele>
        <time>2020-06-11T13:43:28.001Z</time>
      </trkpt>
      <trkpt lat="49.04701" lon="7.70327">
        <ele>349</ele>
        <time>2020-06-11T13:43:38.001Z</time>
      </trkpt>
      <trkpt lat="49.04698" lon="7.70329">
        <ele>349</ele>
        <time>2020-06-11T13:43:52.001Z</time>
      </trkpt>
      <trkpt lat="49.04694" lon="7.70336">
        <ele>360</ele>
        <time>2020-06-11T13:44:02.000Z</time>
      </trkpt>
      <trkpt lat="49.04691" lon="7.70342">
        <ele>360</ele>
        <time>2020-06-11T13:44:11.001Z</time>
      </trkpt>
      <trkpt lat="49.04689" lon="7.70346">
        <ele>360</ele>
        <time>2020-06-11T13:44:21.001Z</time>
      </trkpt>
      <trkpt lat="49.0468" lon="7.70359">
        <ele>361</ele>
        <time>2020-06-11T13:44:31.001Z</time>
      </trkpt>
      <trkpt lat="49.0467" lon="7.70371">
        <ele>362</ele>
        <time>2020-06-11T13:44:41.001Z</time>
      </trkpt>
      <trkpt lat="49.04658" lon="7.70378">
        <ele>365</ele>
        <time>2020-06-11T13:44:51.001Z</time>
      </trkpt>
      <trkpt lat="49.04641" lon="7.70371">
        <ele>366</ele>
        <time>2020-06-11T13:45:01.001Z</time>
      </trkpt>
      <trkpt lat="49.04633" lon="7.70351">
        <ele>365</ele>
        <time>2020-06-11T13:45:11.001Z</time>
      </trkpt>
      <trkpt lat="49.04628" lon="7.70331">
        <ele>356</ele>
        <time>2020-06-11T13:45:21.001Z</time>
      </trkpt>
      <trkpt lat="49.04624" lon="7.70316">
        <ele>356</ele>
        <time>2020-06-11T13:45:31.001Z</time>
      </trkpt>
      <trkpt lat="49.04623" lon="7.7031">
        <ele>356</ele>
        <time>2020-06-11T13:45:41.001Z</time>
      </trkpt>
      <trkpt lat="49.04622" lon="7.70307">
        <ele>356</ele>
        <time>2020-06-11T13:45:59.001Z</time>
      </trkpt>
      <trkpt lat="49.04621" lon="7.70302">
        <ele>356</ele>
        <time>2020-06-11T13:46:09.001Z</time>
      </trkpt>
      <trkpt lat="49.04621" lon="7.70291">
        <ele>355</ele>
        <time>2020-06-11T13:46:19.001Z</time>
      </trkpt>
      <trkpt lat="49.04621" lon="7.70276">
        <ele>353</ele>
        <time>2020-06-11T13:46:29.001Z</time>
      </trkpt>
      <trkpt lat="49.0462" lon="7.70264">
        <ele>353</ele>
        <time>2020-06-11T13:46:39.001Z</time>
      </trkpt>
      <trkpt lat="49.0462" lon="7.70262">
        <ele>353</ele>
        <time>2020-06-11T13:46:49.001Z</time>
      </trkpt>
      <trkpt lat="49.0462" lon="7.7026">
        <ele>353</ele>
        <time>2020-06-11T13:46:59.001Z</time>
      </trkpt>
      <trkpt lat="49.0462" lon="7.70251">
        <ele>353</ele>
        <time>2020-06-11T13:47:09.001Z</time>
      </trkpt>
      <trkpt lat="49.04616" lon="7.70235">
        <ele>343</ele>
        <time>2020-06-11T13:47:19.001Z</time>
      </trkpt>
      <trkpt lat="49.04615" lon="7.70227">
        <ele>342</ele>
        <time>2020-06-11T13:47:29.001Z</time>
      </trkpt>
      <trkpt lat="49.04613" lon="7.70205">
        <ele>340</ele>
        <time>2020-06-11T13:47:39.001Z</time>
      </trkpt>
      <trkpt lat="49.04611" lon="7.70192">
        <ele>339</ele>
        <time>2020-06-11T13:47:49.001Z</time>
      </trkpt>
      <trkpt lat="49.04609" lon="7.70184">
        <ele>339</ele>
        <time>2020-06-11T13:47:59.001Z</time>
      </trkpt>
      <trkpt lat="49.04609" lon="7.70182">
        <ele>339</ele>
        <time>2020-06-11T13:48:09.001Z</time>
      </trkpt>
      <trkpt lat="49.04608" lon="7.7018">
        <ele>339</ele>
        <time>2020-06-11T13:48:48.001Z</time>
      </trkpt>
      <trkpt lat="49.04606" lon="7.70174">
        <ele>339</ele>
        <time>2020-06-11T13:48:58.001Z</time>
      </trkpt>
      <trkpt lat="49.04605" lon="7.70163">
        <ele>331</ele>
        <time>2020-06-11T13:49:08.001Z</time>
      </trkpt>
      <trkpt lat="49.04605" lon="7.70158">
        <ele>330</ele>
        <time>2020-06-11T13:49:18.001Z</time>
      </trkpt>
      <trkpt lat="49.04605" lon="7.70157">
        <ele>330</ele>
        <time>2020-06-11T13:49:28.001Z</time>
      </trkpt>
      <trkpt lat="49.04602" lon="7.70145">
        <ele>329</ele>
        <time>2020-06-11T13:49:38.001Z</time>
      </trkpt>
      <trkpt lat="49.04601" lon="7.70142">
        <ele>328</ele>
        <time>2020-06-11T13:49:48.001Z</time>
      </trkpt>
      <trkpt lat="49.046" lon="7.7014">
        <ele>328</ele>
        <time>2020-06-11T13:50:06.001Z</time>
      </trkpt>
      <trkpt lat="49.0459" lon="7.70123">
        <ele>326</ele>
        <time>2020-06-11T13:50:16.000Z</time>
      </trkpt>
      <trkpt lat="49.04582" lon="7.70111">
        <ele>335</ele>
        <time>2020-06-11T13:50:25.001Z</time>
      </trkpt>
      <trkpt lat="49.04568" lon="7.70099">
        <ele>333</ele>
        <time>2020-06-11T13:50:35.001Z</time>
      </trkpt>
      <trkpt lat="49.04559" lon="7.7009">
        <ele>334</ele>
        <time>2020-06-11T13:50:45.001Z</time>
      </trkpt>
      <trkpt lat="49.0455" lon="7.70082">
        <ele>320</ele>
        <time>2020-06-11T13:50:55.001Z</time>
      </trkpt>
      <trkpt lat="49.04542" lon="7.70076">
        <ele>320</ele>
        <time>2020-06-11T13:51:05.001Z</time>
      </trkpt>
      <trkpt lat="49.04533" lon="7.7007">
        <ele>320</ele>
        <time>2020-06-11T13:51:15.001Z</time>
      </trkpt>
      <trkpt lat="49.04524" lon="7.70065">
        <ele>321</ele>
        <time>2020-06-11T13:51:25.001Z</time>
      </trkpt>
      <trkpt lat="49.04524" lon="7.70064">
        <ele>321</ele>
        <time>2020-06-11T13:51:35.001Z</time>
      </trkpt>
      <trkpt lat="49.04528" lon="7.70061">
        <ele>320</ele>
        <time>2020-06-11T13:51:59.001Z</time>
      </trkpt>
      <trkpt lat="49.04523" lon="7.70061">
        <ele>320</ele>
        <time>2020-06-11T13:52:09.001Z</time>
      </trkpt>
      <trkpt lat="49.04514" lon="7.70059">
        <ele>321</ele>
        <time>2020-06-11T13:52:19.001Z</time>
      </trkpt>
      <trkpt lat="49.04504" lon="7.70054">
        <ele>320</ele>
        <time>2020-06-11T13:52:29.001Z</time>
      </trkpt>
      <trkpt lat="49.04491" lon="7.7005">
        <ele>320</ele>
        <time>2020-06-11T13:52:39.001Z</time>
      </trkpt>
      <trkpt lat="49.04481" lon="7.70047">
        <ele>319</ele>
        <time>2020-06-11T13:52:49.001Z</time>
      </trkpt>
      <trkpt lat="49.0447" lon="7.70046">
        <ele>319</ele>
        <time>2020-06-11T13:52:59.001Z</time>
      </trkpt>
      <trkpt lat="49.04454" lon="7.70043">
        <ele>318</ele>
        <time>2020-06-11T13:53:09.001Z</time>
      </trkpt>
      <trkpt lat="49.04443" lon="7.70038">
        <ele>317</ele>
        <time>2020-06-11T13:53:19.001Z</time>
      </trkpt>
      <trkpt lat="49.04432" lon="7.70035">
        <ele>316</ele>
        <time>2020-06-11T13:53:29.001Z</time>
      </trkpt>
      <trkpt lat="49.04429" lon="7.70037">
        <ele>317</ele>
        <time>2020-06-11T13:53:39.001Z</time>
      </trkpt>
      <trkpt lat="49.0443" lon="7.70036">
        <ele>316</ele>
        <time>2020-06-11T13:53:49.001Z</time>
      </trkpt>
      <trkpt lat="49.04426" lon="7.70035">
        <ele>316</ele>
        <time>2020-06-11T13:53:59.001Z</time>
      </trkpt>
      <trkpt lat="49.04425" lon="7.70034">
        <ele>316</ele>
        <time>2020-06-11T13:54:09.001Z</time>
      </trkpt>
      <trkpt lat="49.04419" lon="7.70032">
        <ele>315</ele>
        <time>2020-06-11T13:54:19.001Z</time>
      </trkpt>
      <trkpt lat="49.04411" lon="7.70032">
        <ele>316</ele>
        <time>2020-06-11T13:54:29.001Z</time>
      </trkpt>
      <trkpt lat="49.04399" lon="7.70028">
        <ele>316</ele>
        <time>2020-06-11T13:54:39.001Z</time>
      </trkpt>
      <trkpt lat="49.04386" lon="7.70018">
        <ele>315</ele>
        <time>2020-06-11T13:54:49.001Z</time>
      </trkpt>
      <trkpt lat="49.04379" lon="7.70013">
        <ele>315</ele>
        <time>2020-06-11T13:54:59.001Z</time>
      </trkpt>
      <trkpt lat="49.04375" lon="7.70008">
        <ele>315</ele>
        <time>2020-06-11T13:55:09.001Z</time>
      </trkpt>
      <trkpt lat="49.04365" lon="7.69998">
        <ele>300</ele>
        <time>2020-06-11T13:55:19.001Z</time>
      </trkpt>
      <trkpt lat="49.04353" lon="7.69991">
        <ele>301</ele>
        <time>2020-06-11T13:55:29.001Z</time>
      </trkpt>
      <trkpt lat="49.04344" lon="7.69983">
        <ele>301</ele>
        <time>2020-06-11T13:55:39.001Z</time>
      </trkpt>
      <trkpt lat="49.04337" lon="7.69977">
        <ele>301</ele>
        <time>2020-06-11T13:55:49.001Z</time>
      </trkpt>
      <trkpt lat="49.04327" lon="7.69968">
        <ele>303</ele>
        <time>2020-06-11T13:55:59.001Z</time>
      </trkpt>
      <trkpt lat="49.04319" lon="7.69958">
        <ele>301</ele>
        <time>2020-06-11T13:56:09.001Z</time>
      </trkpt>
      <trkpt lat="49.04311" lon="7.69949">
        <ele>300</ele>
        <time>2020-06-11T13:56:19.001Z</time>
      </trkpt>
      <trkpt lat="49.04301" lon="7.69931">
        <ele>298</ele>
        <time>2020-06-11T13:56:29.001Z</time>
      </trkpt>
      <trkpt lat="49.0429" lon="7.69924">
        <ele>299</ele>
        <time>2020-06-11T13:56:39.001Z</time>
      </trkpt>
      <trkpt lat="49.04285" lon="7.69918">
        <ele>298</ele>
        <time>2020-06-11T13:56:49.001Z</time>
      </trkpt>
      <trkpt lat="49.04275" lon="7.69912">
        <ele>287</ele>
        <time>2020-06-11T13:56:59.001Z</time>
      </trkpt>
      <trkpt lat="49.04266" lon="7.69909">
        <ele>289</ele>
        <time>2020-06-11T13:57:09.001Z</time>
      </trkpt>
      <trkpt lat="49.04256" lon="7.69905">
        <ele>289</ele>
        <time>2020-06-11T13:57:19.001Z</time>
      </trkpt>
      <trkpt lat="49.04246" lon="7.69903">
        <ele>291</ele>
        <time>2020-06-11T13:57:29.001Z</time>
      </trkpt>
      <trkpt lat="49.04235" lon="7.69901">
        <ele>290</ele>
        <time>2020-06-11T13:57:39.001Z</time>
      </trkpt>
      <trkpt lat="49.04224" lon="7.69898">
        <ele>289</ele>
        <time>2020-06-11T13:57:49.001Z</time>
      </trkpt>
      <trkpt lat="49.04211" lon="7.69891">
        <ele>288</ele>
        <time>2020-06-11T13:57:59.001Z</time>
      </trkpt>
      <trkpt lat="49.04197" lon="7.69878">
        <ele>287</ele>
        <time>2020-06-11T13:58:09.001Z</time>
      </trkpt>
      <trkpt lat="49.04187" lon="7.69868">
        <ele>285</ele>
        <time>2020-06-11T13:58:19.001Z</time>
      </trkpt>
      <trkpt lat="49.04176" lon="7.69861">
        <ele>284</ele>
        <time>2020-06-11T13:58:29.001Z</time>
      </trkpt>
      <trkpt lat="49.04167" lon="7.69852">
        <ele>282</ele>
        <time>2020-06-11T13:58:39.001Z</time>
      </trkpt>
      <trkpt lat="49.04161" lon="7.69844">
        <ele>282</ele>
        <time>2020-06-11T13:58:49.001Z</time>
      </trkpt>
      <trkpt lat="49.04149" lon="7.69838">
        <ele>283</ele>
        <time>2020-06-11T13:58:59.001Z</time>
      </trkpt>
      <trkpt lat="49.04141" lon="7.69835">
        <ele>284</ele>
        <time>2020-06-11T13:59:09.001Z</time>
      </trkpt>
      <trkpt lat="49.04133" lon="7.69831">
        <ele>274</ele>
        <time>2020-06-11T13:59:19.001Z</time>
      </trkpt>
      <trkpt lat="49.04118" lon="7.69827">
        <ele>274</ele>
        <time>2020-06-11T13:59:29.001Z</time>
      </trkpt>
      <trkpt lat="49.04107" lon="7.69823">
        <ele>274</ele>
        <time>2020-06-11T13:59:39.001Z</time>
      </trkpt>
      <trkpt lat="49.04098" lon="7.69818">
        <ele>275</ele>
        <time>2020-06-11T13:59:49.001Z</time>
      </trkpt>
      <trkpt lat="49.04089" lon="7.69813">
        <ele>274</ele>
        <time>2020-06-11T13:59:59.001Z</time>
      </trkpt>
      <trkpt lat="49.04077" lon="7.69806">
        <ele>272</ele>
        <time>2020-06-11T14:00:09.001Z</time>
      </trkpt>
      <trkpt lat="49.04063" lon="7.69801">
        <ele>271</ele>
        <time>2020-06-11T14:00:19.001Z</time>
      </trkpt>
      <trkpt lat="49.04055" lon="7.69797">
        <ele>271</ele>
        <time>2020-06-11T14:00:29.001Z</time>
      </trkpt>
      <trkpt lat="49.0405" lon="7.69795">
        <ele>270</ele>
        <time>2020-06-11T14:00:39.001Z</time>
      </trkpt>
      <trkpt lat="49.04049" lon="7.69794">
        <ele>270</ele>
        <time>2020-06-11T14:00:49.001Z</time>
      </trkpt>
      <trkpt lat="49.04045" lon="7.69794">
        <ele>270</ele>
        <time>2020-06-11T14:00:59.001Z</time>
      </trkpt>
      <trkpt lat="49.04032" lon="7.69793">
        <ele>270</ele>
        <time>2020-06-11T14:01:09.001Z</time>
      </trkpt>
      <trkpt lat="49.04018" lon="7.69791">
        <ele>269</ele>
        <time>2020-06-11T14:01:19.001Z</time>
      </trkpt>
      <trkpt lat="49.04005" lon="7.69785">
        <ele>268</ele>
        <time>2020-06-11T14:01:29.001Z</time>
      </trkpt>
      <trkpt lat="49.04007" lon="7.6978">
        <ele>268</ele>
        <time>2020-06-11T14:01:39.001Z</time>
      </trkpt>
      <trkpt lat="49.04003" lon="7.69783">
        <ele>268</ele>
        <time>2020-06-11T14:01:49.001Z</time>
      </trkpt>
      <trkpt lat="49.03998" lon="7.69772">
        <ele>263</ele>
        <time>2020-06-11T14:01:59.001Z</time>
      </trkpt>
      <trkpt lat="49.03995" lon="7.69769">
        <ele>262</ele>
        <time>2020-06-11T14:02:09.001Z</time>
      </trkpt>
      <trkpt lat="49.04004" lon="7.69768">
        <ele>266</ele>
        <time>2020-06-11T14:03:20.001Z</time>
      </trkpt>
      <trkpt lat="49.04011" lon="7.69761">
        <ele>265</ele>
        <time>2020-06-11T14:03:30.001Z</time>
      </trkpt>
      <trkpt lat="49.04012" lon="7.69759">
        <ele>265</ele>
        <time>2020-06-11T14:03:40.001Z</time>
      </trkpt>
      <trkpt lat="49.04009" lon="7.69756">
        <ele>264</ele>
        <time>2020-06-11T14:03:50.001Z</time>
      </trkpt>
      <trkpt lat="49.04008" lon="7.69755">
        <ele>264</ele>
        <time>2020-06-11T14:04:00.000Z</time>
      </trkpt>
      <trkpt lat="49.04001" lon="7.6975">
        <ele>261</ele>
        <time>2020-06-11T14:04:09.001Z</time>
      </trkpt>
      <trkpt lat="49.04" lon="7.69749">
        <ele>261</ele>
        <time>2020-06-11T14:04:19.001Z</time>
      </trkpt>
      <trkpt lat="49.03998" lon="7.69748">
        <ele>261</ele>
        <time>2020-06-11T14:04:29.001Z</time>
      </trkpt>
      <trkpt lat="49.03986" lon="7.69741">
        <ele>261</ele>
        <time>2020-06-11T14:04:39.001Z</time>
      </trkpt>
      <trkpt lat="49.03983" lon="7.6974">
        <ele>261</ele>
        <time>2020-06-11T14:04:49.001Z</time>
      </trkpt>
      <trkpt lat="49.03975" lon="7.69739">
        <ele>260</ele>
        <time>2020-06-11T14:05:12.001Z</time>
      </trkpt>
      <trkpt lat="49.03974" lon="7.69738">
        <ele>260</ele>
        <time>2020-06-11T14:05:24.001Z</time>
      </trkpt>
      <trkpt lat="49.03968" lon="7.69729">
        <ele>260</ele>
        <time>2020-06-11T14:05:34.001Z</time>
      </trkpt>
      <trkpt lat="49.03962" lon="7.69706">
        <ele>261</ele>
        <time>2020-06-11T14:05:44.001Z</time>
      </trkpt>
      <trkpt lat="49.03959" lon="7.69693">
        <ele>262</ele>
        <time>2020-06-11T14:05:54.001Z</time>
      </trkpt>
      <trkpt lat="49.03958" lon="7.69691">
        <ele>262</ele>
        <time>2020-06-11T14:06:04.001Z</time>
      </trkpt>
      <trkpt lat="49.03958" lon="7.69683">
        <ele>262</ele>
        <time>2020-06-11T14:06:14.001Z</time>
      </trkpt>
      <trkpt lat="49.03956" lon="7.69667">
        <ele>269</ele>
        <time>2020-06-11T14:06:24.001Z</time>
      </trkpt>
      <trkpt lat="49.03955" lon="7.69651">
        <ele>270</ele>
        <time>2020-06-11T14:06:34.001Z</time>
      </trkpt>
      <trkpt lat="49.03956" lon="7.69642">
        <ele>270</ele>
        <time>2020-06-11T14:06:44.001Z</time>
      </trkpt>
      <trkpt lat="49.03954" lon="7.69616">
        <ele>272</ele>
        <time>2020-06-11T14:06:54.001Z</time>
      </trkpt>
      <trkpt lat="49.03952" lon="7.696">
        <ele>273</ele>
        <time>2020-06-11T14:07:04.001Z</time>
      </trkpt>
      <trkpt lat="49.03952" lon="7.69598">
        <ele>273</ele>
        <time>2020-06-11T14:07:14.001Z</time>
      </trkpt>
      <trkpt lat="49.03952" lon="7.69596">
        <ele>273</ele>
        <time>2020-06-11T14:07:26.001Z</time>
      </trkpt>
      <trkpt lat="49.03953" lon="7.69594">
        <ele>273</ele>
        <time>2020-06-11T14:08:25.001Z</time>
      </trkpt>
      <trkpt lat="49.03953" lon="7.69582">
        <ele>282</ele>
        <time>2020-06-11T14:08:35.001Z</time>
      </trkpt>
      <trkpt lat="49.03954" lon="7.69577">
        <ele>282</ele>
        <time>2020-06-11T14:08:45.001Z</time>
      </trkpt>
      <trkpt lat="49.03954" lon="7.69573">
        <ele>282</ele>
        <time>2020-06-11T14:08:55.001Z</time>
      </trkpt>
      <trkpt lat="49.03952" lon="7.69569">
        <ele>282</ele>
        <time>2020-06-11T14:09:05.001Z</time>
      </trkpt>
      <trkpt lat="49.03951" lon="7.69566">
        <ele>282</ele>
        <time>2020-06-11T14:09:15.001Z</time>
      </trkpt>
      <trkpt lat="49.03951" lon="7.69556">
        <ele>283</ele>
        <time>2020-06-11T14:09:25.001Z</time>
      </trkpt>
      <trkpt lat="49.0395" lon="7.69554">
        <ele>283</ele>
        <time>2020-06-11T14:09:35.001Z</time>
      </trkpt>
      <trkpt lat="49.0395" lon="7.69549">
        <ele>284</ele>
        <time>2020-06-11T14:09:45.001Z</time>
      </trkpt>
      <trkpt lat="49.0395" lon="7.69548">
        <ele>284</ele>
        <time>2020-06-11T14:10:00.000Z</time>
      </trkpt>
      <trkpt lat="49.03945" lon="7.69541">
        <ele>284</ele>
        <time>2020-06-11T14:10:09.001Z</time>
      </trkpt>
      <trkpt lat="49.03938" lon="7.69527">
        <ele>285</ele>
        <time>2020-06-11T14:10:19.001Z</time>
      </trkpt>
      <trkpt lat="49.03932" lon="7.69519">
        <ele>285</ele>
        <time>2020-06-11T14:10:29.001Z</time>
      </trkpt>
      <trkpt lat="49.03923" lon="7.69504">
        <ele>284</ele>
        <time>2020-06-11T14:10:39.001Z</time>
      </trkpt>
      <trkpt lat="49.03919" lon="7.69489">
        <ele>290</ele>
        <time>2020-06-11T14:10:49.001Z</time>
      </trkpt>
      <trkpt lat="49.03914" lon="7.69476">
        <ele>282</ele>
        <time>2020-06-11T14:10:59.001Z</time>
      </trkpt>
      <trkpt lat="49.03908" lon="7.69464">
        <ele>282</ele>
        <time>2020-06-11T14:11:09.001Z</time>
      </trkpt>
      <trkpt lat="49.03903" lon="7.69449">
        <ele>283</ele>
        <time>2020-06-11T14:11:19.001Z</time>
      </trkpt>
      <trkpt lat="49.03901" lon="7.69434">
        <ele>285</ele>
        <time>2020-06-11T14:11:29.001Z</time>
      </trkpt>
      <trkpt lat="49.03898" lon="7.69418">
        <ele>287</ele>
        <time>2020-06-11T14:11:39.001Z</time>
      </trkpt>
      <trkpt lat="49.03896" lon="7.69412">
        <ele>291</ele>
        <time>2020-06-11T14:11:49.001Z</time>
      </trkpt>
      <trkpt lat="49.03896" lon="7.69409">
        <ele>291</ele>
        <time>2020-06-11T14:11:59.001Z</time>
      </trkpt>
      <trkpt lat="49.03894" lon="7.69404">
        <ele>291</ele>
        <time>2020-06-11T14:12:09.001Z</time>
      </trkpt>
      <trkpt lat="49.03893" lon="7.69401">
        <ele>291</ele>
        <time>2020-06-11T14:12:19.001Z</time>
      </trkpt>
      <trkpt lat="49.03893" lon="7.69399">
        <ele>291</ele>
        <time>2020-06-11T14:12:31.001Z</time>
      </trkpt>
      <trkpt lat="49.03887" lon="7.6939">
        <ele>290</ele>
        <time>2020-06-11T14:12:41.001Z</time>
      </trkpt>
      <trkpt lat="49.03887" lon="7.69388">
        <ele>290</ele>
        <time>2020-06-11T14:12:51.001Z</time>
      </trkpt>
      <trkpt lat="49.03886" lon="7.69387">
        <ele>290</ele>
        <time>2020-06-11T14:13:18.001Z</time>
      </trkpt>
      <trkpt lat="49.03884" lon="7.69376">
        <ele>290</ele>
        <time>2020-06-11T14:13:28.001Z</time>
      </trkpt>
      <trkpt lat="49.03884" lon="7.69362">
        <ele>292</ele>
        <time>2020-06-11T14:13:38.001Z</time>
      </trkpt>
      <trkpt lat="49.03887" lon="7.69361">
        <ele>292</ele>
        <time>2020-06-11T14:13:48.001Z</time>
      </trkpt>
      <trkpt lat="49.03888" lon="7.69361">
        <ele>293</ele>
        <time>2020-06-11T14:14:02.000Z</time>
      </trkpt>
      <trkpt lat="49.03889" lon="7.6936">
        <ele>293</ele>
        <time>2020-06-11T14:14:30.001Z</time>
      </trkpt>
      <trkpt lat="49.03887" lon="7.69353">
        <ele>293</ele>
        <time>2020-06-11T14:14:40.001Z</time>
      </trkpt>
      <trkpt lat="49.03886" lon="7.69342">
        <ele>294</ele>
        <time>2020-06-11T14:14:50.001Z</time>
      </trkpt>
      <trkpt lat="49.03883" lon="7.6933">
        <ele>298</ele>
        <time>2020-06-11T14:15:00.000Z</time>
      </trkpt>
      <trkpt lat="49.03881" lon="7.69319">
        <ele>297</ele>
        <time>2020-06-11T14:15:09.001Z</time>
      </trkpt>
      <trkpt lat="49.03881" lon="7.69309">
        <ele>297</ele>
        <time>2020-06-11T14:15:19.001Z</time>
      </trkpt>
      <trkpt lat="49.03884" lon="7.69293">
        <ele>298</ele>
        <time>2020-06-11T14:15:29.001Z</time>
      </trkpt>
      <trkpt lat="49.03885" lon="7.69288">
        <ele>299</ele>
        <time>2020-06-11T14:15:39.001Z</time>
      </trkpt>
      <trkpt lat="49.03886" lon="7.69287">
        <ele>299</ele>
        <time>2020-06-11T14:16:04.001Z</time>
      </trkpt>
      <trkpt lat="49.03888" lon="7.69277">
        <ele>300</ele>
        <time>2020-06-11T14:16:14.001Z</time>
      </trkpt>
      <trkpt lat="49.0389" lon="7.69266">
        <ele>301</ele>
        <time>2020-06-11T14:16:24.001Z</time>
      </trkpt>
      <trkpt lat="49.03894" lon="7.69242">
        <ele>305</ele>
        <time>2020-06-11T14:16:34.001Z</time>
      </trkpt>
      <trkpt lat="49.03895" lon="7.6923">
        <ele>304</ele>
        <time>2020-06-11T14:16:44.001Z</time>
      </trkpt>
      <trkpt lat="49.03895" lon="7.6922">
        <ele>304</ele>
        <time>2020-06-11T14:16:54.001Z</time>
      </trkpt>
      <trkpt lat="49.03895" lon="7.69208">
        <ele>304</ele>
        <time>2020-06-11T14:17:04.001Z</time>
      </trkpt>
      <trkpt lat="49.03896" lon="7.692">
        <ele>304</ele>
        <time>2020-06-11T14:17:14.001Z</time>
      </trkpt>
      <trkpt lat="49.03896" lon="7.69179">
        <ele>307</ele>
        <time>2020-06-11T14:17:24.001Z</time>
      </trkpt>
      <trkpt lat="49.03896" lon="7.69165">
        <ele>309</ele>
        <time>2020-06-11T14:17:34.001Z</time>
      </trkpt>
      <trkpt lat="49.03897" lon="7.69141">
        <ele>307</ele>
        <time>2020-06-11T14:17:44.001Z</time>
      </trkpt>
      <trkpt lat="49.03899" lon="7.69117">
        <ele>307</ele>
        <time>2020-06-11T14:17:54.001Z</time>
      </trkpt>
      <trkpt lat="49.039" lon="7.69107">
        <ele>308</ele>
        <time>2020-06-11T14:18:04.001Z</time>
      </trkpt>
      <trkpt lat="49.039" lon="7.69103">
        <ele>309</ele>
        <time>2020-06-11T14:18:14.001Z</time>
      </trkpt>
      <trkpt lat="49.03901" lon="7.69102">
        <ele>309</ele>
        <time>2020-06-11T14:18:59.001Z</time>
      </trkpt>
      <trkpt lat="49.03899" lon="7.69088">
        <ele>311</ele>
        <time>2020-06-11T14:19:09.001Z</time>
      </trkpt>
      <trkpt lat="49.03896" lon="7.69078">
        <ele>309</ele>
        <time>2020-06-11T14:19:19.001Z</time>
      </trkpt>
      <trkpt lat="49.0389" lon="7.69069">
        <ele>306</ele>
        <time>2020-06-11T14:19:29.001Z</time>
      </trkpt>
      <trkpt lat="49.03887" lon="7.69067">
        <ele>304</ele>
        <time>2020-06-11T14:19:39.001Z</time>
      </trkpt>
      <trkpt lat="49.03884" lon="7.69065">
        <ele>303</ele>
        <time>2020-06-11T14:19:49.001Z</time>
      </trkpt>
      <trkpt lat="49.03882" lon="7.69065">
        <ele>302</ele>
        <time>2020-06-11T14:20:08.001Z</time>
      </trkpt>
      <trkpt lat="49.03883" lon="7.69065">
        <ele>303</ele>
        <time>2020-06-11T14:20:37.001Z</time>
      </trkpt>
      <trkpt lat="49.03881" lon="7.69064">
        <ele>302</ele>
        <time>2020-06-11T14:20:47.001Z</time>
      </trkpt>
      <trkpt lat="49.0388" lon="7.69054">
        <ele>301</ele>
        <time>2020-06-11T14:20:57.001Z</time>
      </trkpt>
      <trkpt lat="49.03882" lon="7.69045">
        <ele>302</ele>
        <time>2020-06-11T14:21:07.001Z</time>
      </trkpt>
      <trkpt lat="49.03882" lon="7.69043">
        <ele>302</ele>
        <time>2020-06-11T14:21:17.001Z</time>
      </trkpt>
      <trkpt lat="49.03885" lon="7.69042">
        <ele>302</ele>
        <time>2020-06-11T14:21:27.001Z</time>
      </trkpt>
      <trkpt lat="49.03887" lon="7.69042">
        <ele>303</ele>
        <time>2020-06-11T14:21:37.001Z</time>
      </trkpt>
      <trkpt lat="49.03888" lon="7.69042">
        <ele>303</ele>
        <time>2020-06-11T14:21:56.001Z</time>
      </trkpt>
      <trkpt lat="49.0389" lon="7.69041">
        <ele>303</ele>
        <time>2020-06-11T14:22:06.001Z</time>
      </trkpt>
      <trkpt lat="49.03891" lon="7.6904">
        <ele>303</ele>
        <time>2020-06-11T14:22:16.000Z</time>
      </trkpt>
      <trkpt lat="49.03892" lon="7.69041">
        <ele>304</ele>
        <time>2020-06-11T14:22:25.001Z</time>
      </trkpt>
      <trkpt lat="49.03893" lon="7.69041">
        <ele>304</ele>
        <time>2020-06-11T14:22:38.001Z</time>
      </trkpt>
      <trkpt lat="49.03892" lon="7.69034">
        <ele>303</ele>
        <time>2020-06-11T14:22:48.001Z</time>
      </trkpt>
      <trkpt lat="49.03891" lon="7.69033">
        <ele>303</ele>
        <time>2020-06-11T14:22:58.001Z</time>
      </trkpt>
      <trkpt lat="49.03887" lon="7.69032">
        <ele>302</ele>
        <time>2020-06-11T14:23:08.001Z</time>
      </trkpt>
      <trkpt lat="49.03883" lon="7.69032">
        <ele>301</ele>
        <time>2020-06-11T14:23:18.001Z</time>
      </trkpt>
      <trkpt lat="49.03876" lon="7.69032">
        <ele>300</ele>
        <time>2020-06-11T14:23:28.001Z</time>
      </trkpt>
      <trkpt lat="49.0387" lon="7.69039">
        <ele>299</ele>
        <time>2020-06-11T14:23:38.001Z</time>
      </trkpt>
      <trkpt lat="49.03865" lon="7.69029">
        <ele>297</ele>
        <time>2020-06-11T14:23:48.001Z</time>
      </trkpt>
      <trkpt lat="49.03866" lon="7.69028">
        <ele>297</ele>
        <time>2020-06-11T14:24:49.001Z</time>
      </trkpt>
      <trkpt lat="49.03867" lon="7.69027">
        <ele>297</ele>
        <time>2020-06-11T14:25:01.001Z</time>
      </trkpt>
      <trkpt lat="49.03868" lon="7.69025">
        <ele>297</ele>
        <time>2020-06-11T14:25:11.001Z</time>
      </trkpt>
      <trkpt lat="49.03869" lon="7.69026">
        <ele>298</ele>
        <time>2020-06-11T14:25:21.001Z</time>
      </trkpt>
      <trkpt lat="49.0387" lon="7.69029">
        <ele>298</ele>
        <time>2020-06-11T14:25:31.001Z</time>
      </trkpt>
      <trkpt lat="49.03868" lon="7.6903">
        <ele>298</ele>
        <time>2020-06-11T14:25:41.001Z</time>
      </trkpt>
      <trkpt lat="49.03872" lon="7.6903">
        <ele>299</ele>
        <time>2020-06-11T14:26:48.001Z</time>
      </trkpt>
      <trkpt lat="49.03873" lon="7.6903">
        <ele>299</ele>
        <time>2020-06-11T14:27:33.001Z</time>
      </trkpt>
      <trkpt lat="49.03874" lon="7.69031">
        <ele>299</ele>
        <time>2020-06-11T14:27:43.001Z</time>
      </trkpt>
      <trkpt lat="49.03875" lon="7.69031">
        <ele>299</ele>
        <time>2020-06-11T14:27:53.001Z</time>
      </trkpt>
      <trkpt lat="49.03879" lon="7.69031">
        <ele>300</ele>
        <time>2020-06-11T14:28:03.001Z</time>
      </trkpt>
      <trkpt lat="49.03879" lon="7.6903">
        <ele>300</ele>
        <time>2020-06-11T14:28:36.001Z</time>
      </trkpt>
      <trkpt lat="49.0388" lon="7.69028">
        <ele>301</ele>
        <time>2020-06-11T14:28:46.001Z</time>
      </trkpt>
      <trkpt lat="49.03883" lon="7.69026">
        <ele>301</ele>
        <time>2020-06-11T14:28:56.001Z</time>
      </trkpt>
      <trkpt lat="49.03879" lon="7.69025">
        <ele>300</ele>
        <time>2020-06-11T14:29:06.001Z</time>
      </trkpt>
      <trkpt lat="49.03875" lon="7.69024">
        <ele>299</ele>
        <time>2020-06-11T14:29:16.000Z</time>
      </trkpt>
      <trkpt lat="49.03874" lon="7.69024">
        <ele>299</ele>
        <time>2020-06-11T14:30:20.001Z</time>
      </trkpt>
      <trkpt lat="49.03868" lon="7.69033">
        <ele>298</ele>
        <time>2020-06-11T14:30:30.001Z</time>
      </trkpt>
      <trkpt lat="49.03869" lon="7.69039">
        <ele>298</ele>
        <time>2020-06-11T14:30:40.001Z</time>
      </trkpt>
      <trkpt lat="49.0387" lon="7.69041">
        <ele>299</ele>
        <time>2020-06-11T14:30:50.001Z</time>
      </trkpt>
      <trkpt lat="49.03874" lon="7.69041">
        <ele>299</ele>
        <time>2020-06-11T14:31:00.000Z</time>
      </trkpt>
      <trkpt lat="49.03876" lon="7.69044">
        <ele>300</ele>
        <time>2020-06-11T14:31:09.001Z</time>
      </trkpt>
      <trkpt lat="49.03877" lon="7.69044">
        <ele>300</ele>
        <time>2020-06-11T14:31:28.001Z</time>
      </trkpt>
      <trkpt lat="49.03882" lon="7.6904">
        <ele>301</ele>
        <time>2020-06-11T14:31:38.001Z</time>
      </trkpt>
      <trkpt lat="49.03892" lon="7.69025">
        <ele>303</ele>
        <time>2020-06-11T14:31:48.001Z</time>
      </trkpt>
      <trkpt lat="49.03896" lon="7.69016">
        <ele>305</ele>
        <time>2020-06-11T14:31:58.001Z</time>
      </trkpt>
      <trkpt lat="49.03894" lon="7.69006">
        <ele>305</ele>
        <time>2020-06-11T14:32:08.001Z</time>
      </trkpt>
      <trkpt lat="49.03894" lon="7.69003">
        <ele>305</ele>
        <time>2020-06-11T14:32:18.001Z</time>
      </trkpt>
      <trkpt lat="49.03894" lon="7.69001">
        <ele>305</ele>
        <time>2020-06-11T14:32:28.001Z</time>
      </trkpt>
      <trkpt lat="49.03894" lon="7.69">
        <ele>301</ele>
        <time>2020-06-11T14:33:24.001Z</time>
      </trkpt>
      <trkpt lat="49.03895" lon="7.68997">
        <ele>301</ele>
        <time>2020-06-11T14:33:34.001Z</time>
      </trkpt>
      <trkpt lat="49.03898" lon="7.68989">
        <ele>301</ele>
        <time>2020-06-11T14:33:44.001Z</time>
      </trkpt>
      <trkpt lat="49.03901" lon="7.68981">
        <ele>300</ele>
        <time>2020-06-11T14:33:54.001Z</time>
      </trkpt>
      <trkpt lat="49.03904" lon="7.68974">
        <ele>299</ele>
        <time>2020-06-11T14:34:04.001Z</time>
      </trkpt>
      <trkpt lat="49.03907" lon="7.68969">
        <ele>299</ele>
        <time>2020-06-11T14:34:14.001Z</time>
      </trkpt>
      <trkpt lat="49.03907" lon="7.68967">
        <ele>298</ele>
        <time>2020-06-11T14:34:24.001Z</time>
      </trkpt>
      <trkpt lat="49.03908" lon="7.68961">
        <ele>298</ele>
        <time>2020-06-11T14:34:34.001Z</time>
      </trkpt>
      <trkpt lat="49.03909" lon="7.68955">
        <ele>297</ele>
        <time>2020-06-11T14:34:44.001Z</time>
      </trkpt>
      <trkpt lat="49.03914" lon="7.6893">
        <ele>298</ele>
        <time>2020-06-11T14:34:54.001Z</time>
      </trkpt>
      <trkpt lat="49.03917" lon="7.68913">
        <ele>305</ele>
        <time>2020-06-11T14:35:04.001Z</time>
      </trkpt>
      <trkpt lat="49.03914" lon="7.68882">
        <ele>292</ele>
        <time>2020-06-11T14:35:14.001Z</time>
      </trkpt>
      <trkpt lat="49.03909" lon="7.68867">
        <ele>292</ele>
        <time>2020-06-11T14:35:24.001Z</time>
      </trkpt>
      <trkpt lat="49.03906" lon="7.68848">
        <ele>294</ele>
        <time>2020-06-11T14:35:34.001Z</time>
      </trkpt>
      <trkpt lat="49.03902" lon="7.68837">
        <ele>295</ele>
        <time>2020-06-11T14:35:44.001Z</time>
      </trkpt>
      <trkpt lat="49.039" lon="7.6882">
        <ele>299</ele>
        <time>2020-06-11T14:35:54.001Z</time>
      </trkpt>
      <trkpt lat="49.03897" lon="7.68806">
        <ele>299</ele>
        <time>2020-06-11T14:36:04.001Z</time>
      </trkpt>
      <trkpt lat="49.03893" lon="7.68798">
        <ele>299</ele>
        <time>2020-06-11T14:36:14.001Z</time>
      </trkpt>
      <trkpt lat="49.03892" lon="7.6879">
        <ele>300</ele>
        <time>2020-06-11T14:36:24.001Z</time>
      </trkpt>
      <trkpt lat="49.03886" lon="7.68784">
        <ele>299</ele>
        <time>2020-06-11T14:36:34.001Z</time>
      </trkpt>
      <trkpt lat="49.03878" lon="7.68786">
        <ele>298</ele>
        <time>2020-06-11T14:36:44.001Z</time>
      </trkpt>
      <trkpt lat="49.03875" lon="7.68782">
        <ele>297</ele>
        <time>2020-06-11T14:36:54.001Z</time>
      </trkpt>
      <trkpt lat="49.03877" lon="7.68778">
        <ele>298</ele>
        <time>2020-06-11T14:40:17.001Z</time>
      </trkpt>
      <trkpt lat="49.03876" lon="7.68776">
        <ele>298</ele>
        <time>2020-06-11T14:40:27.001Z</time>
      </trkpt>
      <trkpt lat="49.03874" lon="7.68772">
        <ele>298</ele>
        <time>2020-06-11T14:40:41.001Z</time>
      </trkpt>
      <trkpt lat="49.0387" lon="7.68765">
        <ele>297</ele>
        <time>2020-06-11T14:40:51.001Z</time>
      </trkpt>
      <trkpt lat="49.03864" lon="7.68755">
        <ele>296</ele>
        <time>2020-06-11T14:41:01.001Z</time>
      </trkpt>
      <trkpt lat="49.03855" lon="7.68745">
        <ele>306</ele>
        <time>2020-06-11T14:41:11.001Z</time>
      </trkpt>
      <trkpt lat="49.03843" lon="7.68739">
        <ele>302</ele>
        <time>2020-06-11T14:41:21.001Z</time>
      </trkpt>
      <trkpt lat="49.03835" lon="7.68736">
        <ele>301</ele>
        <time>2020-06-11T14:41:31.001Z</time>
      </trkpt>
      <trkpt lat="49.03828" lon="7.68731">
        <ele>287</ele>
        <time>2020-06-11T14:41:41.001Z</time>
      </trkpt>
      <trkpt lat="49.03808" lon="7.68721">
        <ele>286</ele>
        <time>2020-06-11T14:41:51.001Z</time>
      </trkpt>
      <trkpt lat="49.03796" lon="7.68717">
        <ele>284</ele>
        <time>2020-06-11T14:42:01.001Z</time>
      </trkpt>
      <trkpt lat="49.03785" lon="7.68712">
        <ele>282</ele>
        <time>2020-06-11T14:42:11.001Z</time>
      </trkpt>
      <trkpt lat="49.03779" lon="7.68705">
        <ele>282</ele>
        <time>2020-06-11T14:42:21.001Z</time>
      </trkpt>
      <trkpt lat="49.0377" lon="7.68692">
        <ele>282</ele>
        <time>2020-06-11T14:42:31.001Z</time>
      </trkpt>
      <trkpt lat="49.03762" lon="7.68675">
        <ele>279</ele>
        <time>2020-06-11T14:42:41.001Z</time>
      </trkpt>
      <trkpt lat="49.03757" lon="7.68665">
        <ele>282</ele>
        <time>2020-06-11T14:42:51.001Z</time>
      </trkpt>
      <trkpt lat="49.03749" lon="7.68655">
        <ele>272</ele>
        <time>2020-06-11T14:43:01.001Z</time>
      </trkpt>
      <trkpt lat="49.0374" lon="7.68641">
        <ele>271</ele>
        <time>2020-06-11T14:43:11.001Z</time>
      </trkpt>
      <trkpt lat="49.03735" lon="7.68627">
        <ele>271</ele>
        <time>2020-06-11T14:43:21.001Z</time>
      </trkpt>
      <trkpt lat="49.0373" lon="7.68609">
        <ele>273</ele>
        <time>2020-06-11T14:43:31.001Z</time>
      </trkpt>
      <trkpt lat="49.03727" lon="7.68593">
        <ele>275</ele>
        <time>2020-06-11T14:43:41.001Z</time>
      </trkpt>
      <trkpt lat="49.03725" lon="7.68577">
        <ele>276</ele>
        <time>2020-06-11T14:43:51.001Z</time>
      </trkpt>
      <trkpt lat="49.03724" lon="7.68561">
        <ele>274</ele>
        <time>2020-06-11T14:44:01.001Z</time>
      </trkpt>
      <trkpt lat="49.03724" lon="7.68547">
        <ele>273</ele>
        <time>2020-06-11T14:44:11.001Z</time>
      </trkpt>
      <trkpt lat="49.03727" lon="7.68539">
        <ele>273</ele>
        <time>2020-06-11T14:44:21.001Z</time>
      </trkpt>
      <trkpt lat="49.03723" lon="7.68535">
        <ele>272</ele>
        <time>2020-06-11T14:44:31.001Z</time>
      </trkpt>
      <trkpt lat="49.03721" lon="7.68536">
        <ele>272</ele>
        <time>2020-06-11T14:44:41.001Z</time>
      </trkpt>
      <trkpt lat="49.03721" lon="7.68529">
        <ele>272</ele>
        <time>2020-06-11T14:44:51.001Z</time>
      </trkpt>
      <trkpt lat="49.03719" lon="7.68519">
        <ele>272</ele>
        <time>2020-06-11T14:45:01.001Z</time>
      </trkpt>
      <trkpt lat="49.0372" lon="7.68504">
        <ele>272</ele>
        <time>2020-06-11T14:45:11.001Z</time>
      </trkpt>
      <trkpt lat="49.03722" lon="7.68481">
        <ele>270</ele>
        <time>2020-06-11T14:45:21.001Z</time>
      </trkpt>
      <trkpt lat="49.03721" lon="7.6846">
        <ele>268</ele>
        <time>2020-06-11T14:45:31.001Z</time>
      </trkpt>
      <trkpt lat="49.03718" lon="7.68448">
        <ele>267</ele>
        <time>2020-06-11T14:45:41.001Z</time>
      </trkpt>
      <trkpt lat="49.03718" lon="7.68446">
        <ele>268</ele>
        <time>2020-06-11T14:45:51.001Z</time>
      </trkpt>
      <trkpt lat="49.03717" lon="7.68429">
        <ele>267</ele>
        <time>2020-06-11T14:46:01.001Z</time>
      </trkpt>
      <trkpt lat="49.03717" lon="7.68402">
        <ele>264</ele>
        <time>2020-06-11T14:46:11.001Z</time>
      </trkpt>
      <trkpt lat="49.0372" lon="7.68387">
        <ele>264</ele>
        <time>2020-06-11T14:46:21.001Z</time>
      </trkpt>
      <trkpt lat="49.03719" lon="7.68373">
        <ele>263</ele>
        <time>2020-06-11T14:46:31.001Z</time>
      </trkpt>
      <trkpt lat="49.03714" lon="7.68358">
        <ele>261</ele>
        <time>2020-06-11T14:46:41.001Z</time>
      </trkpt>
      <trkpt lat="49.03705" lon="7.6835">
        <ele>260</ele>
        <time>2020-06-11T14:46:51.001Z</time>
      </trkpt>
      <trkpt lat="49.03693" lon="7.68343">
        <ele>257</ele>
        <time>2020-06-11T14:47:01.001Z</time>
      </trkpt>
      <trkpt lat="49.03685" lon="7.68338">
        <ele>254</ele>
        <time>2020-06-11T14:47:11.001Z</time>
      </trkpt>
      <trkpt lat="49.03677" lon="7.68332">
        <ele>249</ele>
        <time>2020-06-11T14:47:21.001Z</time>
      </trkpt>
      <trkpt lat="49.03678" lon="7.6833">
        <ele>250</ele>
        <time>2020-06-11T14:47:31.001Z</time>
      </trkpt>
      <trkpt lat="49.0368" lon="7.68329">
        <ele>250</ele>
        <time>2020-06-11T14:47:41.001Z</time>
      </trkpt>
      <trkpt lat="49.03683" lon="7.68324">
        <ele>251</ele>
        <time>2020-06-11T14:47:51.001Z</time>
      </trkpt>
      <trkpt lat="49.03682" lon="7.68312">
        <ele>251</ele>
        <time>2020-06-11T14:48:01.001Z</time>
      </trkpt>
      <trkpt lat="49.03679" lon="7.68295">
        <ele>251</ele>
        <time>2020-06-11T14:48:11.001Z</time>
      </trkpt>
      <trkpt lat="49.03681" lon="7.68289">
        <ele>251</ele>
        <time>2020-06-11T14:48:21.001Z</time>
      </trkpt>
      <trkpt lat="49.03677" lon="7.68289">
        <ele>250</ele>
        <time>2020-06-11T14:48:31.001Z</time>
      </trkpt>
      <trkpt lat="49.0368" lon="7.68287">
        <ele>251</ele>
        <time>2020-06-11T14:48:41.001Z</time>
      </trkpt>
      <trkpt lat="49.03681" lon="7.68287">
        <ele>251</ele>
        <time>2020-06-11T14:48:58.001Z</time>
      </trkpt>
    </trkseg>
  </trk>
</gpx>